     2              OBSERVATION DATA    GPS                 RINEX VERSION / TYPE
teqc 2000Feb29 20031025 01:58:33UTC                         PGM / RUN BY / DATE
                                                            COMMENT
L2: 1 -> 1; 150 -> 5; 250 -> 9                              COMMENT
L2: 1 -> 1; 150 -> 5; 250 -> 9                              COMMENT
L2: 1 -> 1; 150 -> 5; 250 -> 9                              COMMENT
L2: 1 -> 1; 150 -> 5; 250 -> 9                              COMMENT
L2: 1 -> 1; 150 -> 5; 250 -> 9                              COMMENT
Original Marker Name: NORC                                  COMMENT
Campaign Name: CSUSB 2002-2003                              COMMENT
4-Character Station Name: NORC                              COMMENT
6-Character Antenna Code: DMRCHT                            COMMENT
Vertical Measurement Point: BCR                             COMMENT
Vertical Offset to Rinex Ref. Point: 0.0348                 COMMENT
Radial Measurement Point: ECF                               COMMENT
Radial Offset to Rinex Ref. Point: 0.1897                   COMMENT
Antenna Height from Field Measurement: 1.0260 m             COMMENT
Additional Antenna Identification Info.:                    COMMENT
Turborogue and Ashtech Choke Ring                           COMMENT
Original XYZ: -2451142.3700 -4696391.5400 3540568.8100      COMMENT
New XYZ position is based on association with SCEC monument COMMENT
E1D0O3O1+0011. Position of that monument is believed to be  COMMENT
valid to within 1 m horizontally; vertical accuracy         COMMENT
should be no worse than 3-times this value.                 COMMENT
                                                            COMMENT
Revised Rinex header created by UCSD GPS archive for        COMMENT
GSAC on 09-Nov-2004 (2004:314) 22:03:01 GMT                 COMMENT
For assistance contact dagnew@ucsd.edu                      COMMENT
or anderson@python.ucsd.edu                                 COMMENT
                                                            COMMENT
NORC                                                        MARKER NAME
___ CAL STATE SAN BERNARDINO                                OBSERVER / AGENCY
1602 ASHTECH Z-X ZB00                                       REC # / TYPE / VERS
1403 DORNE-MARGOL. TYPE T                                   ANT # / TYPE
 -2451083.0000 -4696385.0000  3540593.0000                  APPROX POSITION XYZ
        0.9735        0.0000        0.0000                  ANTENNA: DELTA H/E/N
     1     1     0                                          WAVELENGTH FACT L1/2
     7    C1    L1    L2    P1    P2    S1    S2            # / TYPES OF OBSERV
     0                                                      INTERVAL
  2003     6    26    15    45   40.000000                  TIME OF FIRST OBS
  2003     6    26    23    46   20.000000                  TIME OF LAST OBS
                                                            END OF HEADER
 03  6 26 15 45 40.0000000  0 10G21G18G17G 6G16G15G30G10G29G26
  21197810.307      -71162.41053    -48897.98552  21197811.078    21197806.749
        56.000          49.000
  22085433.500     -134015.13253    -94913.15752  22085434.828    22085430.542
        54.000          47.000
  21170818.862      -22788.61953    -14908.41452  21170819.649    21170817.354
        56.000          49.000
  20568116.672      -10815.97754     -7520.09652  20568117.975    20568114.773
        57.000          51.000
  23889580.815      -99205.48653    -70454.66752  23889581.977    23889580.027
        47.000          41.000
  23507924.504     -144258.26953   -101496.86452  23507925.495    23507924.303
        48.000          41.000
  24290823.881      145051.86753     97414.15452  24290825.902    24290824.158
        46.000          39.000
  24171199.143      142847.28353     98918.00852  24171200.733    24171198.638
        46.000          40.000
  23074742.815      -22880.45553    -14747.94852  23074744.126    23074741.399
        50.000          43.000
  22104253.907     -107994.65453    -74692.36952  22104255.457    22104252.818
        52.000          45.000
 03  6 26 15 46  0.0000000  0 10G21G18G17G 6G16G15G30G10G29G26
  21192465.918      -99247.46043    -70782.44642  21192466.938    21192462.287
        56.000          49.000
  22073426.260     -197112.97743   -144080.29742  22073427.458    22073423.238
        54.000          47.000
  21169202.227      -31284.76943    -21528.80142  21169203.072    21169200.109
        56.000          49.000
  20567478.724      -14167.86844    -10131.97142  20567480.197    20567476.859
        57.000          51.000
  23881915.986     -139485.72043   -101841.86442  23881918.030    23881914.571
        47.000          40.000
  23496795.611     -202739.92243   -147066.97642  23496795.138    23496794.814
        48.000          41.000
  24301508.921      201201.30943    141166.90642  24301510.471    24301509.238
        46.000          39.000
  24182062.790      199934.77043    143401.71042  24182062.141    24182061.617
        46.000          40.000
  23072925.012      -32430.28643    -22189.38442  23072927.102    23072924.668
        50.000          44.000
  22096127.831     -150695.14743   -107965.47142  22096129.360    22096127.089
        52.000          45.000
 03  6 26 15 46 20.0000000  0 11G23G21G18G17G 6G16G15G30G10G29G26
  24152798.966     -201594.29053   -142810.50752  24152799.955    24152798.612
        45.000          39.000
  21187114.373     -127370.13143    -92696.22542  21187115.308    21187110.728
        56.000          49.000
  22061426.893     -260168.71043   -193214.61942  22061428.179    22061423.821
        54.000          47.000
  21167576.954      -39825.65343    -28184.04842  21167577.434    21167575.167
        56.000          49.000
  20566858.863      -17425.15944    -12670.13542  20566860.421    20566856.772
        57.000          51.000
  23874271.931     -179656.77243   -133143.98542  23874275.201    23874269.610
        47.000          41.000
  23485652.249     -261299.43643   -192697.76042  23485653.088    23485651.049
        48.000          41.000
  24312170.021      257226.27043    184822.67042  24312171.994    24312169.429
        46.000          39.000
  24192910.787      256941.99643    187822.88942  24192912.060    24192910.100
        47.000          40.000
  23071131.007      -41857.96643    -29535.62542  23071132.279    23071130.059
        50.000          43.000
  22088025.724     -193271.29343   -141141.68242  22088027.450    22088025.116
        52.000          45.000
 03  6 26 15 46 40.0000000  0 11G23G21G18G17G 6G16G15G30G10G29G26
  24138410.728     -277203.55043   -201726.79342  24138412.512    24138411.604
        44.000          39.000
  21181752.809     -155545.58843   -114651.14242  21181753.703    21181749.568
        56.000          49.000
  22049432.994     -323197.09643   -242327.64142  22049434.190    22049430.964
        54.000          47.000
  21165940.219      -48426.54843    -34886.05942  21165940.854    21165938.599
        55.000          49.000
  20566254.339      -20602.67344    -15146.13942  20566255.706    20566252.508
        57.000          51.000
  23866646.250     -219733.55443   -164372.66342  23866647.757    23866643.973
        47.000          41.000
  23474490.883     -319951.90343   -238400.96242  23474491.338    23474489.989
        48.000          41.000
  24322804.140      313110.80943    228368.99842  24322806.012    24322804.922
        46.000          39.000
  24203740.309      313853.23043    232169.25842  24203741.082    24203739.880
        47.000          40.000
  23069357.153      -51178.44843    -36798.33942  23069359.265    23069357.430
        50.000          43.000
  22079944.687     -235737.55043   -174232.26142  22079946.928    22079943.657
        52.000          45.000
 03  6 26 15 47  0.0000000  0 11G23G21G18G17G 6G16G15G30G10G29G26
  24124008.423     -352887.18443   -260701.00942  24124010.416    24124009.359
        45.000          39.000
  21176373.358     -183814.08343   -136678.54542  21176374.246    21176369.833
        56.000          49.000
  22037436.788     -386237.96043   -291450.37942  22037437.973    22037434.797
        54.000          47.000
  21164284.558      -57127.93943    -41666.37642  21164285.193    21164282.520
        56.000          49.000
  20565657.190      -23740.51844    -17591.22242  20565658.837    20565655.351
        57.000          51.000
  23859031.143     -259756.02043   -195559.00542  23859032.544    23859028.550
        48.000          41.000
  23463304.563     -378737.43743   -284207.87642  23463303.078    23463304.039
        48.000          41.000
  24333403.648      368813.88443    271773.93342  24333405.761    24333404.778
        46.000          40.000
  24214544.006      370627.37243    276408.81942  24214545.295    24214543.796
        46.000          40.000
  23067596.605      -60431.87543    -44008.80042  23067597.576    23067594.826
        50.000          44.000
  22071877.144     -278133.31243   -207267.90142  22071879.198    22071876.416
        52.000          45.000
 03  6 26 15 47 20.0000000  0 11G23G21G18G17G 6G16G15G30G10G29G26
  24109595.693     -428626.85943   -319718.89542  24109596.638    24109595.994
        45.000          39.000
  21170979.712     -212157.74043   -158764.52242  21170980.484    21170976.064
        56.000          49.000
  22025441.700     -449273.02143   -340568.59742  22025442.746    22025439.646
        54.000          47.000
  21162613.132      -65911.72643    -48510.90042  21162613.568    21162611.141
        55.000          49.000
  20565071.020      -26820.64644    -19991.33542  20565072.674    20565068.871
        57.000          51.000
  23851427.733     -299705.86043   -226688.75042  23851427.505    23851425.538
        48.000          41.000
  23452095.961     -437638.34043   -330104.67142  23452098.131    23452094.628
        48.000          41.000
  24343973.540      424352.44343    315050.66042  24343974.160    24343975.225
        46.000          39.000
  24225325.520      427281.69143    320554.97242  24225326.972    24225325.932
        46.000          40.000
  23065851.563      -69600.29243    -51153.00642  23065852.303    23065851.424
        49.000          43.000
  22063826.269     -320440.06843   -240234.18642  22063828.142    22063825.320
        52.000          45.000
 03  6 26 15 47 40.0000000  0 11G23G21G18G17G 6G16G15G30G10G29G26
  24095180.138     -504380.63643   -378747.78442  24095180.769    24095179.400
        45.000          39.000
  21165579.827     -240535.32443   -180876.93742  21165580.622    21165575.973
        56.000          49.000
  22013455.578     -512260.41543   -389649.67442  22013456.952    22013453.459
        55.000          47.000
  21160933.695      -74736.67243    -55387.49942  21160934.150    21160931.793
        56.000          49.000
  20564503.865      -29801.46044    -22314.05942  20564505.300    20564501.858
        57.000          51.000
  23843847.696     -339541.29943   -257729.36242  23843847.889    23843846.051
        48.000          41.000
  23440873.035     -496613.20643   -376059.10142  23440873.175    23440872.623
        48.000          41.000
  24354518.514      479767.20243    358230.93042  24354519.859    24354519.526
        46.000          40.000
  24236090.690      483856.88143    364639.49842  24236092.001    24236090.523
        46.000          40.000
  23064131.328      -78642.13443    -58198.61142  23064132.291    23064130.418
        50.000          44.000
  22055800.665     -362615.67243   -273098.28342  22055802.671    22055799.762
        52.000          45.000
 03  6 26 15 48  0.0000000  0 11G23G21G18G17G 6G16G15G30G10G29G26
  24080762.271     -580147.68443   -437787.00142  24080763.469    24080762.465
        45.000          39.000
  21160173.183     -268946.31543   -203015.38142  21160174.226    21160169.964
        56.000          49.000
  22001478.583     -575199.49643   -438693.10342  22001479.674    22001476.229
        54.000          47.000
  21159246.575      -83602.29143    -62295.79042  21159247.116    21159244.484
        56.000          49.000
  20563955.607      -32682.52144    -24559.05742  20563957.080    20563953.623
        57.000          51.000
  23836288.269     -379261.80643   -288680.41742  23836288.872    23836286.851
        47.000          41.000
  23429637.033     -555661.70743   -422070.91742  23429638.452    23429636.168
        48.000          41.000
  24365040.105      535057.63643    401314.30442  24365041.415    24365040.386
        46.000          40.000
  24246842.190      540352.61743    408662.09342  24246842.844    24246841.730
        46.000          40.000
  23062434.722      -87557.35243    -65145.52742  23062436.431    23062433.658
        50.000          44.000
  22047799.862     -404659.08043   -305859.37442  22047801.298    22047799.743
        52.000          45.000
 03  6 26 15 48 20.0000000  0 11G23G21G18G17G 6G16G15G30G10G29G26
  24066343.421     -655918.78543   -496829.38142  24066344.412    24066344.258
        45.000          39.000
  21154762.114     -297381.89443   -225172.98642  21154763.104    21154758.823
        56.000          49.000
  21989512.534     -638081.07143   -487691.72142  21989513.322    21989509.720
        54.000          47.000
  21157553.637      -92499.56943    -69228.74742  21157554.478    21157551.563
        56.000          49.000
  20563428.032      -35454.74244    -26719.24442  20563429.501    20563426.244
        57.000          51.000
  23828753.001     -418858.20243   -319534.76142  23828756.063    23828750.376
        47.000          41.000
  23418388.096     -614774.87543   -468133.12742  23418388.761    23418387.124
        48.000          41.000
  24375539.309      590231.74543    444307.05242  24375541.168    24375540.604
        46.000          40.000
  24257579.548      596777.00243    452629.10242  24257579.426    24257578.346
        46.000          40.000
  23060764.083      -96336.62343    -71986.53042  23060765.948    23060763.280
        50.000          44.000
  22039826.124     -446560.71343   -338509.98242  22039827.538    22039825.787
        51.000          45.000
 03  6 26 15 48 40.0000000  0 11G23G21G18G17G 6G16G15G30G10G29G26
  24051926.190     -731682.66143   -555866.13042  24051927.775    24051926.388
        45.000          39.000
  21149348.487     -325831.34043   -247341.39542  21149349.260    21149344.966
        56.000          49.000
  21977559.619     -700893.95743   -536636.81542  21977560.754    21977557.160
        54.000          47.000
  21155856.440     -101417.98343    -76178.17542  21155857.122    21155854.547
        55.000          49.000
  20562923.327      -38107.21244    -28786.11642  20562924.729    20562921.423
        57.000          51.000
  23821244.060     -458319.40743   -350283.76942  23821246.009    23821241.581
        47.000          41.000
  23407128.802     -673942.04643   -514237.41542  23407130.109    23407127.898
        48.000          41.000
  24386018.502      645299.59443    487216.99042  24386020.940    24386018.999
        47.000          40.000
  24268304.935      653140.08043    496548.33242  24268304.748    24268303.645
        46.000          40.000
  23059121.566     -104969.22443    -78713.23142  23059122.701    23059120.421
        50.000          44.000
  22031881.990     -488308.96743   -371041.07342  22031883.714    22031880.845
        51.000          45.000
 03  6 26 15 49  0.0000000  0 11G23G21G18G17G 6G16G15G30G10G29G26
  24037508.729     -807447.57743   -614903.68642  24037508.975    24037509.053
        45.000          40.000
  21143930.443     -354303.26143   -269527.31742  21143931.596    21143927.027
        56.000          49.000
  21965618.055     -763646.75643   -585535.08942  21965619.253    21965615.455
        54.000          47.000
  21154153.449     -110366.55443    -83151.10242  21154153.955    21154152.058
        55.000          49.000
  20562439.889      -40648.56344    -30766.40342  20562441.139    20562437.609
        57.000          51.000
  23813759.820     -497653.87343   -380934.01942  23813761.396    23813756.808
        47.000          41.000
  23395857.831     -733171.97643   -560390.59942  23395858.813    23395856.696
        48.000          42.000
  24396475.352      700251.53443    530036.62042  24396476.727    24396476.987
        46.000          39.000
  24279017.000      709432.43143    540412.45842  24279017.877    24279016.982
        46.000          40.000
  23057504.843     -113463.80043    -85332.38442  23057506.381    23057503.457
        50.000          44.000
  22023965.105     -529912.03743   -403459.03342  22023966.244    22023964.432
        52.000          45.000
 03  6 26 15 49 20.0000000  0 11G23G21G18G17G 6G16G15G30G10G29G26
  24023092.541     -883202.68243   -673933.58942  24023094.721    24023093.162
        45.000          40.000
  21138510.121     -382787.35543   -291722.72342  21138511.182    21138506.736
        56.000          49.000
  21953690.190     -826328.46143   -634377.96542  21953691.743    21953687.892
        55.000          47.000
  21152447.049     -119334.63143    -90139.22942  21152447.810    21152445.138
        56.000          49.000
  20561979.328      -43068.24244    -32651.87842  20561980.630    20561977.306
        57.000          51.000
  23806300.772     -536851.06843   -411477.29542  23806301.302    23806298.315
        48.000          41.000
  23384576.501     -792454.18043   -606584.53642  23384576.660    23384574.085
        48.000          41.000
  24406912.832      755097.23143    572773.45242  24406914.289    24406912.500
        46.000          39.000
  24289717.850      765663.85043    584229.11242  24289720.164    24289715.897
        46.000          40.000
  23055916.839     -121809.90343    -91835.84442  23055918.400    23055915.599
        50.000          44.000
  22016078.113     -571358.70043   -435755.11742  22016078.926    22016077.158
        52.000          45.000
 03  6 26 15 49 40.0000000  0 11G23G21G18G17G 6G16G15G30G10G29G26
  24008683.935     -958921.07243   -732934.89042  24008685.125    24008684.125
        45.000          40.000
  21133092.518     -411257.15843   -313906.99842  21133093.539    21133089.044
        56.000          49.000
  21941781.071     -888912.33343   -683144.61342  21941782.312    21941778.545
        55.000          47.000
  21150741.850     -128295.98443    -97122.11842  21150742.396    21150740.020
        55.000          49.000
  20561547.073      -45339.69944    -34421.85642  20561548.735    20561545.068
        57.000          51.000
  23798872.692     -575884.12243   -441892.67542  23798874.692    23798870.085
        47.000          41.000
  23373290.962     -851762.39643   -652798.71542  23373292.347    23373290.176
        48.000          41.000
  24417333.542      809862.29343    615447.47442  24417335.338    24417333.822
        45.000          39.000
  24300410.967      821860.06743    628018.33642  24300412.697    24300412.120
        46.000          40.000
  23054361.963     -129981.01543    -98202.94242  23054363.411    23054361.279
        50.000          44.000
  22008225.648     -612621.81943   -467908.18642  22008227.538    22008225.109
        51.000          45.000
 03  6 26 15 50  0.0000000  0 11G23G21G18G17G 6G16G15G30G10G29G26
  23994282.543    -1034603.56943   -791908.21842  23994283.399    23994282.997
        45.000          40.000
  21127677.324     -439713.97043   -336081.14342  21127678.197    21127674.053
        56.000          49.000
  21929890.066     -951399.28743   -731835.74042  21929891.633    21929887.460
        55.000          47.000
  21149037.819     -137251.73643   -104100.64242  21149038.215    21149035.900
        55.000          49.000
  20561142.893      -47464.07744    -36077.23442  20561144.325    20561141.089
        57.000          51.000
  23791475.676     -614753.93943   -472180.84742  23791476.769    23791473.834
        47.000          41.000
  23361999.719     -911097.85643   -699034.14542  23362000.231    23361998.176
        48.000          41.000
  24427739.575      864544.50843    658056.91542  24427740.896    24427740.703
        46.000          39.000
  24311097.726      878019.01443    671778.49942  24311098.420    24311096.537
        45.000          40.000
  23052840.198     -137978.47843   -104434.73642  23052841.270    23052839.271
        50.000          44.000
  22000408.749     -653702.06643   -499918.75342  22000410.717    22000406.916
        51.000          45.000
 03  6 26 15 50 20.0000000  0 11G23G21G18G17G 6G16G15G30G10G29G26
  23979890.628    -1110230.12243   -850837.95342  23979891.460    23979891.469
        45.000          40.000
  21122268.428     -468138.22243   -358229.92142  21122269.232    21122265.089
        56.000          49.000
  21918021.662    -1013769.53243   -780435.92442  21918022.895    21918019.533
        55.000          47.000
  21147338.308     -146182.58343   -111059.75942  21147339.013    21147336.149
        56.000          49.000
  20560770.428      -49421.67144    -37602.64342  20560771.756    20560768.506
        57.000          51.000
  23784113.465     -653440.67543   -502326.37442  23784115.267    23784112.795
        47.000          41.000
  23350706.592     -970440.97543   -745275.52842  23350708.689    23350704.741
        48.000          41.000
  24438132.514      919162.77343    700616.53142  24438135.827    24438132.265
        46.000          39.000
  24321781.524      934159.68743    715524.43142  24321781.632    24321783.024
        46.000          40.000
  23051354.677     -145782.51943   -110515.80242  23051357.159    23051354.945
        50.000          44.000
  21992629.947     -694579.17343   -531771.03242  21992631.742    21992629.525
        52.000          45.000
 03  6 26 15 50 40.0000000  0 11G23G21G18G17G 6G16G15G30G10G29G26
  23965506.872    -1185816.99843   -909736.77842  23965508.290    23965507.168
        45.000          39.000
  21116862.558     -496546.79843   -380366.48142  21116863.685    21116859.193
        56.000          49.000
  21906171.869    -1076039.46043   -828957.93942  21906173.252    21906169.352
        55.000          47.000
  21145640.310     -155105.09943   -118012.38442  21145641.184    21145638.499
        56.000          49.000
  20560426.387      -51229.08644    -39011.03342  20560427.954    20560424.655
        57.000          51.000
  23776785.640     -691960.85143   -532342.11142  23776784.693    23776783.351
        48.000          41.000
  23339410.101    -1029808.53143   -791535.96142  23339410.968    23339408.784
        48.000          42.000
  24448511.954      973699.58043    743112.66442  24448512.232    24448511.037
        47.000          39.000
  24332457.736      990264.62143    759242.50742  24332459.181    24332456.939
        46.000          40.000
  23049903.518     -153409.91543   -116459.23642  23049905.089    23049902.697
        50.000          44.000
  21984887.002     -735269.20043   -563477.52542  21984888.819    21984886.291
        52.000          45.000
 03  6 26 15 51  0.0000000  0 11G23G21G18G17G 6G16G15G30G10G29G26
  23951129.964    -1261369.49143   -968608.80742  23951129.987    23951130.849
        45.000          39.000
  21111458.374     -524945.37643   -402495.25042  21111459.521    21111455.377
        56.000          49.000
  21894340.410    -1138214.42043   -877405.95142  21894341.307    21894337.731
        55.000          47.000
  21143943.000     -164025.01443   -124962.98142  21143943.397    21143940.860
        56.000          49.000
  20560109.970      -52891.93244    -40306.77542  20560111.502    20560108.153
        57.000          51.000
  23769485.037     -730320.04243   -562232.39742  23769486.083    23769482.094
        47.000          41.000
  23328106.896    -1089206.35643   -837819.98542  23328106.865    23328105.970
        49.000          42.000
  24458871.831     1028148.16043    785540.05642  24458873.189    24458872.567
        46.000          39.000
  24343126.019     1046327.37343    802927.72842  24343127.488    24343126.266
        46.000          40.000
  23048484.434     -160866.42343   -122269.50442  23048485.603    23048483.791
        50.000          43.000
  21977178.256     -775777.21243   -595042.19042  21977180.293    21977177.189
        52.000          45.000
 03  6 26 15 51 20.0000000  0 11G23G21G18G17G 6G16G15G30G10G29G26
  23936766.271    -1336852.59143  -1027426.76842  23936767.348    23936767.061
        46.000          39.000
  21106062.932     -553299.34643   -424589.26042  21106064.020    21106059.272
        56.000          49.000
  21882533.659    -1200259.40243   -925752.68542  21882534.140    21882530.977
        55.000          47.000
  21142252.509     -172908.08143   -131884.86942  21142253.154    21142250.696
        55.000          49.000
  20559827.733      -54375.47544    -41462.79942  20559829.131    20559825.743
        57.000          51.000
  23762221.646     -768483.40643   -591970.07742  23762224.461    23762221.052
        47.000          41.000
  23316804.590    -1148599.81543   -884100.60842  23316805.305    23316803.396
        48.000          42.000
  24469223.482     1082542.48343    827925.17542  24469225.817    24469223.896
        46.000          39.000
  24353793.162     1102381.87143    846606.50942  24353794.076    24353793.246
        46.000          39.000
  23047104.502     -168117.37443   -127919.59942  23047106.594    23047103.891
        50.000          44.000
  21969511.574     -816067.92343   -626437.54342  21969512.087    21969510.361
        52.000          45.000
 03  6 26 15 51 40.0000000  0 11G23G21G18G17G 6G16G15G30G10G29G26
  23922415.739    -1412263.88343  -1086188.78542  23922417.305    23922416.427
        45.000          39.000
  21100676.165     -581606.87343   -446647.08142  21100677.115    21100672.930
        56.000          49.000
  21870752.075    -1262172.14843   -973996.37242  21870753.464    21870749.722
        55.000          47.000
  21140569.614     -181752.18543   -138776.39842  21140570.286    21140567.698
        55.000          49.000
  20559580.008      -55677.68144    -42477.52042  20559581.548    20559578.087
        57.000          51.000
  23754997.387     -806448.68243   -621553.41242  23754999.265    23754994.961
        47.000          41.000
  23305503.918    -1207986.97143   -930376.30742  23305506.150    23305501.782
        49.000          41.000
  24479564.975     1136883.57943    870268.81942  24479566.165    24479564.515
        45.000          39.000
  24364458.136     1158429.43943    890279.89242  24364460.322    24364457.873
        45.000          39.000
  23045764.223     -175160.69743   -133407.90942  23045765.937    23045763.241
        50.000          43.000
  21961885.979     -856138.69843   -657661.51542  21961887.476    21961884.937
        52.000          45.000
 03  6 26 15 52  0.0000000  0 11G23G21G18G17G 6G16G15G30G10G29G26
  23908080.788    -1487593.00043  -1144886.75542  23908082.330    23908081.521
        45.000          39.000
  21095300.117     -609858.02443   -468660.97442  21095301.121    21095296.638
        56.000          49.000
  21858997.391    -1323942.56743  -1022129.16442  21858998.813    21858995.178
        55.000          48.000
  21138896.077     -190547.45943   -145629.87342  21138896.404    21138894.269
        56.000          49.000
  20559368.575      -56788.60044    -43343.18842  20559370.131    20559366.730
        57.000          51.000
  23747812.782     -844205.77543   -650974.53342  23747815.838    23747809.883
        47.000          41.000
  23294205.656    -1267358.07643   -976639.49542  23294205.890    23294203.251
        49.000          42.000
  24489896.428     1191180.58943    912578.09942  24489898.606    24489895.374
        45.000          39.000
  24375124.149     1214479.30343    933955.05142  24375124.470    24375125.276
        45.000          39.000
  23044465.738     -181986.66043   -138726.84042  23044465.837    23044464.419
        49.000          43.000
  21954304.911     -895979.09443   -688705.97642  21954306.590    21954303.586
        52.000          45.000
 03  6 26 15 52 20.0000000  0 11G23G21G18G17G 6G16G15G30G10G29G26
  23893757.458    -1562863.64643  -1203539.18242  23893757.549    23893757.046
        45.000          39.000
  21089930.356     -638076.77343   -490649.61642  21089931.344    21089926.904
        56.000          49.000
  21847265.695    -1385594.27243  -1070169.44542  21847267.152    21847262.909
        55.000          48.000
  21137226.922     -199318.11343   -152464.16342  21137227.470    21137225.013
        56.000          49.000
  20559188.956      -57732.17544    -44078.45342  20559190.611    20559187.125
        57.000          51.000
  23740663.251     -881778.56043   -680252.01942  23740665.008    23740660.744
        48.000          41.000
  23282906.108    -1326737.15643  -1022908.90842  23282908.706    23282906.165
        48.000          42.000
  24500216.083     1245408.58043    954833.60442  24500216.546    24500216.006
        45.000          39.000
  24385785.963     1270506.60143    977612.63342  24385786.076    24385785.884
        45.000          40.000
  23043203.512     -188619.30643   -143895.14742  23043205.072    23043201.439
        50.000          43.000
  21946762.519     -935612.45043   -719589.09142  21946764.515    21946761.872
        52.000          45.000
 03  6 26 15 52 40.0000000  0 11G23G21G18G17G 6G16G15G30G10G29G26
  23879448.589    -1638057.32143  -1262131.62542  23879449.421    23879448.078
        45.000          39.000
  21084569.981     -666245.02643   -512598.91242  21084571.181    21084566.590
        56.000          49.000
  21835559.705    -1447109.01643  -1118103.00542  21835560.722    21835557.068
        55.000          48.000
  21135566.152     -208046.07043   -159265.18642  21135566.587    21135564.351
        56.000          49.000
  20559044.867      -58490.31444    -44669.22942  20559046.208    20559042.848
        57.000          51.000
  23733551.568     -919148.75143   -709371.64642  23733552.842    23733550.514
        47.000          41.000
  23271608.722    -1386106.17843  -1069170.49242  23271611.195    23271607.377
        49.000          42.000
  24510524.972     1299584.79043    997048.75142  24510526.180    24510525.404
        45.000          39.000
  24396446.528     1326528.66443   1021266.14942  24396447.545    24396446.395
        45.000          40.000
  23041981.240     -195040.58243   -148898.74342  23041982.811    23041980.229
        49.000          43.000
  21939263.648     -975020.19043   -750296.41542  21939265.096    21939263.325
        52.000          45.000
 03  6 26 15 53  0.0000000  0 11G23G21G18G17G 6G16G15G30G10G29G26
  23865158.039    -1713154.05743  -1320648.53542  23865159.915    23865159.070
        46.000          40.000
  21079223.077     -694343.39843   -534493.75542  21079224.085    21079219.913
        56.000          49.000
  21823883.812    -1508466.98743  -1165914.40542  21823884.999    21823881.633
        55.000          48.000
  21133917.129     -216711.83843   -166017.75042  21133917.458    21133915.316
        56.000          49.000
  20558939.519      -59043.32644    -45100.16642  20558941.216    20558937.847
        57.000          51.000
  23726483.092     -956296.61043   -738318.04542  23726482.674    23726480.811
        47.000          41.000
  23260316.807    -1445445.70943  -1115409.08242  23260317.440    23260316.644
        49.000          42.000
  24520828.315     1353727.91843   1039238.13942  24520829.995    24520829.547
        46.000          39.000
  24407109.913     1382564.27843   1064930.21742  24407111.445    24407110.452
        45.000          40.000
  23040803.803     -201231.00743   -153722.45342  23040804.626    23040802.538
        50.000          43.000
  21931811.527    -1014182.05043   -780812.14042  21931812.919    21931810.714
        52.000          45.000
 03  6 26 15 53 20.0000000  0 11G23G21G18G17G 6G16G15G30G10G29G26
  23850883.593    -1788167.82843  -1379100.79742  23850885.147    23850883.437
        46.000          40.000
  21073886.565     -722386.37643   -556345.43642  21073887.864    21073883.574
        56.000          49.000
  21812234.816    -1569682.32043  -1213614.65742  21812236.475    21812232.573
        55.000          48.000
  21132277.106     -225330.17043   -172733.34742  21132277.617    21132275.313
        55.000          49.000
  20558870.558      -59405.65444    -45382.51542  20558872.391    20558868.957
        57.000          51.000
  23719452.541     -993236.41743   -767102.30942  23719456.210    23719451.137
        47.000          41.000
  23249027.828    -1504770.19443  -1161635.95342  23249027.471    23249026.846
        48.000          42.000
  24531122.866     1407822.80243   1081389.91342  24531124.507    24531123.011
        46.000          39.000
  24417773.100     1438598.35543   1108593.07942  24417773.531    24417774.285
        45.000          39.000
  23039666.219     -207204.92643   -158377.45442  23039668.962    23039665.478
        49.000          43.000
  21924403.468    -1053111.95843   -811147.11842  21924405.335    21924402.340
        52.000          45.000
 03  6 26 15 53 40.0000000  0 11G23G21G18G17G 6G16G15G30G10G29G26
  23836622.044    -1863111.81543  -1437498.68042  23836623.058    23836622.088
        46.000          40.000
  21068558.394     -750387.31643   -578164.35842  21068559.270    21068554.868
        56.000          49.000
  21800610.769    -1630768.26143  -1261214.08542  21800611.809    21800607.831
        55.000          48.000
  21130643.714     -233914.38443   -179422.36542  21130644.417    21130641.742
        56.000          49.000
  20558835.498      -59590.72444    -45526.74042  20558836.849    20558833.441
        57.000          51.000
  23712460.961    -1029981.44243   -795734.79842  23712461.590    23712460.448
        47.000          41.000
  23237739.000    -1564093.47543  -1207861.87442  23237739.715    23237737.790
        49.000          42.000
  24541404.737     1461854.84343   1123492.73142  24541406.736    24541404.206
        46.000          39.000
  24428432.738     1494616.74643   1152243.72242  24428434.038    24428433.788
        45.000          39.000
  23038568.271     -212976.14843   -162874.52542  23038570.479    23038567.141
        49.000          43.000
  21917036.821    -1091822.82443   -841311.41242  21917038.420    21917036.112
        52.000          45.000
 03  6 26 15 54  0.0000000  0 11G23G21G18G17G 6G16G15G30G10G29G26
  23822377.180    -1937970.42043  -1495830.03542  23822378.195    23822377.486
        46.000          40.000
  21063240.870     -778331.35543   -599938.94242  21063242.011    21063237.543
        56.000          50.000
  21789013.744    -1691709.40243  -1308700.68742  21789015.601    21789010.981
        55.000          48.000
  21129019.503     -242449.37443   -186073.02042  21129019.830    21129017.201
        56.000          49.000
  20558837.058      -59583.29544    -45520.97142  20558838.393    20558834.867
        57.000          51.000
  23705508.670    -1066516.32343   -824203.53942  23705508.655    23705507.109
        48.000          41.000
  23226453.032    -1623400.25743  -1254074.94642  23226453.652    23226451.515
        48.000          42.000
  24551677.992     1515838.57543   1165557.90642  24551680.043    24551679.379
        46.000          38.000
  24439092.899     1550633.83343   1195893.34642  24439094.079    24439095.101
        45.000          39.000
  23037511.571     -218529.42143   -167201.75642  23037514.091    23037510.895
        49.000          43.000
  21909715.089    -1130298.78943   -871292.66942  21909717.000    21909715.083
        52.000          45.000
 03  6 26 15 54 20.0000000  0 11G23G21G18G17G 6G16G15G30G10G29G26
  23808148.794    -2012739.23743  -1554091.41942  23808149.113    23808149.399
        46.000          40.000
  21057934.866     -806214.41443   -621666.01042  21057935.938    21057931.292
        56.000          49.000
  21777445.495    -1752501.22343  -1356070.93342  21777447.044    21777443.313
        55.000          48.000
  21127405.539     -250931.08343   -192682.16342  21127405.859    21127403.512
        56.000          49.000
  20558875.780      -59379.30644    -45362.03242  20558876.945    20558873.988
        57.000          51.000
  23698597.105    -1102836.73943   -852505.16142  23698599.241    23698596.226
        48.000          41.000
  23215171.523    -1682686.43143  -1300271.97142  23215171.944    23215172.928
        49.000          42.000
  24561942.057     1569777.25943   1207587.97642  24561943.269    24561942.571
        45.000          38.000
  24449752.980     1606652.99943   1239544.60442  24449753.723    24449754.341
        45.000          39.000
  23036497.075     -223860.53143   -171355.87942  23036499.158    23036496.071
        49.000          43.000
  21902438.931    -1168535.25343   -901087.30742  21902440.995    21902437.564
        52.000          45.000
 03  6 26 15 54 40.0000000  0 11G23G21G18G17G 6G16G15G30G10G29G26
  23793933.753    -2087438.53643  -1612298.63542  23793935.760    23793934.203
        46.000          40.000
  21052636.425     -834057.11643   -643361.62942  21052637.677    21052633.195
        56.000          49.000
  21765901.827    -1813164.16543  -1403340.75442  21765903.074    21765899.513
        55.000          48.000
  21125797.569     -259380.44743   -199266.09542  21125798.201    21125795.583
        56.000          49.000
  20558948.125      -58999.34544    -45065.97642  20558949.416    20558946.032
        57.000          51.000
  23691721.754    -1138963.16943   -880655.63242  23691724.306    23691721.678
        47.000          41.000
  23203889.364    -1741972.62343  -1346468.99242  23203889.480    23203888.512
        48.000          42.000
  24572192.742     1623649.29543   1249566.10342  24572192.258    24572192.382
        43.000          38.000
  24460409.242     1662652.72543   1283180.70642  24460410.455    24460409.842
        45.000          39.000
  23035521.046     -228990.46143   -175353.23542  23035521.979    23035520.456
        49.000          43.000
  21895204.929    -1206552.24843   -930710.93142  21895206.745    21895204.425
        52.000          45.000
 03  6 26 15 55  0.0000000  0 11G23G21G18G17G 6G16G15G30G10G29G26
  23779732.113    -2162068.18843  -1670451.56742  23779733.118    23779732.200
        46.000          40.000
  21047345.941     -861859.79343   -665026.06442  21047347.242    21047342.332
        56.000          49.000
  21754382.710    -1873698.29843  -1450510.20442  21754384.006    21754379.797
        55.000          48.000
  21124195.939     -267797.73143   -205825.03442  21124196.468    21124194.050
        56.000          49.000
  20559053.892      -58443.63144    -44632.96842  20559055.414    20559051.885
        57.000          51.000
  23684885.339    -1174895.94543   -908655.19642  23684885.739    23684881.066
        48.000          41.000
  23192607.857    -1801259.23243  -1392666.35642  23192608.429    23192606.201
        48.000          42.000
  24582430.626     1677453.63843   1291491.49142  24582431.904    24582431.907
        44.000          38.000
  24471062.115     1718632.27243   1326801.07342  24471061.841    24471062.937
        45.000          39.000
  23034582.825     -233919.40043   -179193.98342  23034585.130    23034581.860
        49.000          43.000
  21888012.196    -1244349.47043   -960163.30642  21888013.935    21888011.028
        52.000          45.000
 03  6 26 15 55 20.0000000  0 11G23G21G18G17G 6G16G15G30G10G29G26
  23765540.562    -2236643.41743  -1728562.10242  23765541.271    23765542.206
        45.000          40.000
  21042059.821     -889638.30443   -686671.66442  21042060.850    21042056.554
        56.000          49.000
  21742884.805    -1934119.01043  -1497591.27742  21742886.209    21742882.743
        55.000          48.000
  21122597.109     -276198.94743   -212371.45042  21122597.867    21122595.284
        56.000          49.000
  20559190.045      -57727.84244    -44075.23242  20559191.386    20559188.224
        57.000          51.000
  23678080.831    -1210650.54643   -936515.92742  23678082.281    23678079.341
        48.000          41.000
  23181322.376    -1860562.06543  -1438876.35342  23181322.367    23181323.451
        49.000          42.000
  24592653.421     1731173.74843   1333351.23342  24592656.794    24592654.570
        45.000          38.000
  24481707.541     1774575.40843   1370393.06042  24481707.907    24481707.628
        45.000          39.000
  23033680.398     -238663.00043   -182890.31242  23033682.175    23033679.972
        49.000          43.000
  21880858.408    -1281942.11943   -989456.27542  21880859.887    21880857.775
        52.000          45.000
 03  6 26 15 55 40.0000000  0 11G23G21G18G17G 6G16G15G30G10G29G26
  23751361.817    -2311156.43443  -1786624.16342  23751363.363    23751362.227
        46.000          40.000
  21036779.750     -917385.04243   -708292.50642  21036780.727    21036776.374
        56.000          49.000
  21731410.218    -1994418.69843  -1544578.03942  21731411.362    21731407.820
        55.000          48.000
  21121003.052     -284576.40943   -218899.35442  21121003.576    21121001.268
        56.000          49.000
  20559358.165      -56844.58644    -43386.99642  20559359.633    20559356.164
        57.000          51.000
  23671312.467    -1246219.27743   -964231.82142  23671314.452    23671309.722
        48.000          41.000
  23170036.347    -1919873.72943  -1485093.23742  23170037.192    23170033.967
        48.000          42.000
  24602862.163     1784816.06443   1375150.35542  24602865.193    24602862.650
        45.000          38.000
  24492347.128     1830488.62343   1413961.74342  24492349.194    24492348.191
        44.000          39.000
  23032814.713     -243214.08743   -186436.62942  23032815.894    23032813.996
        49.000          43.000
  21873745.307    -1319322.09343  -1018583.51242  21873747.020    21873744.030
        52.000          45.000
 03  6 26 15 56  0.0000000  0 11G23G21G18G17G 6G16G15G30G10G29G26
  23737190.379    -2385627.73543  -1844653.71342  23737191.555    23737190.189
        46.000          40.000
  21031501.819     -945120.55343   -729904.60042  21031503.005    21031498.746
        56.000          49.000
  21719954.576    -2054617.99743  -1591486.58042  21719956.127    21719951.934
        55.000          48.000
  21119409.348     -292950.88843   -225424.93642  21119410.068    21119407.682
        56.000          49.000
  20559554.176      -55814.51844    -42584.36542  20559555.722    20559552.414
        57.000          51.000
  23664574.501    -1281622.81843   -991818.99342  23664576.657    23664573.704
        48.000          41.000
  23158743.892    -1979215.19543  -1531333.34142  23158744.477    23158741.508
        49.000          42.000
  24613050.647     1838359.21643   1416872.20842  24613052.352    24613051.233
        45.000          38.000
  24502977.618     1886350.46243   1457490.39942  24502978.610    24502978.097
        45.000          39.000
  23031981.158     -247593.55443   -189849.20742  23031982.767    23031979.477
        49.000          43.000
  21866668.903    -1356509.79343  -1047560.93542  21866670.269    21866668.632
        52.000          45.000
 03  6 26 15 56 20.0000000  0 11G23G21G18G17G 6G16G15G30G10G29G26
  23723027.797    -2460054.02143  -1902648.19342  23723027.439    23723028.580
        46.000          40.000
  21026226.724     -972842.52643   -751506.14742  21026227.492    21026223.142
        56.000          49.000
  21708518.883    -2114713.57743  -1638314.29842  21708520.149    21708516.292
        55.000          48.000
  21117816.958     -301319.83843   -231946.21042  21117817.910    21117815.077
        56.000          49.000
  20559778.667      -54634.72044    -41665.05742  20559780.145    20559776.818
        57.000          51.000
  23657870.315    -1316858.05643  -1019275.02042  23657871.558    23657868.576
        48.000          41.000
  23147446.458    -2038583.47643  -1577594.33342  23147448.108    23147445.396
        49.000          42.000
  24623221.131     1891805.03743   1458518.21542  24623225.771    24623223.823
        45.000          38.000
  24513598.825     1942163.01143   1500980.66442  24513599.410    24513598.729
        45.000          39.000
  23031180.748     -251798.66643   -193125.92142  23031182.689    23031180.388
        49.000          43.000
  21859629.512    -1393501.67643  -1076385.76542  21859631.664    21859628.931
        52.000          46.000
 03  6 26 15 56 40.0000000  0 11G23G21G18G17G 6G16G15G30G10G29G26
  23708872.723    -2534437.65443  -1960609.44142  23708873.942    23708872.939
        46.000          40.000
  21020953.396    -1000553.64243   -773099.23142  21020954.608    21020950.398
        56.000          49.000
  21697102.280    -2174707.96343  -1685063.16642  21697103.694    21697099.692
        55.000          48.000
  21116225.092     -309685.97043   -238465.28642  21116225.667    21116223.482
        56.000          49.000
  20560031.095      -53307.90944    -40631.19542  20560032.603    20560029.475
        57.000          51.000
  23651196.885    -1351927.66843  -1046602.00442  23651198.954    23651195.250
        48.000          41.000
  23136143.482    -2097981.40243  -1623878.43042  23136143.541    23136142.520
        48.000          42.000
  24633373.632     1945149.97643   1500085.62442  24633376.852    24633372.686
        45.000          38.000
  24524209.593     1997922.89143   1544429.88042  24524211.234    24524209.630
        45.000          39.000
  23030413.401     -255832.00943   -196268.80242  23030415.087    23030413.247
        49.000          43.000
  21852626.696    -1430299.95843  -1105059.73442  21852628.517    21852626.516
        52.000          46.000
 03  6 26 15 57  0.0000000  0 11G23G21G18G17G 6G16G15G30G10G29G26
  23694722.954    -2608797.03943  -2018551.79542  23694723.546    23694720.850
        46.000          40.000
  21015678.648    -1028272.85443   -794698.62642  21015679.615    21015675.075
        56.000          49.000
  21685701.496    -2234619.78643  -1731747.69842  21685702.834    21685699.165
        55.000          48.000
  21114629.834     -318068.28743   -244996.97042  21114630.297    21114627.904
        56.000          49.000
  20560308.032      -51852.99344    -39497.51342  20560309.431    20560306.350
        57.000          51.000
  23644550.986    -1386850.41743  -1073814.53042  23644551.603    23644548.925
        48.000          41.000
  23124831.111    -2157427.90243  -1670200.38342  23124833.320    23124829.369
        49.000          42.000
  24643501.317     1998374.42843   1541559.13142  24643504.254    24643503.986
        45.000          38.000
  24534806.316     2053610.60643   1587822.84942  24534807.686    24534805.507
        44.000          39.000
  23029675.052     -259712.75443   -199292.76042  23029676.431    23029674.927
        49.000          43.000
  21845657.948    -1466922.94343  -1133597.11542  21845659.735    21845656.965
        52.000          46.000
 03  6 26 15 57 20.0000000  0 11G23G21G18G17G 6G16G15G30G10G29G26
  23680576.317    -2683137.11243  -2076479.10342  23680577.575    23680576.819
        46.000          40.000
  21010401.252    -1056005.53843   -816308.51942  21010402.589    21010397.869
        56.000          49.000
  21674315.398    -2294454.04343  -1778371.79042  21674316.417    21674313.264
        55.000          48.000
  21113030.594     -326472.04443   -251545.36442  21113031.019    21113028.682
        56.000          49.000
  20560608.433      -50275.21944    -38268.10042  20560609.674    20560606.618
        57.000          51.000
  23637932.194    -1421631.47143  -1100916.65542  23637935.160    23637929.820
        48.000          41.000
  23113508.476    -2216928.32743  -1716564.35542  23113507.783    23113508.739
        48.000          42.000
  24653606.658     2051472.40143   1582934.08942  24653610.577    24653608.003
        47.000          38.000
  24545387.889     2109220.00343   1631154.78242  24545389.150    24545388.961
        44.000          38.000
  23028964.271     -263446.17943   -202201.94442  23028966.290    23028963.302
        49.000          43.000
  21838721.014    -1503375.40243  -1162001.62142  21838722.761    21838720.377
        52.000          46.000
 03  6 26 15 57 40.0000000  0 11G23G21G18G17G 6G16G15G30G10G29G26
  23666436.753    -2757441.84243  -2134378.87142  23666438.007    23666436.296
        47.000          41.000
  21005124.546    -1083735.89743   -837916.59542  21005125.232    21005120.896
        56.000          49.000
  21662947.129    -2354194.76943  -1824922.99842  21662948.183    21662944.611
        55.000          48.000
  21111430.141     -334881.51643   -258098.21242  21111430.859    21111428.732
        56.000          49.000
  20560935.077      -48558.87844    -36930.71042  20560936.558    20560933.289
        57.000          51.000
  23631344.777    -1456254.87543  -1127895.93942  23631345.797    23631343.201
        48.000          41.000
  23102178.392    -2276467.03643  -1762958.14342  23102179.969    23102176.083
        49.000          42.000
  24663689.232     2104458.66043   1624222.00942  24663691.605    24663689.835
        45.000          38.000
  24555959.045     2164766.01943   1674437.34042  24555960.103    24555957.699
        45.000          38.000
  23028285.194     -267016.71643   -204984.19142  23028285.298    23028284.255
        49.000          43.000
  21831819.875    -1539641.05443  -1190260.56042  21831821.713    21831819.168
        52.000          46.000
 03  6 26 15 58  0.0000000  0 11G23G21G18G17G 6G16G15G30G10G29G26
  23652306.697    -2831694.95943  -2192238.42242  23652308.208    23652306.432
        47.000          41.000
  20999850.945    -1111447.94243   -859510.40442  20999851.999    20999847.291
        56.000          49.000
  21651599.546    -2413826.04343  -1871388.92242  21651600.895    21651597.051
        55.000          48.000
  21109832.055     -343280.95343   -264643.24142  21109832.904    21109830.240
        56.000          49.000
  20561290.968      -46688.14644    -35473.01242  20561292.425    20561289.082
        57.000          51.000
  23624787.267    -1490704.71443  -1154739.97342  23624789.595    23624786.157
        48.000          41.000
  23090844.748    -2336028.11543  -1809369.36142  23090845.756    23090844.010
        49.000          42.000
  24673752.321     2157348.20543   1665434.55042  24673754.971    24673753.135
        45.000          38.000
  24566520.188     2220264.06243   1717682.52742  24566519.784    24566519.664
        46.000          38.000
  23027639.628     -270408.68143   -207627.29342  23027640.756    23027638.551
        50.000          43.000
  21824958.110    -1575703.51143  -1218361.17242  21824959.749    21824956.896
        53.000          46.000
 03  6 26 15 58 20.0000000  0 11G23G21G18G17G 6G16G15G30G10G29G26
  23638183.171    -2905915.48743  -2250072.57942  23638184.799    23638182.762
        47.000          41.000
  20994577.426    -1139161.00443   -881105.00742  20994578.565    20994573.983
        56.000          49.000
  21640269.424    -2473366.87543  -1917784.37342  21640270.516    21640267.292
        55.000          48.000
  21108231.991     -351689.86543   -271195.65442  21108232.632    21108230.092
        56.000          49.000
  20561672.792      -44682.34844    -33910.07342  20561674.322    20561670.995
        57.000          51.000
  23618262.512    -1525000.20043  -1181463.73642  23618263.726    23618261.347
        48.000          41.000
  23079502.361    -2395631.26843  -1855813.38942  23079503.620    23079501.350
        49.000          42.000
  24683795.901     2210120.79743   1706555.96042  24683797.777    24683797.194
        45.000          38.000
  24577067.922     2275694.12943   1760874.75942  24577067.544    24577067.640
        45.000          38.000
  23027024.222     -273641.43743   -210146.33042  23027026.855    23027023.238
        49.000          43.000
  21818130.074    -1611581.76343  -1246318.24142  21818132.022    21818130.080
        53.000          46.000
 03  6 26 15 58 40.0000000  0 11G23G21G18G17G 6G16G15G30G10G29G26
  23624065.122    -2980105.52143  -2307882.97842  23624065.132    23624065.808
        47.000          41.000
  20989303.032    -1166877.70843   -902702.44442  20989304.022    20989299.365
        56.000          49.000
  21628956.037    -2532819.34043  -1964110.96142  21628957.051    21628953.647
        55.000          48.000
  21106629.430     -360110.73743   -277757.38442  21106629.949    21106627.470
        56.000          49.000
  20562079.632      -42543.90944    -32243.77342  20562081.099    20562077.971
        57.000          51.000
  23611765.035    -1559143.58543  -1208068.96942  23611766.311    23611762.719
        47.000          41.000
  23068152.013    -2455278.79443  -1902291.96342  23068151.809    23068151.481
        49.000          42.000
  24693814.679     2262773.33143   1747583.83742  24693816.938    24693817.472
        45.000          38.000
  24587602.501     2331053.13343   1804011.60142  24587602.232    24587601.412
        44.000          38.000
  23026438.936     -276717.65243   -212543.39742  23026440.681    23026438.225
        49.000          43.000
  21811337.384    -1647277.50543  -1274133.09742  21811339.616    21811336.458
        53.000          46.000
 03  6 26 15 59  0.0000000  0 11G23G21G18G17G 6G16G15G30G10G29G26
  23609952.366    -3054267.69243  -2365671.66742  23609954.000    23609951.499
        47.000          41.000
  20984027.415    -1194601.21343   -924305.18042  20984028.632    20984024.215
        56.000          49.000
  21617658.777    -2592186.39543  -2010370.99842  21617660.265    21617656.022
        55.000          48.000
  21105024.209     -368546.61143   -284330.80942  21105024.513    21105022.410
        56.000          49.000
  20562511.222      -40275.90444    -30476.51342  20562512.729    20562509.450
        57.000          51.000
  23605296.669    -1593138.01143  -1234558.14242  23605296.353    23605294.831
        48.000          41.000
  23056792.658    -2514973.61543  -1948807.41342  23056792.733    23056791.240
        49.000          42.000
  24703811.097     2315301.87443   1788515.07742  24703812.254    24703811.040
        43.000          38.000
  24598122.602     2386337.28243   1847090.11242  24598124.600    24598122.517
        45.000          38.000
  23025882.996     -279640.32843   -214820.82642  23025885.340    23025881.211
        50.000          43.000
  21804578.914    -1682793.39743  -1301807.80642  21804580.781    21804577.959
        53.000          46.000
 03  6 26 15 59 20.0000000  0 11G23G21G18G17G 6G16G15G30G10G29G26
  23595846.674    -3128393.22843  -2423431.80442  23595848.671    23595846.315
        48.000          41.000
  20978752.289    -1222322.80343   -945906.42442  20978753.088    20978748.853
        56.000          49.000
  21606379.414    -2651459.40043  -2056557.75242  21606380.933    21606376.747
        55.000          48.000
  21103417.733     -376988.89543   -290909.22842  21103418.200    21103415.655
        55.000          49.000
  20562969.069      -37869.88144    -28601.71242  20562970.538    20562967.162
        57.000          51.000
  23598855.868    -1626974.80643  -1260924.47242  23598858.224    23598856.350
        47.000          41.000
  23045425.684    -2574707.42643  -1995353.23642  23045426.091    23045425.642
        49.000          42.000
  24713784.937     2367714.12043   1829355.70142  24713788.225    24713785.747
        45.000          38.000
  24608630.008     2441554.25743   1890116.27042  24608630.808    24608630.916
        45.000          38.000
  23025357.630     -282401.23143   -216972.18542  23025358.711    23025357.473
        49.000          43.000
  21797856.345    -1718120.47643  -1329335.40042  21797858.419    21797855.359
        53.000          46.000
 03  6 26 15 59 40.0000000  0 11G23G21G18G17G 6G16G15G30G10G29G26
  23581745.977    -3202493.54943  -2481172.29842  23581748.659    23581745.883
        47.000          41.000
  20973475.161    -1250054.43043   -967515.48842  20973476.041    20973471.859
        56.000          49.000
  21595115.935    -2710649.86943  -2102680.19042  21595117.469    21595113.335
        55.000          48.000
  21101807.876     -385449.49943   -297501.91942  21101808.487    21101806.391
        56.000          49.000
  20563450.897      -35337.71444    -26628.61442  20563452.289    20563449.177
        57.000          51.000
  23592446.406    -1660665.66343  -1287177.10842  23592447.882    23592443.937
        48.000          41.000
  23034049.164    -2634492.11843  -2041938.70142  23034049.785    23034047.578
        49.000          42.000
  24723733.689     2419997.32343   1870095.76542  24723737.929    24723734.919
        45.000          38.000
  24619122.015     2496691.56343   1933080.34042  24619124.358    24619121.630
        45.000          38.000
  23024860.774     -285012.29543   -219006.78842  23024862.913    23024860.402
        50.000          43.000
  21791167.779    -1753269.94643  -1356724.58942  21791169.315    21791167.279
        53.000          46.000
 03  6 26 16  0  0.0000000  0 11G23G21G18G17G 6G16G15G30G10G29G26
  23567646.915    -3276583.80043  -2538904.93342  23567648.907    23567647.192
        47.000          41.000
  20968193.172    -1277811.62043   -989144.47642  20968193.990    20968189.628
        56.000          49.000
  21583865.147    -2769773.00743  -2148750.16142  21583866.434    21583862.254
        55.000          48.000
  21100191.149     -393944.15243   -304121.13842  21100191.799    21100189.255
        56.000          49.000
  20563953.908      -32694.91544    -24569.30942  20563955.426    20563952.151
        57.000          51.000
  23586059.896    -1694225.95643  -1313327.98942  23586061.898    23586058.635
        48.000          41.000
  23022659.929    -2694343.24643  -2088575.95542  23022660.870    23022656.934
        49.000          42.000
  24733655.550     2472135.25643   1910722.63042  24733658.275    24733657.512
        45.000          38.000
  24629596.294     2551733.14043   1975969.82742  24629596.809    24629597.637
        45.000          39.000
  23024389.711     -287489.35643   -220936.98542  23024391.661    23024388.496
        49.000          44.000
  21784510.187    -1788257.04243  -1383987.25642  21784511.675    21784508.629
        53.000          46.000
 03  6 26 16  0 20.0000000  0 11G23G21G18G17G 6G16G15G30G10G29G26
  23553552.990    -3350648.17443  -2596617.40842  23553553.313    23553553.095
        46.000          41.000
  20962909.013    -1305578.99043  -1010781.39742  20962910.126    20962905.754
        56.000          49.000
  21572630.456    -2828813.10443  -2194755.42742  21572631.532    21572627.590
        55.000          48.000
  21098571.383     -402457.33243   -310754.79742  21098571.845    21098569.305
        56.000          49.000
  20564480.795      -29925.99444    -22411.72842  20564482.420    20564479.127
        57.000          51.000
  23579700.812    -1727640.23443  -1339365.10442  23579702.210    23579698.468
        47.000          41.000
  23011260.065    -2754245.53143  -2135253.05042  23011261.186    23011259.244
        48.000          42.000
  24743553.362     2524142.51343   1951247.68042  24743555.779    24743553.961
        45.000          38.000
  24640055.271     2606693.70743   2018796.18442  24640054.740    24640055.141
        45.000          39.000
  23023946.881     -289816.84943   -222750.62442  23023949.386    23023946.247
        50.000          43.000
  21777885.942    -1823065.52043  -1411110.74542  21777888.198    21777885.917
        52.000          46.000
 03  6 26 16  0 40.0000000  0 11G23G21G18G17G 6G16G15G30G10G29G26
  23539465.747    -3424677.37243  -2654302.47542  23539466.369    23539464.959
        47.000          41.000
  20957624.888    -1333347.73643  -1032419.38542  20957625.969    20957621.798
        56.000          49.000
  21561412.712    -2887761.47843  -2240689.22142  21561413.965    21561410.664
        55.000          48.000
  21096949.431     -410980.39843   -317396.16042  21096949.961    21096947.423
        56.000          49.000
  20565033.431      -27022.15044    -20149.01442  20565035.003    20565031.637
        57.000          51.000
  23573372.882    -1760899.63243  -1365281.53242  23573374.027    23573370.163
        48.000          41.000
  22999853.525    -2814190.11143  -2181963.10942  22999855.399    22999852.827
        49.000          42.000
  24753425.235     2576027.19343   1991677.20642  24753425.934    24753426.484
        43.000          38.000
  24650500.350     2661581.41943   2061565.78942  24650500.467    24650500.521
        45.000          38.000
  23023533.578     -291985.98443   -224440.87442  23023534.068    23023533.286
        49.000          43.000
  21771298.219    -1857686.11443  -1438087.83142  21771299.881    21771297.115
        53.000          46.000
 03  6 26 16  1  0.0000000  0 11G23G21G18G17G 6G16G15G30G10G29G26
  23525385.616    -3498670.04043  -2711959.07442  23525385.584    23525385.036
        47.000          41.000
  20952340.582    -1361117.11843  -1054057.87342  20952341.651    20952336.967
        56.000          49.000
  21550212.846    -2946616.60443  -2286550.35242  21550214.396    21550210.578
        55.000          48.000
  21095326.082     -419511.96743   -324044.14542  21095326.504    21095324.190
        56.000          49.000
  20565611.983      -23982.36044    -17780.36642  20565613.493    20565610.219
        57.000          51.000
  23567072.579    -1794002.94043  -1391076.32042  23567073.844    23567070.992
        48.000          41.000
  22988438.698    -2874175.97743  -2228705.33942  22988439.479    22988436.340
        49.000          42.000
  24763273.858     2627789.42143   2032011.32742  24763275.379    24763275.725
        44.000          37.000
  24660930.127     2716396.68643   2104278.93342  24660930.884    24660931.889
        44.000          38.000
  23023151.022     -293996.13443   -226007.23542  23023152.832    23023151.097
        49.000          43.000
  21764745.942    -1892117.41843  -1464917.41042  21764747.463    21764745.132
        53.000          46.000
 03  6 26 16  1 20.0000000  0 11G23G21G18G17G 6G16G15G30G10G29G26
  23511311.213    -3572631.57643  -2769591.42142  23511312.653    23511311.814
        47.000          41.000
  20947055.057    -1388892.41943  -1075700.97442  20947056.122    20947051.573
        56.000          49.000
  21539029.913    -3005383.93843  -2332343.07342  21539031.218    21539027.242
        55.000          48.000
  21093699.682     -428058.25543   -330703.60342  21093700.213    21093697.873
        56.000          49.000
  20566215.101      -20812.34444    -15310.24942  20566216.681    20566213.259
        57.000          51.000
  23560802.477    -1826955.66643  -1416753.78542  23560804.138    23560800.413
        48.000          41.000
  22977014.619    -2934208.75543  -2275484.13042  22977017.310    22977012.614
        49.000          42.000
  24773100.668     2679422.76443   2072244.99542  24773100.969    24773100.608
        43.000          37.000
  24671346.371     2771133.05543   2146930.60142  24671348.015    24671346.613
        45.000          38.000
  23022797.488     -295853.07243   -227454.21342  23022798.949    23022798.175
        49.000          43.000
  21758228.797    -1926364.75143  -1491603.64542  21758230.958    21758228.247
        52.000          46.000
 03  6 26 16  1 40.0000000  0 11G23G21G18G17G 6G16G15G30G10G29G26
  23497245.116    -3646550.49243  -2827190.54342  23497245.865    23497244.739
        47.000          41.000
  20941770.529    -1416662.43143  -1097339.94942  20941771.688    20941767.380
        56.000          49.000
  21527865.775    -3064052.10943  -2378058.52442  21527866.780    21527863.235
        55.000          48.000
  21092072.650     -436608.14343   -337365.86542  21092073.071    21092070.684
        56.000          49.000
  20566845.357      -17500.92244    -12729.93742  20566846.563    20566843.561
        57.000          51.000
  23554562.041    -1859746.58443  -1442305.15942  23554564.765    23554560.903
        48.000          41.000
  22965584.001    -2994277.30943  -2322290.79342  22965584.745    22965582.041
        49.000          42.000
  24782904.321     2730937.60643   2112386.33042  24782908.520    24782905.041
        45.000          37.000
  24681749.923     2825801.11243   2189529.03842  24681750.839    24681750.835
        45.000          38.000
  23022476.170     -297545.75443   -228773.20442  23022477.724    23022474.559
        49.000          43.000
  21751748.931    -1960416.24843  -1518137.27742  21751750.670    21751748.715
        53.000          46.000
 03  6 26 16  2  0.0000000  0 11G23G21G18G17G 6G16G15G30G10G29G26
  23483185.932    -3720431.37143  -2884760.03842  23483186.544    23483184.878
        48.000          41.000
  20936486.107    -1444432.31143  -1118978.82242  20936486.922    20936483.008
        56.000          49.000
  21516719.497    -3122625.83043  -2423700.37842  21516720.742    21516716.848
        56.000          48.000
  21090444.156     -445166.55843   -344034.77142  21090444.742    21090442.074
        56.000          49.000
  20567501.523      -14053.09544    -10043.33742  20567502.929    20567499.537
        57.000          51.000
  23548352.390    -1892380.54643  -1467734.23842  23548354.639    23548349.234
        48.000          41.000
  22954145.550    -3054386.74443  -2369129.32042  22954146.289    22954146.553
        49.000          42.000
  24792682.920     2782328.10243   2152430.79242  24792686.787    24792685.433
        44.000          37.000
  24692139.016     2880395.23543   2232069.86642  24692140.203    24692138.477
        45.000          38.000
  23022184.057     -299079.30943   -229968.20142  23022185.363    23022181.811
        49.000          43.000
  21745305.590    -1994276.51543  -1544521.89742  21745307.072    21745305.044
        53.000          46.000
 03  6 26 16  2 20.0000000  0 11G23G21G18G17G 6G16G15G30G10G29G26
  23469133.254    -3794278.24743  -2942303.02942  23469135.138    23469132.229
        48.000          41.000
  20931201.108    -1472206.08243  -1140620.72942  20931201.940    20931197.657
        56.000          49.000
  21505590.607    -3181109.34543  -2469271.94342  21505592.074    21505587.628
        55.000          48.000
  21088813.084     -453737.41843   -350713.37342  21088813.459    21088811.246
        55.000          49.000
  20568182.764      -10473.23444     -7253.85642  20568184.381    20568181.085
        57.000          51.000
  23542170.641    -1924861.92343  -1493044.41842  23542172.728    23542167.520
        47.000          41.000
  22942698.578    -3114541.41343  -2416003.09142  22942699.232    22942697.824
        49.000          42.000
  24802439.683     2833589.14343   2192374.36242  24802442.601    24802440.601
        45.000          37.000
  24702513.164     2934910.60143   2274549.31942  24702514.586    24702512.932
        45.000          39.000
  23021921.798     -300458.21743   -231042.68842  23021922.668    23021920.090
        49.000          43.000
  21738897.823    -2027949.48243  -1570760.57642  21738899.531    21738897.101
        52.000          46.000
 03  6 26 16  2 40.0000000  0 11G23G21G18G17G 6G16G15G30G10G29G26
  23455092.107    -3868063.26743  -2999797.82342  23455093.180    23455092.169
        48.000          41.000
  20925920.385    -1499956.95943  -1162244.79742  20925921.315    20925916.800
        56.000          49.000
  21494483.820    -3239474.99043  -2514751.66142  21494485.079    21494480.740
        56.000          48.000
  21087184.760     -462293.78843   -357380.68242  21087185.698    21087182.972
        55.000          49.000
  20568894.446       -6734.04344     -4340.22042  20568896.042    20568892.395
        57.000          51.000
  23536024.307    -1957163.07643  -1518214.16142  23536026.175    23536022.062
        47.000          41.000
  22931248.196    -3174714.02243  -2462890.83642  22931247.983    22931247.991
        49.000          43.000
  24812174.293     2884747.42643   2232237.85842  24812180.203    24812176.144
        46.000          37.000
  24712877.082     2989373.72043   2316988.06442  24712877.583    24712876.919
        45.000          39.000
  23021693.783     -301655.35843   -231975.54142  23021696.699    23021692.679
        50.000          43.000
  21732531.112    -2061407.30143  -1596831.60742  21732532.730    21732530.092
        52.000          46.000
 03  6 26 16  3  0.0000000  0 11G23G21G18G17G 6G16G15G30G10G29G26
  23441063.355    -3941784.83143  -3057243.17942  23441064.380    23441063.649
        48.000          41.000
  20920644.030    -1527683.44243  -1183849.85142  20920644.938    20920641.078
        56.000          49.000
  21483399.982    -3297721.22943  -2560138.34042  21483401.178    21483397.313
        55.000          48.000
  21085559.525     -470835.02643   -364036.20442  21085560.056    21085557.780
        55.000          49.000
  20569636.479       -2834.26844     -1301.45842  20569637.810    20569634.495
        57.000          51.000
  23529912.452    -1989282.66143  -1543242.42442  23529914.372    23529909.209
        47.000          41.000
  22919794.523    -3234903.28743  -2509791.57142  22919794.790    22919794.096
        49.000          43.000
  24821889.381     2935803.32543   2272021.59142  24821892.381    24821890.630
        44.000          37.000
  24723231.354     3043785.28643   2359386.61942  24723232.186    24723231.377
        44.000          38.000
  23021500.921     -302669.42943   -232765.73742  23021501.904    23021499.806
        50.000          43.000
  21726205.809    -2094648.06243  -1622733.50042  21726207.346    21726205.092
        52.000          46.000
 03  6 26 16  3 20.0000000  0 11G23G21G18G17G 6G16G15G30G10G29G26
  23427051.573    -4015419.09343  -3114620.49942  23427051.530    23427052.077
        48.000          41.000
  20915377.100    -1555362.06943  -1205417.61642  20915378.079    20915373.961
        56.000          49.000
  21472343.247    -3355824.34743  -2605413.49142  21472344.755    21472340.817
        55.000          48.000
  21083941.573     -479336.57443   -370660.79842  21083942.374    21083940.123
        55.000          49.000
  20570413.517        1249.52444      1880.69742  20570415.062    20570411.722
        57.000          51.000
  23523839.803    -2021197.34543  -1568111.02842  23523839.842    23523838.042
        48.000          41.000
  22908341.908    -3295085.68843  -2556686.93942  22908343.927    22908340.969
        49.000          43.000
  24831591.250     2986779.72643   2311743.36842  24831593.332    24831593.151
        46.000          37.000
  24733579.690     3098168.22843   2401762.89342  24733580.736    24733580.591
        44.000          37.000
  23021347.217     -303477.21743   -233395.20242  23021348.198    23021346.465
        49.000          43.000
  21719926.129    -2127647.92643  -1648447.68042  21719928.055    21719924.969
        52.000          46.000
 03  6 26 16  3 40.0000000  0 11G23G21G18G17G 6G16G15G30G10G29G26
  23413053.564    -4088976.71843  -3171938.11742  23413053.739    23413052.818
        48.000          41.000
  20910117.066    -1583003.66843  -1226956.53342  20910117.991    20910113.967
        56.000          50.000
  21461311.868    -3413795.11643  -2650585.51242  21461313.008    21461309.246
        55.000          48.000
  21082329.320     -487809.62143   -377263.17842  21082330.119    21082327.754
        55.000          49.000
  20571223.672        5506.35444      5197.68342  20571225.306    20571221.706
        57.000          51.000
  23517802.385    -2052918.04143  -1592828.47242  23517804.865    23517801.880
        47.000          41.000
  22896888.569    -3355272.22143  -2603585.53542  22896889.777    22896887.010
        49.000          42.000
  24841273.390     3037664.65443   2351393.85942  24841275.299    24841277.474
        44.000          37.000
  24743921.538     3152510.86343   2444107.76042  24743920.394    24743919.010
        43.000          37.000
  23021230.816     -304089.85743   -233872.59942  23021232.891    23021229.555
        49.000          43.000
  21713690.226    -2160417.31343  -1673982.27042  21713692.091    21713689.530
        52.000          46.000
 03  6 26 16  4  0.0000000  0 11G23G21G18G17G 6G16G15G30G10G29G26
  23399075.195    -4162432.80143  -3229176.58942  23399076.269    23399076.017
        47.000          41.000
  20904868.752    -1610583.59343  -1248447.38742  20904869.954    20904865.586
        56.000          50.000
  21450310.314    -3471608.68243  -2695635.04342  21450311.386    21450307.833
        55.000          48.000
  21080727.197     -496229.28243   -383823.96342  21080727.830    21080725.532
        55.000          49.000
  20572071.323        9960.65944      8668.55142  20572072.706    20572069.664
        57.000          51.000
  23511808.240    -2084420.07343  -1617375.52842  23511809.764    23511806.994
        47.000          41.000
  22885439.673    -3415438.48143  -2650468.33342  22885439.829    22885438.719
        49.000          43.000
  24850942.893     3088481.94043   2390991.63942  24850944.623    24850943.108
        43.000          37.000
  24754258.966     3206837.07743   2486439.85142  24754259.327    24754259.132
        43.000          37.000
  23021156.252     -304483.03643   -234178.98842  23021157.393    23021154.507
        50.000          43.000
  21707503.000    -2192931.45243  -1699317.96142  21707504.347    21707502.589
        52.000          46.000
 03  6 26 16  4 20.0000000  0 11G23G21G18G17G 6G16G15G30G10G29G26
  23385117.215    -4235784.33243  -3286333.60542  23385120.787    23385116.737
        48.000          41.000
  20899632.734    -1638099.21443  -1269888.13742  20899633.661    20899629.588
        56.000          50.000
  21439339.131    -3529262.27843  -2740559.91842  21439340.764    21439336.592
        55.000          48.000
  21079135.631     -504593.21543   -390341.32942  21079136.063    21079133.995
        55.000          49.000
  20572957.089       14615.13844     12295.39642  20572958.553    20572955.117
        57.000          50.000
  23505856.369    -2115700.55943  -1641749.94742  23505856.615    23505853.401
        48.000          41.000
  22873994.368    -3475581.70143  -2697333.17742  22873994.926    22873994.369
        49.000          43.000
  24860603.180     3139233.65443   2430538.34542  24860606.175    24860603.639
        46.000          37.000
  24764594.247     3261148.97643   2528760.76342  24764592.967    24764593.594
        43.000          37.000
  23021122.547     -304654.13243   -234312.33042  23021124.998    23021121.450
        50.000          43.000
  21701364.817    -2225187.00243  -1724452.16042  21701366.767    21701364.100
        52.000          46.000
 03  6 26 16  4 40.0000000  0 11G23G21G18G17G 6G16G15G30G10G29G26
  23371182.783    -4309009.10343  -3343391.85242  23371184.065    23371182.352
        48.000          41.000
  20894413.039    -1665528.80443  -1291261.85142  20894414.330    20894409.510
        56.000          50.000
  21428402.699    -3586733.99943  -2785343.07142  21428403.772    21428399.960
        56.000          48.000
  21077558.772     -512879.97243   -396798.55842  21077559.518    21077556.901
        55.000          49.000
  20573885.031       19491.60044     16095.21442  20573886.724    20573883.102
        57.000          51.000
  23499949.457    -2146737.67043  -1665934.73142  23499951.064    23499946.661
        48.000          41.000
  22862558.459    -3535680.01943  -2744163.02642  22862559.430    22862557.987
        49.000          43.000
  24870251.104     3189940.53843   2470050.09742  24870255.330    24870251.635
        45.000          37.000
  24774930.425     3315467.79843   2571087.05542  24774931.309    24774932.265
        44.000          38.000
  23021137.295     -304581.61143   -234255.84742  23021138.286    23021136.169
        49.000          43.000
  21695280.279    -2257161.82843  -1749367.60742  21695282.496    21695279.392
        52.000          46.000
 03  6 26 16  5  0.0000000  0 11G23G21G18G17G 6G16G15G30G10G29G26
  23357276.196    -4382090.31943  -3400338.22942  23357277.919    23357277.235
        48.000          41.000
  20889213.018    -1692855.87843  -1312555.68242  20889214.150    20889209.687
        56.000          50.000
  21417503.916    -3644007.05043  -2829971.42142  21417505.806    21417501.094
        55.000          48.000
  21075999.550     -521073.00643   -403182.75542  21076000.204    21075997.882
        55.000          49.000
  20574858.319       24606.37444     20080.72942  20574859.882    20574856.310
        57.000          50.000
  23494093.246    -2177515.04643  -1689917.12442  23494093.022    23494091.463
        48.000          41.000
  22851133.875    -3595717.01243  -2790945.09342  22851135.243    22851131.874
        49.000          43.000
  24879895.567     3240618.49143   2509539.31742  24879897.180    24879897.493
        44.000          37.000
  24785271.649     3369809.35543   2613431.06242  24785272.999    24785271.480
        44.000          38.000
  23021200.344     -304249.13743   -233996.79042  23021201.940    23021199.004
        49.000          43.000
  21689252.254    -2288838.99143  -1774051.10442  21689254.413    21689251.797
        52.000          46.000
 03  6 26 16  5 20.0000000  0 11G23G21G18G17G 6G16G15G30G10G29G26
  23343399.666    -4455011.58543  -3457159.97242  23343399.855    23343399.253
        48.000          41.000
  20884035.196    -1720064.44943  -1333757.17242  20884036.411    20884031.807
        56.000          50.000
  21406646.069    -3701065.39143  -2874432.46342  21406647.523    21406643.511
        55.000          48.000
  21074461.388     -529156.15943   -409481.33042  21074462.090    21074459.775
        55.000          49.000
  20575880.053       29975.39244     24264.35842  20575881.693    20575878.389
        57.000          51.000
  23488288.219    -2208016.73143  -1713684.68142  23488290.135    23488287.904
        47.000          41.000
  22839724.056    -3655676.74643  -2837666.95642  22839725.424    22839722.632
        50.000          43.000
  24889537.081     3291282.80243   2549017.88542  24889542.828    24889538.243
        47.000          37.000
  24795619.942     3424188.99343   2655804.73742  24795620.226    24795618.753
        44.000          38.000
  23021315.894     -303640.82243   -233522.79942  23021318.822    23021316.565
        49.000          43.000
  21683284.191    -2320202.00343  -1798489.81842  21683285.821    21683283.747
        52.000          46.000
 03  6 26 16  5 40.0000000  0 10G23G21G18G17G 6G16G15G10G29G26
  23329554.900    -4527764.77043  -3513850.74442  23329556.641    23329555.987
        48.000          41.000
  20878881.772    -1747146.66043  -1354860.20442  20878882.701    20878878.437
        56.000          50.000
  21395830.846    -3757900.83343  -2918719.82142  21395832.000    21395828.048
        56.000          48.000
  21072945.636     -537121.62243   -415688.19642  21072946.530    21072943.579
        55.000          49.000
  20576951.557       35606.41044     28652.14242  20576953.112    20576949.930
        57.000          51.000
  23482538.354    -2238234.71343  -1737231.17942  23482539.191    23482536.202
        47.000          41.000
  22828330.211    -3715551.43143  -2884322.56842  22828330.705    22828329.551
        49.000          43.000
  24805976.408     3478614.00843   2698213.79542  24805976.012    24805977.260
        43.000          37.000
  23021485.639     -302749.20543   -232828.05142  23021487.497    23021484.755
        49.000          43.000
  21677377.103    -2351242.75243  -1822677.42542  21677379.336    21677376.272
        52.000          46.000
 03  6 26 16  6  0.0000000  0 10G23G21G18G17G 6G16G15G10G29G26
  23315747.125    -4600326.64343  -3570392.44542  23315748.470    23315747.514
        48.000          41.000
  20873756.429    -1774079.51043  -1375846.84342  20873757.633    20873753.408
        56.000          50.000
  21385062.097    -3814490.34643  -2962815.54242  21385063.302    21385059.704
        56.000          48.000
  21071456.614     -544946.59343   -421785.59142  21071457.271    21071455.191
        55.000          49.000
  20578077.365       41522.36644     33261.95542  20578078.769    20578075.652
        57.000          50.000
  23476846.309    -2268145.99643  -1760538.68542  23476847.585    23476843.993
        47.000          41.000
  22816957.013    -3775318.14243  -2930894.01842  22816958.046    22816955.479
        49.000          43.000
  24816345.559     3533106.52843   2740675.42142  24816346.826    24816346.618
        43.000          37.000
  23021713.818     -301551.49343   -231894.77942  23021715.420    23021712.926
        50.000          43.000
  21671536.332    -2381937.87443  -1846595.70542  21671538.575    21671535.031
        52.000          46.000
 03  6 26 16  6 20.0000000  0  9G23G21G18G17G 6G16G15G29G26
  23301974.644    -4672699.67143  -3626786.99942  23301974.564    23301974.507
        48.000          41.000
  20868659.272    -1800865.75743  -1396719.25642  20868660.320    20868656.014
        56.000          50.000
  21374339.756    -3870836.61543  -3006721.72042  21374341.112    21374336.969
        56.000          49.000
  21069993.719     -552633.86043   -427775.68642  21069994.679    21069992.228
        55.000          49.000
  20579256.897       47720.32244     38091.51142  20579258.316    20579255.219
        57.000          51.000
  23471212.578    -2297753.24943  -1783609.28742  23471214.232    23471211.260
        47.000          41.000
  22805603.973    -3834979.73843  -2977383.57542  22805605.098    22805603.528
        49.000          43.000
  23021999.468     -300050.73043   -230725.37942  23022000.853    23021998.498
        49.000          43.000
  21665760.580    -2412289.59143  -1870246.39142  21665762.356    21665759.684
        52.000          46.000
 03  6 26 16  6 40.0000000  0  9G23G21G18G17G 6G16G15G29G26
  23288244.849    -4744851.01843  -3683008.80642  23288246.431    23288246.232
        48.000          41.000
  20863596.309    -1827473.02043  -1417452.19642  20863597.110    20863592.845
        56.000          49.000
  21363669.942    -3926907.07043  -3050412.98042  21363671.464    21363666.972
        56.000          49.000
  21068563.552     -560150.86443   -433633.09942  21068564.080    21068561.633
        55.000          49.000
  20580496.028       54232.63144     43166.01542  20580497.583    20580494.395
        57.000          50.000
  23465642.931    -2327024.21943  -1806417.85542  23465643.792    23465641.341
        48.000          41.000
  22794276.324    -3894503.97443  -3023766.08142  22794276.797    22794275.791
        50.000          43.000
  23022349.275     -298214.65643   -229294.67942  23022349.958    23022348.098
        50.000          43.000
  21660056.179    -2442265.28443  -1893604.07742  21660058.225    21660055.822
        53.000          46.000
 03  6 26 16  7  0.0000000  0  9G23G21G18G17G 6G16G15G29G26
  23274560.959    -4816760.18943  -3739041.90642  23274562.235    23274559.978
        48.000          41.000
  20858570.878    -1853881.17443  -1438029.98542  20858571.986    20858567.289
        56.000          50.000
  21353056.455    -3982681.26743  -3093873.39042  21353057.691    21353053.520
        56.000          49.000
  21067169.280     -567477.74043   -439342.36742  21067169.824    21067167.364
        55.000          49.000
  20581798.995       61079.40744     48501.14442  20581800.492    20581797.246
        57.000          50.000
  23460140.781    -2355938.63543  -1828948.58842  23460141.838    23460139.548
        48.000          41.000
  22782979.562    -3953870.44743  -3070025.67542  22782979.570    22782978.621
        49.000          43.000
  23022766.100     -296023.37743   -227587.20742  23022767.378    23022765.092
        50.000          43.000
  21654427.692    -2471844.28143  -1916652.64742  21654428.593    21654427.013
        53.000          46.000
 03  6 26 16  7 20.0000000  0  9G23G21G18G17G 6G16G15G29G26
  23260925.548    -4888414.92043  -3794876.73442  23260926.730    23260926.223
        48.000          41.000
  20853585.780    -1880078.28643  -1458443.32642  20853586.829    20853582.202
        56.000          50.000
  21342501.650    -4038147.00043  -3137093.43642  21342502.988    21342499.253
        56.000          49.000
  21065813.481     -574602.37643   -444894.04542  21065814.512    21065811.790
        55.000          49.000
  20583167.769       68272.52944     54106.15042  20583169.337    20583165.926
        57.000          50.000
  23454708.416    -2384484.56943  -1851192.18842  23454708.093    23454706.479
        48.000          41.000
  22771714.699    -4013067.32943  -3116153.09642  22771716.124    22771713.923
        49.000          43.000
  23023252.920     -293465.14243   -225593.78942  23023255.170    23023251.864
        50.000          43.000
  21648876.476    -2501014.29143  -1939382.52042  21648878.030    21648875.303
        52.000          46.000
 03  6 26 16  7 40.0000000  0  9G23G21G18G17G 6G16G15G29G26
  23247341.661    -4959798.11243  -3850499.98442  23247342.724    23247341.229
        48.000          41.000
  20848644.060    -1906047.43543  -1478679.03642  20848644.905    20848640.482
        56.000          50.000
  21332008.895    -4093287.27043  -3180059.87442  21332010.420    21332006.071
        56.000          49.000
  21064499.262     -581507.94643   -450275.02342  21064500.104    21064498.008
        55.000          49.000
  20584605.690       75828.71544     59994.06742  20584607.011    20584603.847
        57.000          50.000
  23449349.399    -2412645.29743  -1873135.62542  23449350.686    23449347.979
        48.000          41.000
  22760485.269    -4072077.85643  -3162135.31442  22760487.087    22760484.781
        49.000          43.000
  23023812.407     -290523.29843   -223301.46042  23023813.128    23023811.721
        50.000          43.000
  21643407.188    -2529758.17143  -1961780.35742  21643408.683    21643405.867
        52.000          46.000
 03  6 26 16  8  0.0000000  0  9G23G21G18G17G 6G16G15G29G26
  23233811.554    -5030899.21543  -3905903.41442  23233812.874    23233811.431
        48.000          42.000
  20843747.540    -1931778.39043  -1498729.13942  20843748.452    20843744.256
        56.000          50.000
  21321579.927    -4148091.65443  -3222764.58742  21321581.477    21321577.460
        56.000          49.000
  21063229.001     -588184.40343   -455477.47042  21063229.620    21063227.212
        55.000          49.000
  20586114.749       83758.17644     66172.84842  20586116.272    20586113.163
        57.000          50.000
  23444066.338    -2440410.42843  -1894770.79542  23444066.778    23444064.331
        47.000          41.000
  22749293.411    -4130891.79643  -3207964.35742  22749293.468    22749292.973
        50.000          43.000
  23024447.330     -287187.97343   -220702.51142  23024448.386    23024447.568
        50.000          43.000
  21638020.112    -2558065.16443  -1983837.75342  21638022.019    21638019.452
        52.000          46.000
 03  6 26 16  8 20.0000000  0  9G23G21G18G17G 6G16G15G29G26
  23220332.742    -5101731.69543  -3961097.53642  23220333.899    23220332.890
        48.000          41.000
  20838893.875    -1957285.00443  -1518604.42842  20838894.966    20838890.257
        56.000          50.000
  21311212.219    -4202573.94843  -3265218.31442  21311213.519    21311209.473
        56.000          49.000
  21061999.307     -594645.98543   -460512.48142  21061999.940    21061997.428
        55.000          49.000
  20587691.878       92046.89044     72631.57042  20587693.372    20587690.375
        57.000          50.000
  23438854.345    -2467793.94143  -1916108.61242  23438856.946    23438853.293
        48.000          41.000
  22738136.202    -4189522.92443  -3253650.94142  22738137.560    22738136.314
        50.000          43.000
  23025154.215     -283473.12743   -217807.84042  23025156.052    23025153.274
        49.000          43.000
  21632714.307    -2585948.83343  -2005565.29142  21632716.055    21632713.966
        52.000          46.000
 03  6 26 16  8 40.0000000  0  9G23G21G18G17G 6G16G15G29G26
  23206905.153    -5172294.44843  -4016081.48042  23206906.074    23206904.944
        48.000          41.000
  20834082.782    -1982566.39243  -1538304.22042  20834083.634    20834079.721
        56.000          50.000
  21300906.099    -4256733.13443  -3307420.27242  21300907.508    21300903.465
        56.000          49.000
  21060810.990     -600890.84743   -465378.62142  21060811.677    21060809.281
        55.000          49.000
  20589337.856      100695.60144     79370.80542  20589339.128    20589336.201
        57.000          50.000
  23433716.690    -2494794.86343  -1937148.30942  23433718.707    23433715.251
        47.000          41.000
  22727014.247    -4247970.49643  -3299194.50542  22727015.058    22727013.557
        50.000          43.000
  23025933.258     -279378.23843   -214617.03542  23025935.818    23025933.800
        50.000          43.000
  21627488.873    -2613407.93043  -2026961.98642  21627491.119    21627488.154
        52.000          46.000
 03  6 26 16  9  0.0000000  0  9G23G21G18G17G 6G16G15G29G26
  23193529.624    -5242582.28343  -4070851.20042  23193529.944    23193527.978
        48.000          41.000
  20829315.811    -2007617.63243  -1557824.67442  20829316.756    20829312.498
        56.000          50.000
  21290662.359    -4310564.17143  -3349366.53042  21290663.441    21290659.941
        56.000          49.000
  21059664.575     -606914.64443   -470072.50342  21059665.227    21059662.996
        55.000          49.000
  20591053.094      109709.07944     86394.26842  20591054.513    20591051.528
        57.000          50.000
  23428652.689    -2521408.42843  -1957886.15842  23428653.550    23428649.590
        48.000          41.000
  22715928.064    -4306229.73143  -3344591.30942  22715927.215    22715926.813
        50.000          43.000
  23026785.992     -274898.60543   -211126.42842  23026787.686    23026784.547
        49.000          43.000
  21622345.446    -2640437.40343  -2048023.91842  21622347.136    21622344.700
        52.000          46.000
 03  6 26 16  9 20.0000000  0  9G23G21G18G17G 6G16G15G29G26
  23180201.239    -5312622.90143  -4125428.27742  23180202.791    23180201.157
        48.000          41.000
  20824587.288    -2032466.57243  -1577187.48842  20824588.282    20824584.143
        56.000          50.000
  21280475.771    -4364094.87643  -3391078.75942  21280477.063    21280473.270
        56.000          49.000
  21058555.267     -612745.36243   -474615.93042  21058555.816    21058553.493
        55.000          49.000
  20592832.246      119059.13044     93680.00542  20592833.930    20592830.569
        57.000          50.000
  23423656.554    -2547662.57943  -1978343.94242  23423657.713    23423654.664
        48.000          41.000
  22704871.466    -4364328.60043  -3389863.14642  22704872.770    22704870.265
        49.000          43.000
  23027705.733     -270062.56743   -207358.11142  23027708.353    23027704.925
        49.000          43.000
  21617278.657    -2667064.74543  -2068772.49642  21617280.056    21617277.481
        52.000          46.000
 03  6 26 16  9 40.0000000  0  9G23G21G18G17G 6G16G15G29G26
  23166918.121    -5382427.53243  -4179821.49842  23166919.855    23166916.938
        48.000          41.000
  20819894.866    -2057125.04443  -1596401.88742  20819896.098    20819891.501
        56.000          49.000
  21270344.201    -4417336.81943  -3432565.97942  21270345.592    21270341.678
        56.000          49.000
  21057480.067     -618394.55843   -479017.91442  21057480.877    21057478.375
        55.000          49.000
  20594673.410      128734.10544    101218.92442  20594674.830    20594671.938
        57.000          50.000
  23418726.586    -2573569.01443  -1998530.77942  23418728.151    23418724.511
        48.000          41.000
  22693843.984    -4422278.66543  -3435019.03842  22693843.752    22693843.382
        50.000          43.000
  23028692.133     -264881.89143   -203321.22442  23028693.663    23028692.010
        49.000          43.000
  21612285.967    -2693301.27943  -2089216.55442  21612287.446    21612285.011
        53.000          46.000
 03  6 26 16 10  0.0000000  0  9G23G21G18G17G 6G16G15G29G26
  23153672.999    -5452029.98843  -4234057.15142  23153673.019    23153673.351
        48.000          41.000
  20815232.314    -2081627.12243  -1615494.42442  20815233.158    20815228.898
        56.000          50.000
  21260261.082    -4470323.90043  -3473854.61042  21260262.667    21260258.689
        56.000          49.000
  21056433.219     -623896.48743   -483305.14542  21056433.725    21056431.295
        55.000          49.000
  20596569.869      138699.74944    108984.33942  20596571.173    20596568.121
        57.000          50.000
  23413856.776    -2599162.03143  -2018473.40442  23413858.390    23413854.785
        48.000          41.000
  22682838.566    -4480114.08743  -3480085.59742  22682840.407    22682836.896
        50.000          43.000
  23029736.940     -259391.23743   -199042.80042  23029738.688    23029735.463
        50.000          43.000
  21607361.010    -2719180.80843  -2109382.42942  21607362.578    21607360.344
        53.000          46.000
 03  6 26 16 10 20.0000000  0  9G23G21G18G17G 6G16G15G29G26
  23140470.225    -5521412.08343  -4288121.10042  23140468.844    23140470.178
        48.000          41.000
  20810602.912    -2105954.81143  -1634451.07242  20810603.794    20810599.462
        56.000          50.000
  21250230.076    -4523038.06443  -3514930.57442  21250231.224    21250227.099
        56.000          49.000
  21055417.646     -629232.82643   -487463.34442  21055418.111    21055415.945
        55.000          49.000
  20598524.903      148973.91444    116990.16242  20598526.388    20598523.083
        57.000          50.000
  23409049.209    -2624423.52443  -2038157.68942  23409049.842    23409047.644
        47.000          41.000
  22671858.034    -4537816.87943  -3525048.81042  22671859.047    22671857.044
        49.000          43.000
  23030843.771     -253572.66243   -194508.86042  23030844.992    23030843.046
        49.000          43.000
  21602507.721    -2744684.93543  -2129255.77042  21602509.162    21602506.895
        53.000          46.000
 03  6 26 16 10 40.0000000  0  9G23G21G18G17G 6G16G15G29G26
  23127304.641    -5590598.53943  -4342032.61442  23127305.908    23127305.600
        49.000          42.000
  20806001.974    -2130133.22043  -1653291.39542  20806003.048    20805998.621
        56.000          50.000
  21240245.998    -4575504.14343  -3555813.23042  21240247.547    21240243.454
        56.000          49.000
  21054428.894     -634428.92643   -491512.26942  21054429.229    21054427.200
        55.000          49.000
  20600533.912      159531.39944    125216.74642  20600535.305    20600532.410
        57.000          50.000
  23404299.855    -2649378.59643  -2057603.21642  23404301.807    23404297.857
        48.000          41.000
  22660898.256    -4595412.04243  -3569928.15642  22660899.698    22660897.357
        50.000          43.000
  23032008.701     -247451.47443   -189739.11342  23032009.672    23032009.460
        49.000          43.000
  21597721.202    -2769838.56343  -2148856.00042  21597723.687    21597720.239
        53.000          46.000
 03  6 26 16 11  0.0000000  0  9G23G21G18G17G 6G16G15G29G26
  23114173.667    -5659601.52843  -4395801.15842  23114175.570    23114173.978
        49.000          42.000
  20801427.053    -2154174.66943  -1672024.99842  20801427.962    20801423.549
        56.000          49.000
  21230306.815    -4627734.31743  -3596512.06242  21230308.208    21230304.157
        56.000          49.000
  21053464.542     -639497.49743   -495461.82142  21053464.931    21053462.481
        55.000          49.000
  20602594.477      170359.64444    133654.31842  20602596.112    20602592.817
        57.000          50.000
  23399606.865    -2674039.71443  -2076819.66042  23399609.426    23399606.025
        48.000          41.000
  22649956.237    -4652912.10343  -3614733.38942  22649956.422    22649955.890
        50.000          43.000
  23033228.727     -241040.39343   -184743.47742  23033230.287    23033226.461
        49.000          42.000
  21592999.202    -2794653.61943  -2168192.40542  21593001.105    21592998.237
        53.000          46.000
 03  6 26 16 11 20.0000000  0  9G23G21G18G17G 6G16G15G29G26
  23101077.342    -5728421.94143  -4449427.43442  23101078.369    23101078.113
        48.000          42.000
  20796877.981    -2178080.33743  -1690652.79742  20796878.981    20796874.502
        56.000          50.000
  21220412.445    -4679729.54743  -3637027.81842  21220413.816    21220409.497
        56.000          49.000
  21052524.220     -644439.14943   -499312.46842  21052524.896    21052522.605
        55.000          49.000
  20604706.312      181457.34844    142301.85342  20604707.973    20604704.742
        57.000          50.000
  23394970.872    -2698408.22643  -2095808.12742  23394971.146    23394969.069
        48.000          41.000
  22639032.160    -4710318.29643  -3659465.48842  22639033.363    22639030.127
        50.000          43.000
  23034503.555     -234341.03143   -179523.21642  23034505.195    23034502.761
        49.000          42.000
  21588341.063    -2819131.07843  -2187265.75242  21588343.062    21588339.904
        53.000          46.000
 03  6 26 16 11 40.0000000  0  9G23G21G18G17G 6G16G15G29G26
  23088012.673    -5797078.29243  -4502925.87642  23088014.545    23088011.504
        48.000          42.000
  20792351.115    -2201868.91743  -1709189.36142  20792352.533    20792347.781
        56.000          50.000
  21210559.163    -4731508.76843  -3677375.25742  21210560.340    21210556.886
        56.000          49.000
  21051604.231     -649273.20743   -503079.28642  21051604.960    21051602.815
        55.000          49.000
  20606865.817      192805.58344    151144.61142  20606867.578    20606864.403
        57.000          50.000
  23390385.091    -2722502.90343  -2114583.20942  23390386.135    23390383.841
        47.000          41.000
  22628122.656    -4767649.54043  -3704139.18642  22628121.946    22628122.655
        50.000          43.000
  23035829.556     -227372.40443   -174093.12942  23035831.808    23035828.885
        49.000          43.000
  21583743.949    -2843289.45243  -2206090.46242  21583746.083    21583743.480
        53.000          46.000
 03  6 26 16 12  0.0000000  0  9G23G21G18G17G 6G16G15G29G26
  23074973.296    -5865597.87443  -4556317.74042  23074974.282    23074973.177
        48.000          42.000
  20787841.313    -2225568.19343  -1727656.33942  20787842.315    20787838.013
        56.000          50.000
  21200741.852    -4783099.57443  -3717575.88142  21200743.427    21200739.079
        56.000          49.000
  21050699.478     -654027.23443   -506783.73142  21050700.205    21050697.897
        55.000          49.000
  20609067.826      204376.65944    160161.01342  20609069.503    20609066.229
        57.000          50.000
  23385847.154    -2746351.39543  -2133166.43942  23385848.145    23385844.220
        47.000          41.000
  22617221.946    -4824933.43643  -3748775.98042  22617222.921    22617221.141
        50.000          43.000
  23037201.695     -220162.31843   -168474.89642  23037203.069    23037201.150
        49.000          43.000
  21579202.417    -2867155.99143  -2224687.77242  21579204.390    21579201.697
        53.000          46.000
 03  6 26 16 12 20.0000000  0  9G23G21G18G17G 6G16G15G29G26
  23061961.226    -5933977.80043  -4609600.77542  23061962.641    23061960.311
        49.000          42.000
  20783349.107    -2249175.43343  -1746051.60042  20783350.100    20783345.566
        56.000          50.000
  21190960.706    -4834499.03843  -3757627.40642  21190962.095    21190958.246
        56.000          49.000
  21049810.755     -658698.48443   -510423.67942  21049811.273    21049808.983
        55.000          49.000
  20611312.644      216172.84944    169352.82642  20611314.003    20611310.913
        57.000          50.000
  23381356.230    -2769951.25543  -2151555.94942  23381355.996    23381354.436
        48.000          41.000
  22606330.728    -4882167.30443  -3793373.79342  22606331.644    22606330.273
        50.000          43.000
  23038620.597     -212708.71643   -162666.92142  23038620.566    23038619.686
        49.000          43.000
  21574716.758    -2890727.95543  -2243055.54042  21574718.198    21574716.246
        53.000          46.000
 03  6 26 16 12 40.0000000  0  9G23G21G18G17G 6G16G15G29G26
  23048976.000    -6002216.78743  -4662774.00142  23048976.917    23048976.016
        49.000          42.000
  20778874.445    -2272689.40543  -1764374.18742  20778875.626    20778871.152
        56.000          50.000
  21181216.484    -4885706.02243  -3797528.94642  21181217.666    21181213.966
        56.000          49.000
  21048937.829     -663285.69143   -513998.14342  21048938.190    21048935.982
        55.000          49.000
  20613600.497      228195.18044    178720.85442  20613601.787    20613598.661
        57.000          50.000
  23376912.490    -2793301.50843  -2169750.96942  23376913.332    23376910.698
        48.000          41.000
  22595449.158    -4939350.12743  -3837931.83742  22595449.571    22595448.672
        50.000          43.000
  23040085.292     -205010.74643   -156668.52042  23040087.825    23040083.942
        49.000          43.000
  21570287.748    -2914003.95743  -2261192.68542  21570289.000    21570286.801
        53.000          46.000
 03  6 26 16 13  0.0000000  0  9G23G21G18G17G 6G16G15G29G26
  23036010.991    -6070346.14443  -4715861.79442  23036012.435    23036009.600
        49.000          42.000
  20774411.700    -2296141.74043  -1782648.74442  20774412.754    20774408.227
        56.000          50.000
  21171502.757    -4936752.24343  -3837305.22042  21171504.107    21171499.936
        56.000          49.000
  21048074.893     -667820.64143   -517531.88742  21048075.493    21048072.741
        55.000          49.000
  20615925.116      240411.85244    188240.31842  20615926.747    20615923.395
        57.000          50.000
  23372510.691    -2816433.78743  -2187776.13042  23372511.481    23372508.722
        48.000          41.000
  22584571.053    -4996513.62043  -3882474.82142  22584571.857    22584570.018
        49.000          43.000
  23041590.482     -197100.12743   -150504.41642  23041593.463    23041589.945
        49.000          43.000
  21565908.673    -2937015.27043  -2279123.58742  21565910.527    21565908.156
        53.000          46.000
 03  6 26 16 13 20.0000000  0  9G23G21G18G17G 6G16G15G29G26
  23023070.977    -6138347.38443  -4768849.74642  23023071.550    23023070.776
        49.000          42.000
  20769963.795    -2319514.32343  -1800861.15742  20769964.780    20769960.450
        56.000          50.000
  21161823.107    -4987619.29043  -3876941.87442  21161824.700    21161820.577
        56.000          49.000
  21047225.317     -672285.23643   -521010.80642  21047226.037    21047223.700
        55.000          49.000
  20618290.329      252840.78844    197925.17642  20618291.903    20618288.667
        57.000          50.000
  23368153.614    -2839330.01043  -2205617.35242  23368155.489    23368152.817
        47.000          41.000
  22573700.292    -5053639.54043  -3926988.51742  22573699.779    22573698.730
        50.000          43.000
  23043139.400     -188959.25343   -144160.90242  23043141.811    23043138.109
        49.000          43.000
  21561583.597    -2959743.41043  -2296833.83142  21561585.600    21561583.183
        53.000          46.000
 03  6 26 16 13 40.0000000  0  9G23G21G18G17G 6G16G15G29G26
  23010151.975    -6206237.68243  -4821751.27342  23010153.800    23010152.162
        49.000          42.000
  20765528.164    -2342824.71843  -1819025.11042  20765529.046    20765524.770
        56.000          50.000
  21152174.260    -5038324.24543  -3916452.22242  21152175.717    21152171.747
        56.000          49.000
  21046385.621     -676697.15543   -524448.68042  21046386.479    21046383.895
        55.000          49.000
  20620692.455      265464.36144    207761.70242  20620694.002    20620691.112
        57.000          50.000
  23363838.493    -2862007.79343  -2223288.35742  23363840.539    23363837.741
        48.000          41.000
  22562833.392    -5110745.51243  -3971486.66942  22562834.203    22562833.022
        50.000          43.000
  23044729.187     -180605.87843   -137651.78742  23044731.667    23044729.013
        49.000          42.000
  21557309.249    -2982205.76443  -2314336.96342  21557310.782    21557307.959
        53.000          46.000
 03  6 26 16 14  0.0000000  0  9G23G21G18G17G 6G16G15G29G26
  22997251.063    -6274033.00043  -4874578.77442  22997252.222    22997249.691
        49.000          42.000
  20761101.011    -2366089.07343  -1837153.18842  20761102.210    20761097.867
        56.000          49.000
  21142553.166    -5088883.47943  -3955849.02442  21142554.789    21142550.433
        56.000          49.000
  21045553.076     -681072.31543   -527857.91242  21045554.019    21045551.846
        55.000          49.000
  20623128.663      278266.25144    217737.17242  20623130.258    20623127.224
        57.000          50.000
  23359561.648    -2884483.51243  -2240801.90942  23359562.976    23359561.121
        48.000          40.000
  22551967.122    -5167847.61343  -4015981.81442  22551968.555    22551965.593
        50.000          43.000
  23046355.976     -172056.50943   -130989.96442  23046357.693    23046355.024
        48.000          42.000
  21553082.450    -3004418.20143  -2331645.35542  21553084.552    21553082.069
        53.000          46.000
 03  6 26 16 14 20.0000000  0  9G23G21G18G17G 6G16G15G29G26
  22984371.631    -6341714.34443  -4927317.46442  22984372.738    22984371.661
        49.000          42.000
  20756686.434    -2389288.59943  -1855230.75142  20756687.282    20756683.086
        56.000          49.000
  21132963.510    -5139278.13043  -3995117.58342  21132964.743    21132960.966
        56.000          49.000
  21044731.232     -685391.91343   -531223.84442  21044731.973    21044729.684
        55.000          49.000
  20625602.314      291265.12344    227866.13742  20625603.865    20625600.437
        57.000          50.000
  23355326.906    -2906738.31043  -2258143.31742  23355328.849    23355324.378
        48.000          41.000
  22541105.444    -5224926.99143  -4060459.24542  22541106.480    22541104.153
        50.000          43.000
  23048023.616     -163292.76343   -124161.09242  23048025.294    23048021.961
        48.000          42.000
  21548906.579    -3026361.60343  -2348744.11442  21548908.833    21548905.553
        53.000          46.000
 03  6 26 16 14 40.0000000  0  9G23G21G18G17G 6G16G15G29G26
  22971512.938    -6409285.95343  -4979970.65042  22971514.592    22971511.893
        50.000          42.000
  20752283.211    -2412427.61643  -1873261.16242  20752284.246    20752279.866
        56.000          50.000
  21123404.189    -5189512.33243  -4034261.10942  21123405.293    21123401.570
        56.000          49.000
  21043918.774     -689660.27343   -534549.85242  21043919.766    21043917.258
        55.000          49.000
  20628112.510      304456.25544    238144.91442  20628114.271    20628110.749
        57.000          50.000
  23351132.648    -2928776.85243  -2275316.21942  23351134.928    23351132.135
        48.000          41.000
  22530247.183    -5281988.12543  -4104922.46142  22530248.111    22530245.217
        50.000          43.000
  23049731.439     -154319.24543   -117168.75242  23049732.603    23049730.262
        49.000          42.000
  21544781.435    -3048040.41943  -2365636.70042  21544783.031    21544780.484
        53.000          46.000
 03  6 26 16 15  0.0000000  0  9G23G21G18G17G 6G16G15G29G26
  22958671.791    -6476768.06343  -5032554.09442  22958672.683    22958670.960
        49.000          42.000
  20747887.560    -2435526.64643  -1891260.41342  20747888.651    20747884.160
        56.000          50.000
  21113871.313    -5239606.73743  -4073295.70942  21113872.620    21113868.912
        56.000          49.000
  21043112.424     -693898.18943   -537852.13542  21043113.107    21043111.021
        55.000          49.000
  20630655.424      317818.91444    248557.34642  20630656.968    20630653.884
        57.000          50.000
  23346976.273    -2950619.76543  -2292336.67842  23346977.672    23346972.658
        47.000          41.000
  22519388.304    -5339051.65243  -4149387.54742  22519389.371    22519387.002
        50.000          43.000
  23051474.858     -145156.97443   -110029.34342  23051478.086    23051472.619
        49.000          43.000
  21540702.687    -3069474.78643  -2382338.80942  21540704.528    21540701.325
        53.000          46.000
 03  6 26 16 15 20.0000000  0  9G23G21G18G17G 6G16G15G29G26
  22945848.341    -6544156.03143  -5085064.19042  22945848.964    22945847.747
        49.000          42.000
  20743500.417    -2458581.39643  -1909225.16142  20743501.497    20743497.072
        56.000          50.000
  21104366.177    -5289556.85543  -4112217.87442  21104367.583    21104363.505
        56.000          49.000
  21042312.679     -698101.28043   -541127.28442  21042313.264    21042310.902
        55.000          49.000
  20633231.698      331357.24844    259106.67242  20633233.400    20633230.121
        57.000          50.000
  23342857.847    -2972262.87943  -2309201.46342  23342858.885    23342857.513
        47.000          41.000
  22508529.593    -5396113.20543  -4193851.09542  22508530.883    22508528.879
        50.000          43.000
  23053255.431     -135801.94943   -102739.73442  23053257.200    23053253.833
        49.000          43.000
  21536671.220    -3090660.09743  -2398846.84242  21536672.618    21536670.296
        53.000          46.000
 03  6 26 16 15 40.0000000  0  9G23G21G18G17G 6G16G15G29G26
  22933040.802    -6611458.45743  -5137507.61842  22933042.528    22933040.802
        49.000          42.000
  20739120.002    -2481600.57743  -1927162.19542  20739121.311    20739116.916
        56.000          50.000
  21094886.884    -5339371.38743  -4151034.38942  21094888.596    21094884.112
        56.000          49.000
  21041517.694     -702279.08243   -544382.72242  21041518.362    21041515.772
        55.000          49.000
  20635839.681      345062.37444    269785.96142  20635841.292    20635838.193
        57.000          50.000
  23338775.931    -2993715.14843  -2325917.53942  23338776.293    23338774.144
        47.000          41.000
  22497670.139    -5453181.58143  -4238319.95842  22497669.884    22497669.644
        50.000          43.000
  23055070.402     -126263.18743    -95306.95042  23055072.341    23055069.187
        49.000          43.000
  21532685.474    -3111604.93343  -2415167.49242  21532687.166    21532684.367
        53.000          46.000
 03  6 26 16 16  0.0000000  0  9G23G21G18G17G 6G16G15G29G26
  22920253.052    -6678658.70543  -5189871.44142  22920254.113    22920253.723
        49.000          42.000
  20734749.552    -2504567.96743  -1945058.86842  20734750.487    20734746.127
        56.000          50.000
  21085436.321    -5389034.03743  -4189732.55542  21085437.670    21085433.668
        56.000          49.000
  21040731.052     -706413.31843   -547604.22242  21040731.380    21040728.908
        55.000          49.000
  20638482.449      358950.42744    280607.79842  20638484.071    20638480.895
        57.000          50.000
  23334732.582    -3014960.21043  -2342472.15242  23334734.323    23334731.374
        47.000          41.000
  22486812.232    -5510240.49643  -4282781.45542  22486813.508    22486813.269
        50.000          43.000
  23056923.378     -116524.78943    -87718.60942  23056925.902    23056922.348
        49.000          43.000
  21528748.536    -3132292.79043  -2431287.90642  21528749.827    21528747.862
        53.000          46.000
 03  6 26 16 16 20.0000000  0  9G23G21G18G17G 6G16G15G29G26
  22907479.671    -6745784.66843  -5242177.36242  22907481.129    22907479.606
        49.000          42.000
  20730383.527    -2527511.49043  -1962936.94142  20730384.725    20730379.915
        56.000          50.000
  21076009.342    -5438572.58143  -4228334.01242  21076010.930    21076006.718
        56.000          49.000
  21039947.246     -710532.59343   -550814.06042  21039947.901    21039945.614
        55.000          49.000
  20641154.719      372993.09444    291550.10842  20641156.272    20641153.344
        57.000          50.000
  23330723.960    -3036026.24943  -2358887.24642  23330725.016    23330723.553
        48.000          41.000
  22475950.654    -5567318.01843  -4327257.44942  22475951.472    22475948.701
        50.000          43.000
  23058809.152     -106615.17443    -79996.86042  23058811.207    23058809.491
        49.000          43.000
  21524855.327    -3152751.54543  -2447229.79742  21524857.341    21524854.622
        53.000          46.000
 03  6 26 16 16 40.0000000  0  9G23G21G18G17G 6G16G15G29G26
  22894720.194    -6812834.19543  -5294423.73442  22894722.505    22894718.181
        49.000          42.000
  20726022.347    -2550429.25743  -1980794.95042  20726023.563    20726019.027
        56.000          50.000
  21066606.668    -5487985.20543  -4266837.35542  21066608.071    21066604.125
        56.000          49.000
  21039166.165     -714636.57743   -554011.98142  21039166.701    21039164.471
        55.000          49.000
  20643856.692      387191.97444    302614.14242  20643858.419    20643855.117
        57.000          50.000
  23326749.758    -3056911.59643  -2375161.57542  23326750.151    23326747.071
        47.000          41.000
  22465085.998    -5624412.39343  -4371746.56942  22465087.290    22465085.083
        50.000          43.000
  23060727.950      -96532.85243    -72140.51842  23060730.318    23060727.182
        49.000          43.000
  21521006.021    -3172979.16143  -2462991.57942  21521008.163    21521005.730
        53.000          46.000
 03  6 26 16 17  0.0000000  0  9G23G21G18G17G 6G16G15G29G26
  22881979.311    -6879789.46243  -5346596.65742  22881981.098    22881979.731
        49.000          42.000
  20721669.445    -2573303.70243  -1998619.20142  20721670.753    20721666.228
        56.000          50.000
  21057231.007    -5537254.23443  -4305228.79942  21057232.517    21057228.526
        56.000          49.000
  21038391.845     -718706.14443   -557183.08642  21038392.535    21038389.881
        55.000          49.000
  20646591.679      401564.53244    313813.51042  20646593.193    20646590.515
        57.000          50.000
  23322812.777    -3077598.76843  -2391281.46142  23322813.602    23322812.627
        48.000          41.000
  22454221.113    -5681505.95643  -4416235.06442  22454222.289    22454220.395
        50.000          43.000
  23062682.643      -86260.68243    -64136.24442  23062683.763    23062681.756
        49.000          43.000
  21517204.603    -3192957.72143  -2478559.29042  21517206.070    21517203.872
        53.000          46.000
 03  6 26 16 17 20.0000000  0  9G23G21G18G17G 6G16G15G29G26
  22869253.182    -6946665.60043  -5398707.91842  22869254.712    22869252.883
        49.000          42.000
  20717322.036    -2596150.10743  -2016421.59942  20717323.346    20717318.909
        56.000          50.000
  21047879.786    -5586394.81643  -4343520.15642  21047880.965    21047877.175
        56.000          49.000
  21037620.878     -722757.18043   -560339.74842  21037621.541    21037619.282
        55.000          49.000
  20649356.922      416095.15844    325136.04842  20649358.510    20649355.319
        57.000          50.000
  23318911.797    -3098103.44943  -2407259.15742  23318913.404    23318909.195
        47.000          41.000
  22443354.303    -5738614.10843  -4460734.92442  22443354.257    22443351.642
        50.000          43.000
  23064670.216      -75814.23943    -55996.18042  23064672.522    23064668.609
        49.000          42.000
  21513447.520    -3212702.52643  -2493944.84942  21513448.599    21513446.460
        54.000          46.000
 03  6 26 16 17 40.0000000  0  9G23G21G18G17G 6G16G15G29G26
  22856546.039    -7013441.12743  -5450740.77142  22856547.237    22856546.165
        49.000          43.000
  20712983.935    -2618947.11843  -2034185.51242  20712985.261    20712980.570
        56.000          50.000
  21038557.228    -5635385.61143  -4381694.79842  21038558.376    21038554.562
        56.000          49.000
  21036856.874     -726771.89143   -563468.10842  21036857.164    21036854.970
        55.000          49.000
  20652156.136      430804.99044    336598.22942  20652157.509    20652154.516
        57.000          50.000
  23315048.511    -3118404.47443  -2423078.16442  23315049.436    23315047.158
        48.000          41.000
  22432487.942    -5795715.53043  -4505229.53242  22432488.430    22432487.104
        50.000          44.000
  23066695.852      -65172.63343    -47704.03742  23066696.083    23066695.763
        49.000          42.000
  21509738.566    -3232192.09343  -2509131.52742  21509740.266    21509737.802
        53.000          46.000
 03  6 26 16 18  0.0000000  0  9G23G21G18G17G 6G16G15G29G26
  22843856.300    -7080127.37443  -5502704.06842  22843858.714    22843856.398
        49.000          42.000
  20708652.897    -2641706.39643  -2051920.02442  20708654.122    20708649.549
        56.000          50.000
  21029260.812    -5684238.34843  -4419761.86342  21029262.477    21029258.424
        56.000          49.000
  21036098.941     -730755.37143   -566572.13942  21036099.540    21036097.353
        55.000          49.000
  20654987.123      445682.13444    348190.78242  20654988.499    20654985.678
        57.000          50.000
  23311221.442    -3138513.50943  -2438747.55442  23311224.132    23311219.997
        47.000          41.000
  22421621.145    -5852821.79443  -4549727.92442  22421621.483    22421620.455
        50.000          44.000
  23068755.583      -54347.93443    -39269.21942  23068756.427    23068755.059
        49.000          42.000
  21506075.993    -3251437.83243  -2524128.20642  21506077.351    21506075.301
        53.000          46.000
 03  6 26 16 18 20.0000000  0  9G23G21G18G17G 6G16G15G29G26
  22831181.525    -7146731.66343  -5554603.50242  22831183.006    22831180.987
        49.000          42.000
  20704327.839    -2664435.48743  -2069631.01042  20704328.775    20704324.428
        56.000          50.000
  21019989.306    -5732960.52043  -4457727.18642  21019990.534    21019986.599
        56.000          49.000
  21035344.803     -734718.95743   -569660.66042  21035345.421    21035342.836
        55.000          49.000
  20657848.479      460718.71644    359907.57142  20657850.253    20657846.890
        57.000          50.000
  23307429.747    -3158438.52743  -2454273.55842  23307431.031    23307427.468
        48.000          41.000
  22410751.934    -5909940.71443  -4594236.17042  22410752.224    22410751.244
        50.000          44.000
  23070848.526      -43348.23943    -30698.04542  23070850.859    23070847.639
        50.000          42.000
  21502459.007    -3270447.13043  -2538940.64842  21502460.654    21502458.455
        53.000          46.000
 03  6 26 16 18 40.0000000  0  9G23G21G18G17G 6G16G15G29G26
  22818526.508    -7213235.83943  -5606424.91442  22818529.076    22818526.821
        49.000          43.000
  20700011.814    -2687116.38143  -2087304.44342  20700013.012    20700008.528
        56.000          50.000
  21010745.988    -5781534.12143  -4495576.74042  21010747.368    21010743.370
        56.000          49.000
  21034597.856     -738644.10943   -572719.23542  21034598.566    21034596.324
        55.000          49.000
  20660743.673      475932.52044    371762.46142  20660745.114    20660742.001
        57.000          50.000
  23303677.012    -3178161.50343  -2469642.14142  23303677.994    23303673.699
        48.000          41.000
  22399883.435    -5967054.24243  -4638740.21742  22399884.521    22399882.880
        51.000          44.000
  23072978.871      -32155.68343    -21976.58342  23072980.688    23072978.891
        49.000          43.000
  21498890.191    -3289201.90943  -2553554.76842  21498891.415    21498888.978
        53.000          46.000
 03  6 26 16 19  0.0000000  0  9G23G21G18G17G 6G16G15G29G26
  22805887.546    -7279654.02143  -5658179.33142  22805890.503    22805888.242
        49.000          42.000
  20695702.174    -2709763.41243  -2104951.48642  20695703.440    20695699.041
        56.000          50.000
  21001528.327    -5829973.39643  -4533321.62642  21001529.756    21001525.776
        56.000          49.000
  21033855.509     -742545.05143   -575758.94842  21033856.065    21033853.991
        55.000          49.000
  20663669.622      491308.97844    383744.09042  20663671.188    20663668.219
        57.000          50.000
  23299959.523    -3197696.87443  -2484864.51742  23299960.944    23299956.640
        48.000          41.000
  22389013.411    -6024176.77243  -4683251.28542  22389014.180    22389011.548
        51.000          44.000
  23075142.186      -20785.19143    -13116.49042  23075143.148    23075141.775
        49.000          43.000
  21495366.823    -3307716.41743  -2567981.66142  21495368.978    21495365.533
        54.000          46.000
 03  6 26 16 19 20.0000000  0  9G23G21G18G17G 6G16G15G29G26
  22798682.737    -7317515.03643  -5687681.41142  22798684.897    22798682.277
        49.000          43.000
  20696816.826    -2703905.74043  -2100387.07342  20696817.997    20696813.475
        56.000          50.000
  20997754.074    -5849807.32443  -4548776.62842  20997755.383    20997751.332
        56.000          49.000
  21038535.602     -717951.30443   -556595.00442  21038536.412    21038534.008
        55.000          49.000
  20672044.440      535318.72244    418037.36842  20672046.011    20672042.952
        57.000          50.000
  23301695.338    -3188574.11543  -2477755.89342  23301696.154    23301694.602
        48.000          41.000
  22383558.996    -6052837.30743  -4705584.16842  22383560.745    22383559.189
        51.000          44.000
  23082757.928       19233.76143     18067.08742  23082759.422    23082757.256
        49.000          43.000
  21497306.911    -3297519.47043  -2560035.98842  21497308.778    21497305.784
        53.000          46.000
 03  6 26 16 19 40.0000000  0  9G23G21G18G17G 6G16G15G29G26
  22788920.055    -7368818.22643  -5727657.90742  22788921.159    22788919.274
        49.000          43.000
  20695363.589    -2711542.71843  -2106337.97342  20695364.820    20695360.385
        56.000          50.000
  20991431.012    -5883035.39143  -4574668.62642  20991432.341    20991428.290
        56.000          49.000
  21040645.717     -706861.52943   -547953.63642  21040646.690    21040644.368
        55.000          49.000
  20677875.739      565962.06344    441915.26942  20677877.342    20677874.073
        57.000          50.000
  23300892.977    -3192792.76143  -2481043.17442  23300894.927    23300890.341
        48.000          41.000
  22375529.672    -6095035.47143  -4738465.85542  22375530.825    22375529.033
        50.000          44.000
  23087832.076       45901.24743     38846.92842  23087833.691    23087832.010
        49.000          43.000
  21496719.019    -3300610.53843  -2562444.61742  21496721.025    21496717.889
        53.000          46.000
 03  6 26 16 20  0.0000000  0  9G23G21G18G17G 6G16G15G29G26
  22779184.388    -7419980.36743  -5767524.50342  22779185.002    22779184.225
        49.000          43.000
  20693927.196    -2719091.40543  -2112220.07942  20693928.450    20693923.983
        56.000          50.000
  20985143.873    -5916074.72143  -4600413.55542  20985145.188    20985141.181
        56.000          49.000
  21042771.037     -695693.27043   -539251.11542  21042771.548    21042769.402
        55.000          48.000
  20683748.110      596821.66144    465961.68142  20683749.451    20683746.591
        57.000          50.000
  23300135.419    -3196770.19743  -2484142.51142  23300137.362    23300134.126
        47.000          41.000
  22367508.048    -6137188.20343  -4771312.14242  22367509.038    22367506.931
        50.000          44.000
  23092951.100       72799.86343     59806.85342  23092952.098    23092950.018
        49.000          42.000
  21496187.053    -3303406.48743  -2564623.28042  21496188.716    21496185.487
        53.000          46.000
 03  6 26 16 20 20.0000000  0  9G23G21G18G17G 6G16G15G29G26
  22769474.471    -7471006.52343  -5807285.13142  22769476.167    22769474.330
        50.000          43.000
  20692506.564    -2726556.96943  -2118037.40642  20692507.501    20692503.476
        56.000          50.000
  20978891.614    -5948930.52543  -4626015.47642  20978892.879    20978888.688
        56.000          49.000
  21044910.525     -684451.45043   -530491.26642  21044911.089    21044908.685
        55.000          48.000
  20689660.721      627891.97044    490172.28342  20689662.324    20689659.343
        57.000          50.000
  23299423.941    -3200511.86543  -2487058.12042  23299424.214    23299421.029
        48.000          41.000
  22359494.067    -6179300.72943  -4804127.09142  22359495.044    22359492.424
        51.000          44.000
  23098112.443       99923.86543     80942.42042  23098115.146    23098112.349
        48.000          42.000
  21495709.939    -3305912.49243  -2566576.01042  21495711.762    21495709.305
        53.000          46.000
 03  6 26 16 20 40.0000000  0  9G23G21G18G17G 6G16G15G29G26
  22759790.649    -7521895.12043  -5846938.56542  22759792.980    22759788.863
        49.000          43.000
  20691102.069    -2733938.14343  -2123788.97542  20691102.990    20691098.775
        56.000          50.000
  20972674.676    -5981601.32343  -4651473.23542  20972675.957    20972671.915
        56.000          49.000
  21047063.780     -673135.03043   -521673.29242  21047064.536    21047062.098
        55.000          48.000
  20695613.561      659174.06443    514547.91342  20695614.991    20695611.867
        56.000          50.000
  23298756.824    -3204016.58343  -2489789.10142  23298757.849    23298754.703
        48.000          41.000
  22351488.542    -6221371.78643  -4836909.74242  22351489.467    22351487.954
        51.000          44.000
  23103316.903      127274.21843    102254.36442  23103318.341    23103314.615
        49.000          42.000
  21495288.555    -3308127.19043  -2568301.75442  21495290.860    21495287.670
        53.000          46.000
 03  6 26 16 21  0.0000000  0  9G23G21G18G17G 6G16G15G29G26
  22750133.071    -7572646.11143  -5886484.77542  22750134.826    22750132.721
        49.000          43.000
  20689713.322    -2741234.82743  -2129474.70742  20689714.206    20689710.196
        56.000          50.000
  20966492.688    -6014087.29343  -4676786.97442  20966494.082    20966490.145
        56.000          49.000
  21049231.308     -661744.41443   -512797.50742  21049231.923    21049230.025
        55.000          48.000
  20701606.529      690667.54244    539088.25942  20701608.034    20701604.948
        57.000          50.000
  23298134.494    -3207284.76443  -2492335.75542  23298136.941    23298133.508
        48.000          41.000
  22343490.210    -6263401.52143  -4869660.17842  22343491.848    22343489.331
        51.000          44.000
  23108565.024      154850.44143    123742.30542  23108567.168    23108565.046
        48.000          42.000
  21494922.730    -3310050.37443  -2569800.34042  21494925.112    21494921.866
        53.000          46.000
 03  6 26 16 21 20.0000000  0  9G23G21G18G17G 6G16G15G29G26
  22740501.598    -7623259.39843  -5925923.68442  22740502.735    22740499.888
        49.000          42.000
  20688341.037    -2748447.18343  -2135094.73442  20688342.010    20688337.772
        56.000          50.000
  20960345.942    -6046388.47843  -4701956.72442  20960347.586    20960343.207
        56.000          49.000
  21051413.148     -650279.58743   -503863.88442  21051413.903    21051411.363
        55.000          48.000
  20707639.735      722372.07144    563793.06042  20707641.339    20707637.987
        57.000          50.000
  23297558.358    -3210316.53043  -2494698.19742  23297559.511    23297557.502
        48.000          41.000
  22335500.503    -6305389.95543  -4902378.44942  22335501.512    22335498.984
        51.000          44.000
  23113855.169      182651.83543    145405.69942  23113857.774    23113853.697
        49.000          42.000
  21494612.088    -3311682.18843  -2571071.88742  21494613.867    21494611.151
        53.000          46.000
 03  6 26 16 21 40.0000000  0  9G23G21G18G17G 6G16G15G29G26
  22730896.865    -7673731.11343  -5965252.27942  22730898.551    22730896.721
        50.000          43.000
  20686985.343    -2755571.54743  -2140646.19542  20686986.389    20686982.128
        56.000          50.000
  20954235.004    -6078501.15243  -4726979.58142  20954236.356    20954232.602
        56.000          49.000
  21053610.077     -638735.74443   -494868.69742  21053610.504    21053608.363
        55.000          48.000
  20713713.601      754291.11344    588665.01542  20713715.178    20713712.027
        57.000          50.000
  23297026.858    -3213108.54343  -2496873.82242  23297028.855    23297025.020
        48.000          41.000
  22327518.678    -6347333.47443  -4935061.70242  22327520.523    22327517.868
        51.000          44.000
  23119189.270      210681.79743    167247.20942  23119190.275    23119188.261
        49.000          42.000
  21494357.702    -3313018.65843  -2572113.29642  21494359.353    21494357.143
        53.000          46.000
 03  6 26 16 22  0.0000000  0  9G23G21G18G17G 6G16G15G29G26
  22721318.282    -7724067.19843  -6004475.18342  22721319.835    22721319.653
        49.000          43.000
  20685645.163    -2762614.10343  -2146133.90642  20685646.059    20685641.528
        56.000          50.000
  20948158.916    -6110431.42943  -4751860.31142  20948160.461    20948156.421
        56.000          49.000
  21055819.652     -627123.13743   -485819.92342  21055820.646    21055817.995
        55.000          48.000
  20719827.276      786418.17744    613699.06342  20719828.700    20719825.634
        57.000          50.000
  23296539.909    -3215667.13243  -2498867.55242  23296539.964    23296537.606
        48.000          41.000
  22319544.433    -6389238.31443  -4967714.82442  22319545.584    22319543.294
        51.000          44.000
  23124565.281      238933.73843    189261.69342  23124568.333    23124564.410
        49.000          42.000
  21494158.309    -3314066.03743  -2572929.43942  21494159.926    21494157.824
        53.000          46.000
 03  6 26 16 22 20.0000000  0  9G23G21G18G17G 6G16G15G29G26
  22711766.480    -7774263.13143  -6043588.88942  22711766.772    22711765.689
        49.000          43.000
  20684321.308    -2769570.44943  -2151554.44242  20684322.451    20684318.159
        56.000          50.000
  20942118.382    -6142174.98043  -4776595.54842  20942119.797    20942115.779
        56.000          49.000
  21058045.287     -615427.84543   -476706.72542  21058046.011    21058043.609
        55.000          48.000
  20725981.235      818757.32643    638898.37042  20725982.686    20725979.852
        56.000          50.000
  23296097.960    -3217988.36143  -2500676.32142  23296099.452    23296094.915
        48.000          41.000
  22311578.406    -6431100.08343  -5000334.39342  22311578.970    22311577.266
        51.000          44.000
  23129984.451      267411.48643    211452.11842  23129987.487    23129983.864
        49.000          42.000
  21494014.837    -3314819.82343  -2573516.81542  21494016.395    21494014.530
        53.000          46.000
 03  6 26 16 22 40.0000000  0  9G23G21G18G17G 6G16G15G29G26
  22702241.421    -7824318.39843  -6082592.97342  22702242.031    22702241.110
        49.000          43.000
  20683014.087    -2776440.20943  -2156907.51142  20683015.366    20683010.726
        56.000          49.000
  20936113.401    -6173731.50843  -4801185.04542  20936114.913    20936110.676
        56.000          49.000
  21060284.732     -603659.79543   -467536.83042  21060285.126    21060282.680
        55.000          48.000
  20732175.653      851308.66043    664263.02242  20732176.942    20732173.806
        56.000          50.000
  23295701.472    -3220072.01143  -2502299.95842  23295703.272    23295701.046
        48.000          41.000
  22303620.732    -6472918.55143  -5032920.21442  22303621.677    22303619.726
        51.000          44.000
  23135446.819      296114.85043    233818.35042  23135448.541    23135445.359
        48.000          42.000
  21493927.062    -3315279.83043  -2573875.26442  21493929.197    21493926.622
        53.000          46.000
 03  6 26 16 23  0.0000000  0  9G23G21G18G17G 6G16G15G29G26
  22692742.274    -7874235.37443  -6121489.30742  22692743.138    22692741.704
        50.000          43.000
  20681723.072    -2783225.86443  -2162195.04442  20681723.943    20681719.573
        56.000          50.000
  20930143.438    -6205103.52043  -4825630.76742  20930144.809    20930140.800
        56.000          49.000
  21062538.160     -591816.66643   -458308.43342  21062539.092    21062536.807
        55.000          48.000
  20738409.676      884069.25644    689790.72942  20738411.230    20738408.424
        57.000          50.000
  23295349.647    -3221920.95343  -2503740.71642  23295352.300    23295348.809
        48.000          41.000
  22295670.839    -6514696.33343  -5065474.32242  22295670.996    22295670.172
        51.000          44.000
  23140951.057      325041.04843    256358.21542  23140951.747    23140950.392
        49.000          42.000
  21493895.679    -3315448.39043  -2574006.61642  21493897.170    21493894.621
        53.000          46.000
 03  6 26 16 23 20.0000000  0  9G23G21G18G17G 6G16G15G29G26
  22683269.717    -7924013.76343  -6160277.64642  22683271.630    22683269.821
        50.000          43.000
  20680447.660    -2789927.23343  -2167416.90142  20680448.566    20680444.463
        56.000          50.000
  20924208.733    -6236290.88743  -4849932.60942  20924210.155    20924205.819
        56.000          49.000
  21064806.056     -579900.11943   -449022.82942  21064806.826    21064804.650
        55.000          48.000
  20744683.704      917038.89243    715481.32542  20744685.385    20744682.011
        56.000          50.000
  23295042.695    -3223535.21043  -2504998.59142  23295044.297    23295041.486
        48.000          41.000
  22287728.304    -6556433.14943  -5097996.52842  22287729.128    22287727.213
        51.000          44.000
  23146498.054      354189.56643    279071.31742  23146499.124    23146497.228
        49.000          42.000
  21493918.741    -3315325.20243  -2573910.62842  21493921.116    21493917.554
        53.000          46.000
 03  6 26 16 23 40.0000000  0  9G23G21G18G17G 6G16G15G29G26
  22673824.632    -7973648.21343  -6198953.82742  22673826.147    22673825.383
        50.000          43.000
  20679189.523    -2796539.23743  -2172569.12242  20679190.620    20679186.120
        56.000          50.000
  20918309.982    -6267288.41743  -4874086.52442  20918311.212    20918308.047
        56.000          49.000
  21067088.684     -567903.61143   -439674.91742  21067089.622    21067086.921
        55.000          48.000
  20750998.448      950222.51543    741338.66442  20751000.051    20750996.757
        56.000          50.000
  23294781.952    -3224910.06343  -2506069.92542  23294784.075    23294780.333
        48.000          41.000
  22279795.039    -6598123.87143  -5130482.79342  22279796.323    22279793.818
        51.000          44.000
  23152088.287      383565.13543    301961.34642  23152090.885    23152087.451
        49.000          42.000
  21493998.866    -3314905.30343  -2573583.44342  21494000.298    21493997.896
        53.000          46.000
 03  6 26 16 24  0.0000000  0  9G23G21G18G17G 6G16G15G29G26
  22664406.087    -8023143.30343  -6237521.42742  22664407.304    22664405.528
        50.000          43.000
  20677947.452    -2803066.53043  -2177655.33542  20677949.112    20677944.031
        56.000          50.000
  20912446.754    -6298100.92043  -4898096.26342  20912447.993    20912443.989
        56.000          49.000
  21069385.862     -555832.40743   -430268.80442  21069386.364    21069384.329
        55.000          48.000
  20757352.712      983615.06543    767358.80142  20757354.034    20757351.369
        56.000          50.000
  23294564.613    -3226050.33643  -2506958.45842  23294566.324    23294562.084
        48.000          41.000
  22271869.440    -6639773.28543  -5162936.89142  22271870.119    22271868.430
        51.000          44.000
  23157720.569      413162.57743    325024.27742  23157722.664    23157719.269
        48.000          42.000
  21494134.541    -3314193.29443  -2573028.63342  21494136.154    21494132.943
        53.000          46.000
 03  6 26 16 24 20.0000000  0  9G23G21G18G17G 6G16G15G29G26
  22655013.838    -8072500.63043  -6275981.66942  22655014.770    22655013.312
        50.000          43.000
  20676720.928    -2809510.85143  -2182676.89142  20676722.187    20676717.580
        56.000          50.000
  20906617.992    -6328730.19443  -4921963.22642  20906619.706    20906615.434
        56.000          49.000
  21071696.682     -543689.45743   -420806.78342  21071697.343    21071694.975
        55.000          48.000
  20763746.368     1017214.46143    793540.11942  20763748.137    20763744.970
        56.000          50.000
  23294391.640    -3226958.00443  -2507665.74742  23294393.928    23294389.541
        48.000          41.000
  22263951.056    -6681383.22243  -5195360.20142  22263951.649    22263950.748
        51.000          44.000
  23163394.360      442979.58543    348258.28042  23163395.623    23163393.272
        48.000          42.000
  21494325.207    -3313190.83543  -2572247.49542  21494327.058    21494323.565
        53.000          46.000
 03  6 26 16 24 40.0000000  0  9G23G21G18G17G 6G16G15G29G26
  22645648.734    -8121713.45243  -6314329.30842  22645650.164    22645648.460
        50.000          43.000
  20675511.719    -2815865.62443  -2187628.67342  20675512.984    20675508.725
        56.000          50.000
  20900825.699    -6359169.66343  -4945682.29442  20900827.055    20900823.089
        56.000          49.000
  21074022.792     -531466.37943   -411282.32842  21074023.390    21074020.475
        55.000          48.000
  20770180.841     1051027.03643    819887.54742  20770182.250    20770179.704
        56.000          50.000
  23294264.001    -3227626.93543  -2508187.00742  23294265.788    23294262.540
        48.000          41.000
  22256042.305    -6722947.10243  -5227747.64842  22256043.347    22256040.151
        51.000          44.000
  23169111.292      473022.17843    371668.07742  23169112.690    23169109.277
        48.000          42.000
  21494572.409    -3311891.37643  -2571234.93242  21494573.788    21494571.183
        53.000          46.000
 03  6 26 16 25  0.0000000  0  9G23G21G18G17G 6G16G15G29G26
  22636310.311    -8170786.46743  -6352568.00742  22636311.388    22636308.115
        50.000          43.000
  20674318.582    -2822135.69343  -2192514.44842  20674319.793    20674315.425
        56.000          50.000
  20895068.407    -6389424.12743  -4969257.19842  20895069.959    20895065.598
        56.000          49.000
  21076361.835     -519174.30143   -401704.10642  21076362.532    21076360.220
        55.000          48.000
  20776654.742     1085047.54243    846397.00242  20776656.211    20776653.482
        56.000          50.000
  23294180.886    -3228062.20543  -2508526.19142  23294181.694    23294178.233
        48.000          41.000
  22248140.702    -6764469.69643  -5260102.91342  22248141.694    22248139.407
        51.000          44.000
  23174869.972      503285.27343    395249.69642  23174871.380    23174869.221
        49.000          42.000
  21494875.016    -3310299.71043  -2569994.67842  21494877.304    21494874.258
        53.000          46.000
 03  6 26 16 25 20.0000000  0 10G23G 2G21G18G17G 6G16G15G29G26
  22626998.558    -8219721.02943  -6390698.81042  22626999.893    22626997.674
        50.000          43.000
  25203915.878    -5312437.41553  -4097489.00252  25203916.968    25203915.171
        44.000          37.000
  20673141.303    -2828322.68143  -2197335.48442  20673142.552    20673138.178
        56.000          50.000
  20889346.072    -6419495.22843  -4992689.22242  20889347.592    20889343.173
        56.000          49.000
  21078714.383     -506810.91743   -392070.31442  21078715.303    21078712.358
        55.000          48.000
  20783167.843     1119274.14843    873067.05642  20783169.571    20783166.617
        56.000          50.000
  23294142.333    -3228265.65143  -2508684.72042  23294143.593    23294139.558
        48.000          41.000
  22240246.624    -6805952.55743  -5292427.21142  22240247.630    22240245.431
        51.000          44.000
  23180670.566      533766.58243    419001.33342  23180672.377    23180669.914
        48.000          42.000
  21495233.471    -3308417.39543  -2568527.94442  21495235.151    21495232.224
        53.000          46.000
 03  6 26 16 25 40.0000000  0 10G23G 2G21G18G17G 6G16G15G29G26
  22617711.949    -8268523.29943  -6428726.56142  22617712.982    22617710.506
        50.000          43.000
  25199486.065    -5335705.76543  -4115620.19042  25199488.935    25199488.822
        45.000          37.000
  20671978.634    -2834432.57243  -2202096.45042  20671979.796    20671975.063
        56.000          50.000
  20883657.483    -6449389.24943  -5015983.25942  20883658.783    20883655.030
        56.000          49.000
  21081081.105     -494374.28543   -382379.44942  21081081.845    21081079.022
        55.000          48.000
  20789719.073     1153700.22144    899892.53542  20789720.610    20789717.519
        57.000          50.000
  23294146.605    -3228243.92343  -2508667.81442  23294149.384    23294144.692
        48.000          41.000
  22232358.976    -6847401.94843  -5324725.43742  22232359.718    22232358.673
        51.000          44.000
  23186510.975      564459.51143    442917.87342  23186512.066    23186511.281
        48.000          42.000
  21495646.213    -3306250.79143  -2566839.68742  21495646.715    21495645.189
        53.000          46.000
 03  6 26 16 26  0.0000000  0 10G23G 2G21G18G17G 6G16G15G29G26
  22608453.910    -8317173.52543  -6466635.81442  22608456.058    22608454.718
        50.000          43.000
  25195096.166    -5358783.42543  -4133602.79842  25195098.314    25195097.789
        44.000          37.000
  20670834.382    -2840445.81943  -2206782.10542  20670835.427    20670831.125
        56.000          50.000
  20878006.267    -6479086.70243  -5039124.13042  20878007.766    20878003.674
        56.000          50.000
  21083464.094     -481851.84243   -372621.71742  21083464.796    21083462.596
        55.000          48.000
  20796311.812     1188345.06143    926888.48442  20796313.199    20796310.584
        56.000          50.000
  23294196.958    -3227977.61643  -2508460.31942  23294200.276    23294195.369
        48.000          41.000
  22224481.540    -6888798.29743  -5356982.32842  22224481.298    22224480.495
        51.000          44.000
  23192395.102      595383.01743    467014.08142  23192398.148    23192396.338
        48.000          42.000
  21496115.787    -3303780.14543  -2564914.51242  21496117.757    21496114.593
        53.000          46.000
 03  6 26 16 26 20.0000000  0 10G23G 2G21G18G17G 6G16G15G29G26
  22599223.813    -8365678.28943  -6504431.72142  22599224.600    22599223.952
        50.000          43.000
  25190739.793    -5381677.10043  -4151442.03042  25190741.388    25190741.395
        45.000          37.000
  20669707.141    -2846369.17343  -2211397.71142  20669708.140    20669703.711
        56.000          50.000
  20872391.190    -6508594.41343  -5062117.15042  20872392.809    20872388.602
        56.000          49.000
  21085862.419     -469248.65443   -362801.07042  21085863.275    21085860.644
        55.000          48.000
  20802944.792     1223201.55943    954049.36042  20802946.330    20802943.245
        56.000          50.000
  23294293.466    -3227473.71443  -2508067.66842  23294295.157    23294292.344
        48.000          41.000
  22216612.870    -6930148.36743  -5389203.15642  22216614.034    22216611.506
        51.000          44.000
  23198322.367      626529.99843    491284.42742  23198325.095    23198322.123
        49.000          42.000
  21496642.406    -3301012.25443  -2562757.72242  21496644.605    21496641.667
        53.000          46.000
 03  6 26 16 26 40.0000000  0 10G23G 2G21G18G17G 6G16G15G29G26
  22590020.918    -8414039.47343  -6542115.75142  22590022.201    22590020.228
        50.000          43.000
  25186417.297    -5404388.80743  -4169139.47042  25186419.448    25186419.154
        44.000          37.000
  20668596.734    -2852204.54543  -2215944.75842  20668597.786    20668593.661
        56.000          50.000
  20866811.640    -6537914.24343  -5084963.76942  20866813.107    20866809.227
        56.000          50.000
  21088275.780     -456566.50343   -352918.88942  21088276.602    21088274.018
        55.000          48.000
  20809617.612     1258267.27043    981373.26442  20809619.011    20809616.157
        56.000          50.000
  23294433.985    -3226734.54443  -2507491.70142  23294437.437    23294432.225
        48.000          41.000
  22208752.680    -6971454.11043  -5421389.44542  22208753.477    22208752.210
        51.000          44.000
  23204292.316      657897.90043    515726.92242  23204294.552    23204291.918
        49.000          42.000
  21497225.476    -3297949.18443  -2560370.92242  21497227.590    21497224.625
        53.000          46.000
 03  6 26 16 27  0.0000000  0 10G23G 2G21G18G17G 6G16G15G29G26
  22580844.777    -8462260.34243  -6579690.45142  22580845.934    22580844.346
        51.000          43.000
  25182128.637    -5426921.89243  -4186697.72242  25182130.833    25182129.156
        43.000          37.000
  20667502.276    -2857955.56743  -2220426.07942  20667503.259    20667498.810
        56.000          50.000
  20861267.563    -6567049.64443  -5107666.67742  20861268.844    20861265.074
        56.000          50.000
  21090702.970     -443810.17243   -342978.90442  21090703.731    21090701.374
        55.000          48.000
  20816329.386     1293538.48343   1008857.29842  20816331.039    20816328.073
        56.000          50.000
  23294618.177    -3225763.97443  -2506735.42442  23294619.978    23294615.911
        48.000          41.000
  22200900.165    -7012718.97243  -5453543.87842  22200900.946    22200899.202
        51.000          44.000
  23210302.548      689482.71443    540338.43942  23210303.962    23210302.631
        49.000          42.000
  21497864.020    -3294594.29243  -2557756.72042  21497866.001    21497862.529
        53.000          46.000
 03  6 26 16 27 20.0000000  0 10G23G 2G21G18G17G 6G16G15G29G26
  22571695.400    -8510341.81043  -6617156.52042  22571696.670    22571694.681
        51.000          43.000
  25177876.460    -5449277.20743  -4204117.45642  25177877.159    25177880.142
        44.000          37.000
  20666423.846    -2863623.02943  -2224842.28542  20666424.927    20666420.352
        56.000          50.000
  20855757.927    -6596001.78543  -5130226.78742  20855759.627    20855755.414
        56.000          50.000
  21093144.537     -430980.45243   -332981.73642  21093145.120    21093143.014
        55.000          48.000
  20823080.288     1329013.81543   1036500.38242  20823081.580    20823078.728
        56.000          49.000
  23294847.403    -3224563.41443  -2505799.93442  23294848.700    23294846.157
        48.000          41.000
  22193055.050    -7053944.06643  -5485667.33142  22193056.449    22193054.799
        51.000          44.000
  23216353.688      721282.89943    565117.78942  23216355.310    23216351.937
        48.000          42.000
  21498557.475    -3290948.79143  -2554916.07242  21498559.467    21498556.484
        53.000          46.000
 03  6 26 16 27 40.0000000  0 10G23G 2G21G18G17G 6G16G15G29G26
  22562574.552    -8558271.98943  -6654504.70742  22562575.993    22562574.647
        50.000          44.000
  25173658.507    -5471443.05843  -4221389.54342  25173658.065    25173658.480
        44.000          37.000
  20665363.523    -2869195.23043  -2229184.26842  20665364.780    20665360.385
        56.000          49.000
  20850285.823    -6624758.82643  -5152634.86942  20850287.420    20850282.866
        56.000          50.000
  21095602.259     -418065.53243   -322918.18142  21095603.094    21095601.040
        55.000          48.000
  20829872.020     1364704.64843   1064311.38842  20829873.616    20829870.465
        56.000          50.000
  23295121.980    -3223121.26243  -2504676.18742  23295122.421    23295120.142
        48.000          41.000
  22185220.240    -7095117.66443  -5517750.64742  22185221.519    22185219.100
        51.000          44.000
  23222447.943      753309.67143    590073.68942  23222449.268    23222446.906
        48.000          42.000
  21499308.826    -3287000.92243  -2551839.81842  21499310.651    21499307.344
        53.000          46.000
 03  6 26 16 28  0.0000000  0 10G23G 2G21G18G17G 6G16G15G29G26
  22553479.683    -8606064.58943  -6691745.67842  22553481.250    22553479.745
        50.000          43.000
  25169471.485    -5493433.24443  -4238524.74542  25169473.184    25169474.619
        44.000          37.000
  20664318.655    -2874685.91043  -2233462.72742  20664319.675    20664315.570
        56.000          50.000
  20844847.968    -6653334.86043  -5174901.90842  20844849.327    20844845.287
        56.000          50.000
  21098073.332     -405080.06043   -312799.64342  21098074.124    21098071.720
        55.000          48.000
  20836701.978     1400596.71043   1092279.20042  20836703.532    20836700.508
        56.000          49.000
  23295439.279    -3221451.83543  -2503375.35842  23295439.445    23295436.523
        48.000          41.000
  22177391.980    -7136253.71143  -5549804.70042  22177392.955    22177391.273
        51.000          44.000
  23228583.106      785548.72343    615194.99842  23228585.147    23228581.880
        48.000          42.000
  21500114.988    -3282764.58643  -2548538.78142  21500116.840    21500113.820
        53.000          46.000
 03  6 26 16 28 20.0000000  0 10G23G 2G21G18G17G 6G16G15G29G26
  22544413.002    -8653710.96743  -6728872.71442  22544413.925    22544412.146
        50.000          43.000
  25165322.957    -5515239.03743  -4255516.28442  25165324.254    25165324.455
        43.000          37.000
  20663290.812    -2880086.48643  -2237670.97642  20663292.123    20663287.535
        56.000          49.000
  20839446.105    -6681721.44943  -5197021.32842  20839447.298    20839443.503
        56.000          49.000
  21100559.660     -392014.74843   -302618.89942  21100560.299    21100557.847
        55.000          48.000
  20843571.917     1436698.31643   1120410.29042  20843573.502    20843570.615
        56.000          49.000
  23295801.477    -3219546.71143  -2501890.85642  23295804.687    23295801.797
        48.000          41.000
  22169573.160    -7177343.67843  -5581822.85342  22169574.363    22169571.864
        51.000          45.000
  23234759.877      818008.10943    640487.99142  23234761.676    23234758.994
        48.000          42.000
  21500977.571    -3278231.25143  -2545006.31642  21500979.698    21500976.764
        53.000          46.000
 03  6 26 16 28 40.0000000  0 10G23G 2G21G18G17G 6G16G15G29G26
  22535373.140    -8701216.53843  -6765890.03242  22535373.986    22535372.513
        50.000          44.000
  25161206.702    -5536866.08743  -4272368.52942  25161208.708    25161209.375
        44.000          37.000
  20662279.375    -2885402.59843  -2241813.41042  20662280.718    20662276.288
        56.000          49.000
  20834079.344    -6709924.18243  -5218997.48242  20834080.844    20834076.571
        56.000          50.000
  21103060.024     -378875.54543   -292380.57542  21103060.705    21103058.529
        55.000          48.000
  20850480.611     1473003.45043   1148699.97742  20850482.131    20850479.042
        56.000          49.000
  23296208.120    -3217412.01843  -2500227.49042  23296209.283    23296206.483
        48.000          41.000
  22161762.093    -7218393.25343  -5613809.53442  22161761.754    22161759.981
        51.000          44.000
  23240977.135      850681.53443    665947.77142  23240978.737    23240976.328
        48.000          42.000
  21501895.644    -3273406.59743  -2541246.85342  21501897.663    21501894.405
        53.000          46.000
 03  6 26 16 29  0.0000000  0 10G23G 2G21G18G17G 6G16G15G29G26
  22526361.125    -8748574.42943  -6802792.27142  22526362.336    22526360.211
        50.000          44.000
  25157127.820    -5558307.52343  -4289076.14042  25157129.304    25157128.709
        44.000          37.000
  20661285.068    -2890627.53243  -2245884.79342  20661286.100    20661281.608
        56.000          50.000
  20828748.813    -6737936.33643  -5240825.13742  20828750.111    20828746.279
        56.000          50.000
  21105575.473     -365655.63643   -282079.36542  21105576.371    21105574.405
        55.000          48.000
  20857429.335     1509518.49843   1177153.23042  20857430.706    20857427.791
        56.000          49.000
  23296659.503    -3215041.38343  -2498380.25242  23296661.314    23296656.428
        48.000          41.000
  22153959.287    -7259395.50143  -5645759.33842  22153960.890    22153958.854
        52.000          44.000
  23247237.128      883575.29443    691579.25342  23247238.839    23247237.264
        48.000          42.000
  21502870.665    -3268283.94743  -2537255.18642  21502872.164    21502869.584
        53.000          46.000
 03  6 26 16 29 20.0000000  0 10G23G 2G21G18G17G 6G16G15G29G26
  22517376.096    -8795789.54843  -6839583.26242  22517377.252    22517375.943
        50.000          43.000
  25153082.131    -5579568.27743  -4305642.96742  25153082.724    25153082.014
        43.000          37.000
  20660307.238    -2895766.14943  -2249888.91742  20660308.374    20660304.094
        56.000          50.000
  20823453.600    -6765762.87243  -5262508.15042  20823454.816    20823450.817
        56.000          50.000
  21108105.749     -352359.48743   -271718.74342  21108106.554    21108103.861
        55.000          48.000
  20864416.868     1546238.12643   1205765.89642  20864418.104    20864415.420
        56.000          49.000
  23297154.150    -3212439.93743  -2496353.18242  23297155.705    23297152.333
        48.000          41.000
  22146164.620    -7300355.35643  -5677676.10042  22146164.899    22146163.641
        51.000          44.000
  23253537.583      916683.97043    717378.17842  23253539.202    23253537.156
        48.000          42.000
  21503901.323    -3262868.34543  -2533035.24442  21503902.624    21503900.380
        53.000          46.000
 03  6 26 16 29 40.0000000  0 10G23G 2G21G18G17G 6G16G15G29G26
  22508419.043    -8842860.31743  -6876261.77442  22508420.836    22508419.474
        50.000          44.000
  25149072.025    -5600646.95543  -4322067.90342  25149071.912    25149071.458
        43.000          37.000
  20659346.204    -2900816.95043  -2253824.61442  20659347.407    20659343.113
        56.000          50.000
  20818193.991    -6793402.40843  -5284045.45242  20818195.434    20818191.182
        56.000          50.000
  21110650.713     -338985.98543   -261297.84942  21110651.757    21110648.644
        55.000          48.000
  20871443.591     1583163.36343   1234538.77642  20871444.960    20871442.056
        56.000          49.000
  23297693.367    -3209606.75643  -2494145.52742  23297695.030    23297692.449
        48.000          41.000
  22138378.547    -7341271.43743  -5709558.76642  22138380.081    22138377.365
        51.000          44.000
  23259879.190      950008.27643    743345.14142  23259880.998    23259877.771
        49.000          42.000
  21504987.629    -3257158.33043  -2528585.89042  21504989.801    21504986.632
        53.000          46.000
 03  6 26 16 30  0.0000000  0 10G23G 2G21G18G17G 6G16G15G29G26
  22499490.049    -8889783.92443  -6912825.60642  22499491.011    22499488.413
        51.000          44.000
  25145095.496    -5621540.71743  -4338348.76442  25145097.354    25145097.746
        44.000          37.000
  20658402.243    -2905777.18443  -2257689.73942  20658403.371    20658398.777
        56.000          49.000
  20812970.449    -6820852.43843  -5305435.08842  20812971.873    20812968.046
        56.000          50.000
  21113210.840     -325532.14643   -250814.35642  21113211.780    21113209.161
        55.000          48.000
  20878509.641     1620296.46343   1263473.62742  20878511.057    20878508.415
        56.000          49.000
  23298276.935    -3206539.45243  -2491755.45542  23298278.519    23298273.730
        48.000          41.000
  22130601.358    -7382140.99443  -5741405.17042  22130603.035    22130600.378
        51.000          44.000
  23266261.937      983550.54743    769481.95842  23266264.116    23266260.736
        48.000          42.000
  21506131.147    -3251151.33543  -2523905.12042  21506132.598    21506130.137
        53.000          46.000
 03  6 26 16 30 20.0000000  0 10G23G 2G21G18G17G 6G16G15G29G26
  22490587.103    -8936568.89343  -6949281.42442  22490588.009    22490587.495
        51.000          44.000
  25141152.176    -5642258.25243  -4354492.30742  25141153.217    25141153.697
        43.000          37.000
  20657474.047    -2910655.68443  -2261491.17442  20657475.110    20657470.524
        56.000          50.000
  20807781.326    -6848121.68143  -5326683.84842  20807782.533    20807778.643
        56.000          50.000
  21115784.662     -312006.96343   -240275.26942  21115785.145    21115783.425
        55.000          48.000
  20885613.682     1657628.46143   1292563.46642  20885615.248    20885612.491
        56.000          49.000
  23298903.865    -3203247.06543  -2489189.98642  23298905.095    23298902.826
        48.000          41.000
  22122831.532    -7422972.69943  -5773222.08242  22122831.958    22122830.130
        51.000          45.000
  23272684.368     1017301.41443    795781.30142  23272686.396    23272684.147
        48.000          42.000
  21507328.731    -3244856.07243  -2518999.72942  21507330.436    21507328.108
        53.000          46.000
 03  6 26 16 30 40.0000000  0 10G23G 2G21G18G17G 6G16G15G29G26
  22481712.112    -8983206.09843  -6985622.09542  22481713.530    22481710.969
        51.000          44.000
  25137244.558    -5662790.29443  -4370491.28742  25137247.141    25137246.775
        43.000          37.000
  20656562.786    -2915443.11743  -2265221.65242  20656564.042    20656559.499
        56.000          50.000
  20802628.166    -6875201.23243  -5347784.80042  20802629.621    20802625.354
        56.000          50.000
  21118373.765     -298400.96143   -229673.20542  21118374.346    21118371.816
        55.000          48.000
  20892757.261     1695168.07043   1321815.08242  20892758.911    20892756.137
        56.000          49.000
  23299574.354    -3199720.81843  -2486442.28642  23299576.516    23299573.317
        48.000          41.000
  22115070.342    -7463757.51743  -5805002.45542  22115071.192    22115069.717
        51.000          45.000
  23279148.827     1051269.55543    822249.94342  23279149.626    23279148.189
        48.000          42.000
  21508583.345    -3238263.65843  -2513862.79442  21508586.009    21508582.311
        53.000          46.000
 03  6 26 16 31  0.0000000  0 10G23G 2G21G18G17G 6G16G15G29G26
  22472865.626    -9029694.70943  -7021846.97142  22472866.218    22472866.006
        51.000          44.000
  25133373.169    -5683136.32343  -4386345.34042  25133374.720    25133374.389
        44.000          37.000
  20655669.270    -2920138.72043  -2268880.56942  20655670.878    20655666.450
        56.000          49.000
  20797511.300    -6902090.23943  -5368737.27242  20797512.623    20797508.718
        56.000          50.000
  21120978.340     -284714.26343   -219008.25942  21120979.016    21120976.726
        55.000          48.000
  20899940.436     1732915.58543   1351228.70342  20899942.224    20899939.318
        56.000          49.000
  23300289.941    -3195960.36743  -2483512.09642  23300291.405    23300288.887
        47.000          41.000
  22107318.528    -7504494.61543  -5836745.64842  22107319.138    22107317.444
        52.000          45.000
  23285653.326     1085455.01143    848887.93042  23285655.443    23285652.873
        47.000          42.000
  21509894.565    -3231373.53543  -2508493.87242  21509896.351    21509893.417
        53.000          46.000
 03  6 26 16 31 20.0000000  0 10G23G 2G21G18G17G 6G16G15G29G26
  22464045.853    -9076041.46843  -7057961.31742  22464046.214    22464045.420
        51.000          44.000
  25129536.171    -5703302.99143  -4402059.63942  25129537.226    25129537.019
        44.000          37.000
  20654791.889    -2924749.38643  -2272473.30442  20654793.055    20654788.977
        56.000          50.000
  20792429.445    -6928795.77543  -5389546.78242  20792430.878    20792426.794
        56.000          50.000
  21123597.129     -270953.01543   -208285.22742  21123597.498    21123595.529
        55.000          48.000
  20907161.776     1770863.74643   1380798.66442  20907163.332    20907160.329
        56.000          49.000
  23301049.503    -3191972.95743  -2480405.05542  23301051.140    23301046.534
        48.000          41.000
  22099573.759    -7545190.91343  -5868457.04842  22099576.175    22099572.916
        52.000          44.000
  23292199.150     1119850.44643    875689.52842  23292200.616    23292196.285
        48.000          42.000
  21511261.014    -3224192.53043  -2502898.29142  21511262.552    21511259.926
        53.000          46.000
 03  6 26 16 31 40.0000000  0 10G23G 2G21G18G17G 6G16G15G29G26
  22455254.589    -9122241.26443  -7093961.15342  22455254.810    22455254.137
        51.000          44.000
  25125734.684    -5723285.31943  -4417630.28442  25125734.730    25125734.529
        44.000          37.000
  20653931.830    -2929270.01943  -2275995.88242  20653932.956    20653928.608
        56.000          50.000
  20787383.436    -6955312.92243  -5410209.49242  20787384.899    20787380.972
        56.000          50.000
  21126230.615     -257112.22843   -197500.21242  21126231.774    21126229.433
        55.000          48.000
  20914422.062     1809017.16643   1410528.57242  20914423.686    20914421.023
        56.000          49.000
  23301852.112    -3187754.05843  -2477117.62942  23301852.133    23301850.582
        48.000          41.000
  22091838.262    -7585841.39743  -5900132.75242  22091838.607    22091837.628
        52.000          44.000
  23298785.327     1154460.28843    902658.20742  23298786.244    23298785.658
        48.000          42.000
  21512683.856    -3216715.77443  -2497072.25642  21512685.683    21512681.852
        53.000          46.000
 03  6 26 16 32  0.0000000  0 10G23G 2G21G18G17G 6G16G15G29G26
  22446493.845    -9168278.82243  -7129834.56242  22446494.682    22446493.489
        51.000          44.000
  25121968.538    -5743068.10843  -4433045.44942  25121971.492    25121969.043
        43.000          37.000
  20653091.452    -2933685.47843  -2279436.51142  20653092.578    20653088.311
        56.000          50.000
  20782376.182    -6981626.54443  -5430713.61842  20782377.353    20782373.678
        56.000          50.000
  21128882.613     -243177.10743   -186641.69542  21128883.231    21128881.450
        55.000          48.000
  20921724.336     1847390.62543   1440429.93542  20921726.116    20921723.176
        56.000          49.000
  23302701.763    -3183288.76343  -2473638.21142  23302703.968    23302701.887
        48.000          41.000
  22084114.815    -7626430.87443  -5931760.91142  22084115.959    22084113.935
        51.000          45.000
  23305414.617     1189299.14043    929805.32842  23305416.014    23305415.127
        48.000          42.000
  21514165.547    -3208928.32543  -2491004.11542  21514167.525    21514164.938
        53.000          46.000
 03  6 26 16 32 20.0000000  0 10G23G 2G21G18G17G 6G16G15G29G26
  22437754.300    -9214204.60343  -7165620.87942  22437755.352    22437753.675
        51.000          44.000
  25118233.562    -5762701.95643  -4448344.57342  25118234.137    25118232.985
        44.000          37.000
  20652261.754    -2938046.10843  -2282834.41042  20652262.929    20652258.392
        56.000          49.000
  20777397.971    -7007787.33943  -5451098.64942  20777399.237    20777395.113
        56.000          50.000
  21131542.851     -229198.02343   -175748.91042  21131543.163    21131541.182
        55.000          48.000
  20929058.899     1885933.12943   1470463.02842  20929060.004    20929057.587
        56.000          49.000
  23303588.661    -3178628.01043  -2470006.47942  23303590.050    23303587.412
        48.000          41.000
  22076392.593    -7667010.05543  -5963381.04742  22076394.003    22076391.299
        52.000          45.000
  23312078.018     1224315.85443    957091.05342  23312079.552    23312075.978
        48.000          42.000
  21515697.072    -3200880.71143  -2484733.25142  21515699.233    21515695.943
        53.000          46.000
 03  6 26 16 32 40.0000000  0 10G23G 2G21G18G17G 6G16G15G29G26
  22429046.248    -9259966.72043  -7201279.65742  22429048.386    22429046.513
        51.000          44.000
  25114536.607    -5782134.98043  -4463487.19542  25114536.034    25114533.994
        44.000          37.000
  20651452.114    -2942300.19743  -2286149.29342  20651453.440    20651449.094
        56.000          50.000
  20772458.634    -7033743.44143  -5471324.18542  20772460.103    20772455.651
        56.000          50.000
  21134220.927     -215123.21243   -164781.54142  21134221.649    21134219.223
        55.000          48.000
  20936435.179     1924696.13843   1500667.93642  20936436.710    20936433.632
        56.000          49.000
  23304522.973    -3173720.49843  -2466182.47742  23304524.259    23304520.117
        48.000          41.000
  22068682.416    -7707526.97043  -5994952.66842  22068683.200    22068681.051
        52.000          45.000
  23318785.187     1259561.70543    984555.31442  23318786.522    23318784.461
        49.000          42.000
  21517287.941    -3192521.28543  -2478219.41942  21517289.814    21517287.233
        53.000          46.000
 03  6 26 16 33  0.0000000  0 10G23G 2G21G18G17G 6G16G15G29G26
  22420365.939    -9305581.83743  -7236823.89842  22420366.505    22420366.287
        51.000          44.000
  25110872.000    -5801383.92243  -4478486.38542  25110874.836    25110873.585
        45.000          37.000
  20650659.729    -2946464.52643  -2289394.23342  20650661.096    20650656.529
        56.000          50.000
  20767555.040    -7059511.84043  -5491403.45842  20767556.332    20767552.544
        56.000          50.000
  21136914.495     -200969.02143   -153752.31642  21136915.285    21136913.265
        55.000          48.000
  20943850.079     1963662.39743   1531031.22242  20943851.930    20943849.237
        56.000          49.000
  23305500.189    -3168583.27943  -2462179.47542  23305501.830    23305496.023
        48.000          41.000
  22060981.028    -7747998.40043  -6026488.84942  22060982.998    22060980.452
        52.000          45.000
  23325532.036     1295019.33843   1012184.60442  23325534.082    23325532.342
        48.000          42.000
  21518934.836    -3183867.00943  -2471475.83642  21518936.549    21518933.120
        53.000          46.000
 03  6 26 16 33 20.0000000  0 10G23G 2G21G18G17G 6G16G15G29G26
  22411714.118    -9351047.06543  -7272251.33942  22411715.043    22411714.368
        51.000          44.000
  25107243.805    -5820446.10343  -4493340.03342  25107245.022    25107244.749
        43.000          37.000
  20649885.164    -2950536.27343  -2292567.03542  20649886.210    20649881.869
        56.000          50.000
  20762687.804    -7085089.87343  -5511334.39742  20762689.154    20762684.885
        56.000          50.000
  21139623.641     -186732.87943   -142659.23442  21139624.823    21139622.175
        55.000          48.000
  20951304.315     2002834.26943   1561554.73142  20951306.278    20951303.307
        56.000          49.000
  23306522.207    -3163214.28643  -2457995.86842  23306522.568    23306522.169
        48.000          41.000
  22053288.755    -7788421.66843  -6057987.49142  22053289.406    22053287.306
        52.000          45.000
  23332320.524     1330690.87443   1039980.57442  23332322.156    23332319.817
        47.000          41.000
  21520637.996    -3174915.34143  -2464500.51342  21520639.699    21520637.732
        53.000          46.000
 03  6 26 16 33 40.0000000  0 10G23G 2G21G18G17G 6G16G15G29G26
  22403089.502    -9396370.63743  -7307568.39842  22403091.291    22403088.451
        51.000          44.000
  25103652.107    -5839329.78243  -4508054.58642  25103653.176    25103652.764
        45.000          37.000
  20649126.244    -2954523.62843  -2295674.07142  20649127.351    20649122.924
        56.000          50.000
  20757854.847    -7110486.03143  -5531123.61142  20757856.517    20757852.483
        56.000          50.000
  21142346.819     -172422.96743   -131508.66642  21142347.264    21142345.366
        55.000          48.000
  20958796.028     2042202.99943   1592231.63542  20958797.441    20958794.830
        56.000          49.000
  23307586.011    -3157621.99943  -2453638.26842  23307586.938    23307584.294
        48.000          41.000
  22045603.878    -7828805.05543  -6089455.07042  22045604.293    22045602.760
        52.000          45.000
  23339148.103     1366567.35243   1067936.23242  23339149.552    23339146.590
        47.000          41.000
  21522396.839    -3165674.64943  -2457299.98242  21522398.562    21522396.190
        53.000          46.000
 03  6 26 16 34  0.0000000  0 10G23G 2G21G18G17G 6G16G15G29G26
  22394493.223    -9441544.90743  -7342769.11842  22394494.730    22394492.590
        51.000          44.000
  25100092.510    -5858027.38443  -4522624.15842  25100093.818    25100094.907
        44.000          37.000
  20648384.917    -2958419.03843  -2298709.46742  20648386.183    20648381.643
        56.000          50.000
  20753058.329    -7135692.70543  -5550765.17342  20753059.676    20753055.722
        56.000          50.000
  21145085.190     -158031.64143   -120294.65942  21145085.724    21145083.728
        55.000          48.000
  20966326.401     2081775.76643   1623067.52442  20966328.299    20966325.524
        56.000          49.000
  23308694.242    -3151799.15843  -2449101.01942  23308695.144    23308691.688
        48.000          41.000
  22037928.785    -7869140.93843  -6120885.62142  22037929.741    22037926.953
        52.000          45.000
  23346015.577     1402655.77443   1096057.04642  23346016.456    23346014.150
        48.000          41.000
  21524211.716    -3156137.55743  -2449868.48742  21524213.376    21524210.805
        53.000          46.000
 03  6 26 16 34 20.0000000  0 10G23G 2G21G18G17G 6G16G15G29G26
  22385924.273    -9486573.43643  -7377856.27342  22385924.977    22385923.696
        51.000          44.000
  25096570.432    -5876542.55443  -4537051.58842  25096570.264    25096571.359
        43.000          37.000
  20647660.591    -2962226.18443  -2301676.08342  20647661.648    20647657.842
        56.000          50.000
  20748297.066    -7160713.78543  -5570262.12042  20748298.207    20748294.258
        56.000          50.000
  21147838.784     -143562.86743   -109020.30242  21147838.872    21147837.093
        55.000          48.000
  20973895.036     2121548.45843   1654059.19842  20973896.506    20973894.257
        56.000          49.000
  23309845.261    -3145749.90343  -2444387.34042  23309846.824    23309846.282
        48.000          41.000
  22030261.160    -7909432.97343  -6152282.01042  22030261.247    22030259.721
        52.000          45.000
  23352922.110     1438951.96443   1124339.76342  23352924.780    23352921.000
        48.000          42.000
  21526081.836    -3146308.00343  -2442209.10642  21526083.996    21526081.527
        53.000          46.000
 03  6 26 16 34 40.0000000  0 10G23G 2G21G18G17G 6G16G15G29G26
  22377383.729    -9531454.32343  -7412828.38642  22377385.701    22377384.216
        51.000          44.000
  25093080.421    -5894873.46243  -4551335.41742  25093082.701    25093083.920
        44.000          37.000
  20646953.144    -2965943.01343  -2304572.32442  20646954.306    20646950.261
        56.000          50.000
  20743571.319    -7185547.48943  -5589613.06142  20743572.563    20743568.317
        56.000          50.000
  21150607.393     -129014.47943    -97683.91042  21150607.796    21150605.666
        55.000          48.000
  20981501.873     2161522.54243   1685207.80042  20981503.570    20981500.869
        56.000          49.000
  23311039.708    -3139472.84743  -2439496.15042  23311042.161    23311038.604
        47.000          41.000
  22022602.681    -7949679.33943  -6183642.81642  22022603.559    22022601.460
        52.000          45.000
  23359869.431     1475457.25343   1152785.41342  23359871.728    23359868.814
        48.000          42.000
  21528008.690    -3136184.07943  -2434320.34142  21528010.200    21528007.719
        53.000          46.000
 03  6 26 16 35  0.0000000  0 10G23G 2G21G18G17G 6G16G15G29G26
  22368871.820    -9576186.18743  -7447684.37442  22368872.681    22368870.601
        51.000          44.000
  25089629.071    -5913018.78743  -4565474.63442  25089630.530    25089629.889
        44.000          37.000
  20646263.363    -2969568.25443  -2307397.19842  20646264.489    20646260.103
        56.000          50.000
  20738881.486    -7210192.66743  -5608817.09942  20738882.861    20738878.861
        56.000          50.000
  21153390.901     -114385.62443    -86284.81742  21153391.353    21153389.648
        55.000          48.000
  20989147.198     2201698.87143   1716513.99642  20989148.747    20989146.383
        56.000          49.000
  23312277.335    -3132967.22143  -2434426.85842  23312280.147    23312277.757
        47.000          41.000
  22014952.905    -7989878.58343  -6214966.90242  22014953.975    22014951.867
        52.000          45.000
  23366856.155     1512172.27943   1181394.50142  23366858.018    23366855.505
        48.000          41.000
  21529991.382    -3125764.78243  -2426201.41742  21529993.075    21529990.650
        53.000          46.000
 03  6 26 16 35 20.0000000  0 10G23G 2G21G18G17G 6G16G15G29G26
  22360387.222    -9620771.78643  -7482426.38542  22360389.399    22360386.777
        52.000          44.000
  25086210.674    -5930981.36843  -4579471.46042  25086209.881    25086209.783
        44.000          37.000
  20645590.322    -2973104.70543  -2310152.88442  20645591.597    20645587.529
        56.000          50.000
  20734227.014    -7234652.17343  -5627876.45442  20734228.200    20734224.188
        56.000          50.000
  21156189.640      -99678.41843    -74824.67042  21156190.370    21156187.738
        55.000          48.000
  20996830.419     2242074.17343   1747975.24142  20996831.909    20996829.076
        56.000          49.000
  23313558.923    -3126236.07343  -2429181.84242  23313559.251    23313557.035
        47.000          41.000
  22007311.980    -8030033.63943  -6246256.55142  22007311.616    22007310.484
        52.000          45.000
  23373881.772     1549093.61643   1210164.34342  23373882.274    23373881.895
        48.000          41.000
  21532029.607    -3115053.04143  -2417854.61742  21532031.463    21532029.225
        53.000          46.000
 03  6 26 16 35 40.0000000  0 10G23G 2G21G18G17G 6G16G15G29G26
  22351931.775    -9665207.14643  -7517051.34042  22351933.043    22351930.528
        51.000          44.000
  25082828.405    -5948757.31243  -4593322.86542  25082829.702    25082828.788
        45.000          37.000
  20644935.155    -2976548.37043  -2312836.27142  20644936.319    20644931.651
        56.000          50.000
  20729608.535    -7258922.31243  -5646788.25142  20729609.929    20729606.100
        56.000          50.000
  21159004.223      -84889.54143    -63300.88042  21159004.660    21159002.104
        55.000          48.000
  21004552.158     2282651.81743   1779594.15142  21004553.747    21004551.212
        56.000          49.000
  23314882.519    -3119276.09343  -2423758.49742  23314883.552    23314881.719
        47.000          41.000
  21999679.380    -8070140.60443  -6277508.73042  21999680.767    21999677.586
        51.000          45.000
  23380947.582     1586224.40643   1239097.38642  23380947.805    23380948.143
        47.000          42.000
  21534124.100    -3104045.17443  -2409277.06742  21534126.050    21534123.755
        53.000          46.000
 03  6 26 16 36  0.0000000  0 10G23G 2G21G18G17G 6G16G15G29G26
  22343503.385    -9709496.87643  -7551562.81042  22343505.360    22343503.367
        51.000          44.000
  25079478.686    -5966351.35343  -4607032.50442  25079481.217    25079480.508
        43.000          37.000
  20644296.538    -2979903.85443  -2315450.94242  20644297.681    20644293.107
        56.000          50.000
  20725025.241    -7283007.76143  -5665556.13242  20725026.527    20725022.578
        56.000          50.000
  21161832.990      -70022.94043    -51716.52942  21161833.556    21161831.313
        55.000          48.000
  21012311.494     2323426.75443   1811366.79242  21012312.978    21012309.954
        56.000          49.000
  23316250.416    -3112092.39343  -2418160.83142  23316251.791    23316249.670
        47.000          41.000
  21992055.818    -8110204.08043  -6308727.01942  21992056.943    21992054.007
        52.000          45.000
  23388051.765     1623559.62043   1268189.72342  23388053.747    23388051.890
        48.000          42.000
  21536274.578    -3092746.11443  -2400472.61642  21536276.486    21536273.908
        53.000          46.000
 03  6 26 16 36 20.0000000  0 10G23G 2G21G18G17G 6G16G15G29G26
  22335104.039    -9753636.71143  -7585957.47642  22335105.407    22335102.352
        52.000          44.000
  25076167.470    -5983759.18143  -4620597.05242  25076169.054    25076168.645
        45.000          37.000
  20643675.654    -2983166.89343  -2317993.58242  20643676.826    20643672.434
        56.000          50.000
  20720477.766    -7306904.46543  -5684176.94042  20720479.371    20720475.420
        56.000          50.000
  21164677.156      -55075.08243    -40068.86342  21164677.864    21164676.055
        55.000          48.000
  21020108.939     2364402.85143   1843296.18342  21020110.692    21020107.733
        56.000          49.000
  23317660.642    -3104681.09643  -2412385.81542  23317662.378    23317659.813
        48.000          41.000
  21984440.656    -8150219.74843  -6339908.05842  21984441.547    21984439.877
        52.000          45.000
  23395196.100     1661102.80943   1297444.12142  23395199.250    23395196.159
        48.000          41.000
  21538481.057    -3081151.88943  -2391438.16242  21538482.415    21538479.821
        53.000          46.000
 03  6 26 16 36 40.0000000  0 10G23G 2G21G18G17G 6G16G15G29G26
  22326732.379    -9797630.72443  -7620238.52542  22326733.604    22326731.850
        51.000          44.000
  25072888.449    -6000985.14743  -4634019.89842  25072891.602    25072889.311
        43.000          37.000
  20643071.532    -2986341.58943  -2320467.37642  20643072.558    20643068.570
        56.000          50.000
  20715965.533    -7330616.76343  -5702654.05242  20715966.864    20715963.009
        56.000          50.000
  21167536.434      -40050.28043    -28361.24042  21167537.135    21167535.218
        55.000          48.000
  21027943.931     2405575.37943   1875378.63942  21027945.802    21027942.602
        56.000          49.000
  23319113.550    -3097047.00843  -2406437.20242  23319115.076    23319112.525
        48.000          41.000
  21976834.405    -8190191.77743  -6371055.09142  21976835.263    21976833.041
        52.000          45.000
  23402379.561     1698849.14343   1326856.80742  23402380.226    23402379.231
        47.000          41.000
  21540742.356    -3069266.82843  -2382177.08642  21540743.473    21540741.835
        53.000          46.000
 03  6 26 16 37  0.0000000  0 10G23G 2G21G18G17G 6G16G15G29G26
  22318388.867    -9841476.12543  -7654403.75642  22318390.087    22318387.922
        51.000          44.000
  25069646.942    -6018026.43543  -4647298.83042  25069647.488    25069647.679
        45.000          37.000
  20642484.600    -2989425.15843  -2322870.16742  20642485.692    20642481.417
        56.000          50.000
  20711488.766    -7354142.15343  -5720985.52642  20711490.315    20711486.153
        56.000          50.000
  21170411.176      -24945.07943    -16590.96642  21170411.821    21170409.124
        55.000          48.000
  21035816.475     2446946.64743   1907615.95842  21035818.058    21035815.514
        56.000          49.000
  23320608.760    -3089187.63243  -2400313.03242  23320610.517    23320605.975
        48.000          41.000
  21969236.840    -8230117.35943  -6402165.92942  21969237.969    21969236.459
        52.000          45.000
  23409601.429     1736800.63743   1356429.36642  23409603.477    23409600.794
        48.000          41.000
  21543059.798    -3057088.40043  -2372687.41342  21543062.367    21543058.978
        53.000          46.000
 03  6 26 16 37 20.0000000  0 10G23G 2G21G18G17G 6G16G15G29G26
  22310073.419    -9885173.40943  -7688453.58042  22310074.341    22310073.191
        51.000          44.000
  25066439.396    -6034883.69043  -4660434.36542  25066440.890    25066438.682
        44.000          37.000
  20641915.083    -2992418.16143  -2325202.38842  20641916.485    20641911.752
        56.000          50.000
  20707047.491    -7377481.27943  -5739171.85842  20707048.840    20707044.785
        56.000          50.000
  21173300.514       -9760.03243     -4758.47342  21173301.340    21173298.547
        55.000          48.000
  21043726.766     2488515.69243   1940007.38542  21043728.542    21043725.750
        56.000          49.000
  23322147.480    -3081104.00943  -2394014.12242  23322148.007    23322145.846
        47.000          41.000
  21961647.887    -8269997.17743  -6433241.10342  21961648.932    21961646.935
        52.000          45.000
  23416862.326     1774956.25943   1386160.99442  23416863.121    23416861.673
        48.000          41.000
  21545433.237    -3044617.36443  -2362969.73542  21545435.240    21545432.514
        53.000          46.000
 03  6 26 16 37 40.0000000  0 10G23G 2G21G18G17G 6G16G15G29G26
  22301787.425    -9928716.95543  -7722383.60442  22301788.434    22301786.558
        51.000          44.000
  25063266.233    -6051551.36843  -4673422.17242  25063267.294    25063269.503
        44.000          37.000
  20641364.009    -2995314.89943  -2327459.59442  20641365.122    20641360.689
        56.000          50.000
  20702642.531    -7400628.70043  -5757208.81042  20702644.120    20702640.075
        56.000          50.000
  21176206.253        5510.35543      7140.51542  21176206.945    21176205.352
        55.000          48.000
  21051675.704     2530287.55743   1972556.85442  21051677.408    21051674.575
        56.000          49.000
  23323728.385    -3072791.10243  -2387536.54942  23323730.238    23323727.376
        47.000          41.000
  21954068.710    -8309825.60343  -6464276.23942  21954069.159    21954066.800
        52.000          45.000
  23424162.361     1813320.91843   1416055.49242  23424164.231    23424161.987
        48.000          41.000
  21547862.978    -3031848.44343  -2353019.94042  21547864.849    21547862.220
        53.000          46.000
 03  6 26 16 38  0.0000000  0 10G23G 2G21G18G17G 6G16G15G29G26
  22293529.061    -9972114.07543  -7756199.53742  22293530.320    22293529.169
        51.000          44.000
  25060129.815    -6068036.81243  -4686267.97642  25060130.847    25060131.817
        44.000          37.000
  20640829.701    -2998122.75443  -2329647.54242  20640830.790    20640826.670
        56.000          50.000
  20698272.821    -7423591.81143  -5775102.14342  20698274.315    20698270.182
        56.000          50.000
  21179127.200       20858.55843     19100.14042  21179127.932    21179125.986
        55.000          48.000
  21059661.914     2572254.46543   2005258.30742  21059663.563    21059661.042
        56.000          49.000
  23325353.261    -3064256.73043  -2380886.41642  23325354.859    23325351.108
        48.000          41.000
  21946498.126    -8349609.91143  -6495276.99442  21946498.808    21946496.828
        52.000          45.000
  23431501.419     1851886.64443   1446106.68042  23431502.745    23431500.440
        48.000          41.000
  21550347.935    -3018789.11843  -2342843.85242  21550349.899    21550347.274
        53.000          46.000
 03  6 26 16 38 20.0000000  0 10G23G 2G21G18G17G 6G16G15G29G26
  22285299.250   -10015362.49243  -7789899.59442  22285300.308    22285298.577
        51.000          44.000
  25057028.342    -6084337.94443  -4698970.16942  25057029.392    25057029.483
        43.000          37.000
  20640312.776    -3000839.55143  -2331764.53842  20640313.809    20640309.744
        56.000          50.000
  20693938.558    -7446368.63143  -5792850.31742  20693940.155    20693935.780
        56.000          50.000
  21182063.068       36286.47343     31121.87342  21182063.678    21182061.713
        55.000          48.000
  21067685.311     2614418.10043   2038113.04942  21067687.252    21067684.195
        56.000          49.000
  23327019.893    -3055499.16843  -2374062.35542  23327021.559    23327018.047
        48.000          41.000
  21938936.468    -8389347.88343  -6526241.64442  21938937.373    21938935.085
        52.000          45.000
  23438878.964     1890654.85443   1476315.64442  23438881.110    23438877.054
        48.000          41.000
  21552888.695    -3005437.47543  -2332439.98642  21552890.326    21552887.723
        53.000          46.000
 03  6 26 16 38 40.0000000  0 10G23G 2G21G18G17G 6G16G15G29G26
  22277097.320   -10058463.25043  -7823484.59142  22277098.595    22277097.227
        52.000          44.000
  25053960.852    -6100455.95843  -4711529.67742  25053961.217    25053962.940
        44.000          37.000
  20639812.820    -3003466.13243  -2333811.23142  20639813.866    20639809.811
        56.000          50.000
  20689639.633    -7468960.33043  -5810454.23642  20689640.760    20689637.307
        56.000          50.000
  21185013.880       51793.47043     43205.23842  21185014.956    21185011.986
        55.000          48.000
  21075746.043     2656776.87943   2071119.85742  21075747.680    21075745.166
        56.000          49.000
  23328728.557    -3046520.00343  -2367065.62642  23328730.218    23328726.295
        48.000          41.000
  21931382.867    -8429040.64143  -6557171.06342  21931383.109    21931382.109
        52.000          45.000
  23446294.442     1929624.06943   1506681.23642  23446296.351    23446293.798
        47.000          41.000
  21555484.948    -2991794.88343  -2321809.40542  21555486.851    21555483.795
        53.000          46.000
 03  6 26 16 39  0.0000000  0 10G23G 2G21G18G17G 6G16G15G29G26
  22268924.357   -10101413.16943  -7856952.05042  22268925.338    22268923.595
        52.000          44.000
  25050929.968    -6116387.63643  -4723943.96542  25050929.252    25050931.129
        44.000          37.000
  20639330.785    -3005999.36443  -2335785.18942  20639331.695    20639327.607
        56.000          50.000
  20685376.482    -7491363.93743  -5827911.59142  20685377.770    20685373.621
        56.000          50.000
  21187980.426       67382.90343     55352.83242  21187981.252    21187978.892
        54.000          48.000
  21083844.285     2699333.49743   2104280.82142  21083845.891    21083843.436
        56.000          49.000
  23330480.121    -3037316.56243  -2359894.13042  23330480.848    23330478.010
        48.000          41.000
  21923838.985    -8468684.92643  -6588062.71342  21923838.854    21923838.522
        52.000          45.000
  23453748.635     1968796.60643   1537205.26042  23453750.693    23453748.945
        48.000          41.000
  21558136.713    -2977858.43343  -2310949.84642  21558138.090    21558136.283
        53.000          46.000
 03  6 26 16 39 20.0000000  0 10G23G 2G21G18G17G 6G16G15G29G26
  22260779.854   -10144212.21043  -7890301.94242  22260781.506    22260778.907
        51.000          45.000
  25047932.770    -6132133.11443  -4736213.18742  25047933.884    25047933.416
        43.000          37.000
  20638866.473    -3008439.20843  -2337686.37442  20638867.612    20638863.467
        56.000          50.000
  20681148.725    -7513579.63643  -5845222.52642  20681150.264    20681146.116
        56.000          50.000
  21190962.850       83055.22343     67565.01542  21190963.579    21190961.296
        55.000          48.000
  21091980.103     2742087.52943   2137595.61742  21091981.817    21091979.482
        56.000          49.000
  23332273.420    -3027889.25843  -2352548.19942  23332275.056    23332270.862
        48.000          40.000
  21916303.874    -8508280.64343  -6618916.51842  21916304.921    21916302.897
        52.000          45.000
  23461241.639     2008171.97643   1567887.33742  23461242.913    23461240.133
        47.000          41.000
  21560844.506    -2963628.44743  -2299861.55742  21560846.464    21560844.635
        53.000          46.000
 03  6 26 16 39 40.0000000  0 10G23G 2G21G18G17G 6G16G15G29G26
  22252663.555   -10186863.26243  -7923536.51742  22252665.161    22252662.551
        52.000          45.000
  25044972.152    -6147695.31043  -4748339.58642  25044973.515    25044974.419
        44.000          37.000
  20638419.539    -3010788.59843  -2339517.07542  20638420.701    20638416.333
        56.000          50.000
  20676956.535    -7535610.44343  -5862389.38642  20676957.864    20676953.990
        56.000          50.000
  21193960.559       98807.87343     79839.79542  21193961.304    21193958.881
        55.000          48.000
  21100152.864     2785035.50443   2171061.53342  21100154.375    21100151.915
        56.000          49.000
  23334109.804    -3018241.58343  -2345030.55742  23334111.143    23334107.348
        47.000          41.000
  21908777.854    -8547830.81043  -6649734.82742  21908778.690    21908776.585
        52.000          45.000
  23468772.301     2047746.49143   1598724.57642  23468775.119    23468772.372
        47.000          41.000
  21563608.055    -2949108.02543  -2288546.95442  21563609.412    21563607.295
        53.000          46.000
 03  6 26 16 40  0.0000000  0 10G23G 2G21G18G17G 6G16G15G29G26
  22244576.099   -10229364.19043  -7956654.11542  22244577.465    22244575.942
        52.000          45.000
  25042045.348    -6163072.24243  -4760321.62042  25042045.487    25042045.273
        44.000          37.000
  20637990.014    -3013045.25543  -2341275.52342  20637991.095    20637987.101
        56.000          50.000
  20672799.728    -7557454.44843  -5879410.68942  20672801.063    20672797.293
        56.000          50.000
  21196973.601      114641.52543     92177.68742  21196974.109    21196972.230
        55.000          48.000
  21108362.908     2828179.06343   2204679.85142  21108364.337    21108362.147
        56.000          49.000
  23335988.096    -3008371.88543  -2337339.91942  23335990.033    23335986.181
        47.000          40.000
  21901260.824    -8587333.25443  -6680515.95142  21901261.425    21901259.892
        52.000          45.000
  23476341.442     2087521.63143   1629718.15342  23476343.544    23476341.216
        47.000          41.000
  21566426.734    -2934295.43043  -2277004.68342  21566428.537    21566426.229
        53.000          46.000
 03  6 26 16 40 20.0000000  0 10G23G 2G21G18G17G 6G16G15G29G26
  22236516.903   -10271714.75643  -7989654.54642  22236517.677    22236516.219
        52.000          45.000
  25039153.870    -6178263.71943  -4772159.13642  25039157.077    25039155.644
        45.000          37.000
  20637578.360    -3015208.86943  -2342961.46242  20637579.407    20637575.168
        56.000          50.000
  20668678.563    -7579111.45443  -5896286.27542  20668679.930    20668675.969
        56.000          50.000
  21200002.210      130556.88543    104579.25342  21200002.896    21200000.505
        55.000          48.000
  21116610.104     2871518.01243   2238450.42142  21116611.712    21116609.018
        56.000          49.000
  23337908.812    -2998280.37343  -2329476.41842  23337910.030    23337906.898
        47.000          40.000
  21893752.844    -8626787.59243  -6711259.58742  21893753.486    21893752.442
        52.000          45.000
  23483948.450     2127497.03643   1660867.77542  23483950.597    23483947.941
        47.000          41.000
  21569301.261    -2919190.54743  -2265234.65242  21569303.027    21569300.017
        53.000          46.000
 03  6 26 16 40 40.0000000  0 10G23G 2G21G18G17G 6G16G15G29G26
  22228486.563   -10313915.34343  -8022538.11042  22228488.122    22228485.203
        51.000          45.000
  25036298.324    -6193270.21843  -4783852.52242  25036299.799    25036298.815
        44.000          37.000
  20637184.273    -3017279.88643  -2344575.24842  20637185.382    20637180.890
        56.000          50.000
  20664592.843    -7600582.34243  -5913016.83542  20664594.227    20664590.159
        56.000          50.000
  21203045.931      146553.51043    117044.14442  21203047.102    21203044.805
        54.000          48.000
  21124894.227     2915051.31443   2272372.44242  21124895.742    21124893.311
        56.000          49.000
  23339870.215    -2987968.03443  -2321440.85642  23339872.804    23339869.834
        47.000          40.000
  21886254.037    -8666194.40743  -6741966.19342  21886255.059    21886252.634
        52.000          45.000
  23491593.431     2167671.69043   1692172.66142  23491595.384    23491592.733
        47.000          41.000
  21572231.034    -2903794.25843  -2253237.55642  21572232.908    21572229.868
        53.000          46.000
 03  6 26 16 41  0.0000000  0 10G23G 2G21G18G17G 6G16G15G29G26
  22220484.497   -10355965.56743  -8055304.51442  22220485.547    22220483.833
        52.000          45.000
  25033479.008    -6208091.40543  -4795401.51142  25033478.514    25033478.339
        45.000          37.000
  20636807.898    -3019257.90943  -2346116.57742  20636809.041    20636804.463
        56.000          50.000
  20660542.537    -7621866.67943  -5929602.03442  20660544.004    20660540.016
        56.000          50.000
  21206105.999      162632.09043    129572.88842  21206106.624    21206104.053
        55.000          48.000
  21133215.190     2958778.85943   2306445.81742  21133217.056    21133214.301
        56.000          49.000
  23341874.849    -2977435.08643  -2313233.39442  23341876.312    23341874.606
        47.000          40.000
  21878764.557    -8705553.07843  -6772635.28242  21878765.411    21878763.210
        52.000          45.000
  23499276.401     2208045.11943   1723632.44542  23499278.607    23499276.205
        47.000          41.000
  21575216.172    -2888106.41143  -2241013.27342  21575217.503    21575215.124
        53.000          46.000
 03  6 26 16 41 20.0000000  0 10G23G 2G21G18G17G 6G16G15G29G26
  22212511.813   -10397864.56243  -8087953.07542  22212513.313    22212510.142
        52.000          45.000
  25030692.485    -6222726.66443  -4806805.61342  25030693.101    25030694.756
        45.000          37.000
  20636449.279    -3021141.92743  -2347584.65142  20636450.435    20636446.035
        56.000          50.000
  20656527.878    -7642963.97143  -5946041.48442  20656529.335    20656525.356
        56.000          50.000
  21209181.296      178793.12643    142165.89042  21209181.921    21209179.501
        55.000          48.000
  21141573.420     3002700.95243   2340670.78542  21141575.047    21141572.424
        56.000          49.000
  23343921.005    -2966681.04943  -2304853.66442  23343923.152    23343920.375
        47.000          40.000
  21871284.077    -8744862.93043  -6803266.33542  21871285.103    21871283.605
        53.000          45.000
  23506996.820     2248617.57243   1755247.31142  23506997.438    23506997.162
        47.000          41.000
  21578257.412    -2872126.44943  -2228561.36342  21578258.627    21578256.321
        53.000          46.000
 03  6 26 16 41 40.0000000  0 10G23G 2G21G18G17G 6G16G15G29G26
  22204566.860   -10439614.50543  -8120485.49142  22204567.343    22204566.937
        52.000          45.000
  25027943.892    -6237178.05143  -4818066.45142  25027943.572    25027943.810
        44.000          38.000
  20636108.284    -3022934.08543  -2348981.15242  20636109.572    20636105.264
        56.000          50.000
  20652548.411    -7663876.37943  -5962336.86742  20652549.838    20652545.765
        56.000          50.000
  21212271.963      195034.65843    154821.61242  21212272.752    21212270.436
        55.000          48.000
  21149968.187     3046814.92843   2375045.27042  21149969.836    21149966.707
        56.000          49.000
  23346009.212    -2955708.69043  -2296303.79542  23346009.277    23346006.454
        47.000          40.000
  21863812.747    -8784126.06343  -6833860.98742  21863813.661    21863810.954
        53.000          45.000
  23514755.145     2289386.38943   1787015.18242  23514756.671    23514754.189
        47.000          41.000
  21581353.526    -2855856.94643  -2215883.84442  21581355.233    21581352.401
        53.000          46.000
 03  6 26 16 42  0.0000000  0 10G23G 2G21G18G17G 6G16G15G29G26
  22196650.776   -10481213.33343  -8152900.15442  22196652.259    22196650.371
        52.000          45.000
  25025229.090    -6251443.73843  -4829182.56842  25025229.291    25025229.639
        44.000          37.000
  20635785.096    -3024632.19943  -2350304.36842  20635786.513    20635782.300
        56.000          50.000
  20648604.381    -7684602.12943  -5978486.80042  20648605.799    20648601.807
        56.000          50.000
  21215378.324      211358.42843    167541.42142  21215379.010    21215376.906
        55.000          48.000
  21158399.384     3091122.30743   2409570.46442  21158401.016    21158398.370
        55.000          49.000
  23348138.762    -2944516.53643  -2287582.67442  23348140.306    23348138.533
        47.000          40.000
  21856350.391    -8823340.52243  -6864417.70742  21856351.254    21856349.191
        53.000          45.000
  23522550.962     2330352.71543   1818936.95242  23522551.903    23522550.985
        47.000          41.000
  21584504.776    -2839296.13243  -2202979.32642  21584506.755    21584504.116
        53.000          46.000
 03  6 26 16 42 20.0000000  0 10G23G 2G21G18G17G 6G16G15G29G26
  22188763.026   -10522663.16043  -8185198.71642  22188763.994    22188762.305
        52.000          45.000
  25022548.932    -6265525.96943  -4840155.74842  25022551.510    25022549.801
        45.000          37.000
  20635479.484    -3026238.60043  -2351556.12142  20635480.983    20635476.312
        56.000          50.000
  20644695.437    -7705143.44843  -5994493.02242  20644697.184    20644693.125
        56.000          50.000
  21218499.778      227762.72243    180323.97242  21218500.709    21218498.774
        55.000          48.000
  21166867.240     3135620.41943   2444244.28342  21166868.776    21166866.305
        56.000          49.000
  23350310.784    -2933107.32543  -2278692.41742  23350311.713    23350308.333
        47.000          40.000
  21848896.766    -8862508.32643  -6894938.07442  21848897.749    21848895.287
        53.000          45.000
  23530383.648     2371513.72843   1851010.43542  23530385.014    23530382.653
        47.000          41.000
  21587711.331    -2822446.54343  -2189849.78842  21587712.726    21587710.399
        53.000          46.000
 03  6 26 16 42 40.0000000  0 10G23G 2G21G18G17G 6G16G15G29G26
  22180904.508   -10563960.39343  -8217378.37742  22180905.702    22180904.301
        52.000          45.000
  25019906.241    -6279421.20743  -4850983.23142  25019906.959    25019904.788
        44.000          38.000
  20635191.989    -3027749.57843  -2352733.51542  20635193.066    20635188.909
        56.000          50.000
  20640822.118    -7725497.31543  -6010353.18042  20640823.600    20640819.582
        56.000          50.000
  21221637.524      244250.76843    193171.78142  21221638.003    21221635.843
        55.000          48.000
  21175371.765     3180312.40643   2479069.16742  21175373.179    21175370.436
        55.000          48.000
  23352523.838    -2921478.04543  -2269630.67342  23352525.534    23352522.582
        47.000          40.000
  21841452.951    -8901625.83943  -6925419.25442  21841454.335    21841451.404
        52.000          45.000
  23538253.913     2412872.45143   1883237.97242  23538255.710    23538252.354
        47.000          41.000
  21590973.024    -2805304.82543  -2176492.61942  21590974.843    21590972.118
        53.000          46.000
 03  6 26 16 43  0.0000000  0 10G23G 2G21G18G17G 6G16G15G29G26
  22173074.094   -10605108.65443  -8249441.95142  22173075.311    22173073.246
        52.000          45.000
  25017294.264    -6293133.20143  -4861667.90742  25017298.426    25017297.179
        44.000          37.000
  20634921.924    -3029168.47843  -2353839.16442  20634923.189    20634918.681
        56.000          50.000
  20636983.953    -7745667.38843  -6026070.12042  20636985.336    20636981.442
        56.000          50.000
  21224790.499      260819.71043    206082.63142  21224790.784    21224789.200
        54.000          48.000
  21183912.498     3225194.14143   2514041.91042  21183914.304    21183911.658
        55.000          48.000
  23354777.783    -2909632.61043  -2260400.49742  23354780.008    23354775.897
        47.000          40.000
  21834017.964    -8940696.71943  -6955864.09242  21834019.279    21834017.113
        53.000          46.000
  23546161.216     2454424.51643   1915616.17542  23546162.892    23546161.439
        47.000          41.000
  21594289.736    -2787874.96543  -2162910.91742  21594291.782    21594288.625
        53.000          46.000
 03  6 26 16 43 20.0000000  0 10G23G 2G21G18G17G 6G16G15G29G26
  22165273.428   -10646102.71843  -8281385.36442  22165275.086    22165272.453
        52.000          45.000
  25014722.160    -6306656.81043  -4872205.79242  25014722.865    25014722.708
        44.000          38.000
  20634670.503    -3030490.24043  -2354869.12242  20634671.635    20634667.719
        56.000          50.000
  20633181.638    -7765648.51343  -6041639.82842  20633183.115    20633178.918
        56.000          50.000
  21227959.840      277474.16543    219060.11642  21227960.669    21227957.897
        54.000          48.000
  21192490.333     3270270.39743   2549166.23142  21192492.061    21192489.450
        55.000          48.000
  23357073.227    -2897566.43343  -2250998.31342  23357074.942    23357072.569
        47.000          40.000
  21826593.307    -8979715.54043  -6986268.36842  21826593.594    21826591.602
        52.000          46.000
  23554105.618     2496174.52943   1948148.61342  23554108.601    23554106.406
        47.000          41.000
  21597662.461    -2770152.02943  -2149100.84642  21597664.501    21597660.897
        53.000          46.000
 03  6 26 16 43 40.0000000  0 10G23G 2G21G18G17G 6G16G15G29G26
  22157500.940   -10686947.78943  -8313212.68642  22157502.311    22157500.097
        52.000          45.000
  25012183.963    -6319997.49943  -4882601.15542  25012183.604    25012182.905
        44.000          38.000
  20634436.460    -3031720.06543  -2355827.44142  20634437.779    20634433.251
        56.000          50.000
  20629414.407    -7785446.23643  -6057066.62842  20629415.832    20629411.767
        56.000          50.000
  21231144.306      294209.63743    232100.73242  21231145.136    21231142.630
        54.000          48.000
  21201104.038     3315535.30143   2584437.54642  21201105.883    21201103.157
        55.000          48.000
  23359410.832    -2885285.37743  -2241428.68642  23359412.279    23359410.215
        47.000          40.000
  21819177.022    -9018687.43643  -7016636.07942  21819177.795    21819175.353
        52.000          45.000
  23562086.749     2538116.57843   1980830.68442  23562088.770    23562087.623
        47.000          41.000
  21601089.682    -2752141.62343  -2135066.78042  21601091.476    21601088.490
        53.000          46.000
 03  6 26 16 44  0.0000000  0 10G23G 2G21G18G17G 6G16G15G29G26
  22149756.820   -10727640.97843  -8344921.65642  22149758.327    22149756.331
        52.000          45.000
  25009680.713    -6333152.35843  -4892851.72042  25009680.775    25009679.905
        45.000          38.000
  20634220.525    -3032854.95543  -2356711.78342  20634221.894    20634217.334
        56.000          50.000
  20625682.258    -7805057.74743  -6072348.32842  20625683.606    20625679.882
        56.000          50.000
  21234344.761      311028.55343    245206.36642  21234345.753    21234343.019
        54.000          48.000
  21209754.144     3360991.20643   2619857.69442  21209755.382    21209752.988
        55.000          48.000
  23361789.264    -2872787.00443  -2231689.73142  23361791.186    23361786.654
        48.000          40.000
  21811770.082    -9057609.56143  -7046965.00242  21811771.757    21811768.313
        52.000          45.000
  23570104.950     2580252.90843   2013664.13842  23570107.661    23570105.011
        47.000          41.000
  21604572.176    -2733841.17943  -2120806.70442  21604574.335    21604571.329
        53.000          46.000
 03  6 26 16 44 20.0000000  0 10G23G 2G21G18G17G 6G16G15G29G26
  22142041.955   -10768184.23543  -8376513.79942  22142042.792    22142041.503
        52.000          45.000
  25007212.096    -6346123.49843  -4902959.10242  25007211.754    25007213.797
        44.000          38.000
  20634022.294    -3033896.69344  -2357523.53842  20634023.429    20634019.375
        57.000          50.000
  20621985.540    -7824485.14443  -6087486.56542  20621986.865    20621983.022
        56.000          50.000
  21237561.111      327928.80643    258375.37742  21237561.417    21237560.131
        54.000          48.000
  21218439.925     3406635.64843   2655424.75542  21218441.478    21218438.984
        55.000          48.000
  23364207.922    -2860073.83043  -2221783.39042  23364208.736    23364206.410
        47.000          41.000
  21804372.617    -9096483.83143  -7077256.63842  21804373.800    21804371.862
        52.000          45.000
  23578159.720     2622580.80243   2046646.87142  23578161.675    23578160.600
        47.000          41.000
  21608109.417    -2715253.00843  -2106322.42842  21608111.211    21608108.652
        53.000          46.000
 03  6 26 16 44 40.0000000  0 10G23G 2G21G18G17G 6G16G15G29G26
  22134356.313   -10808571.70543  -8407984.54342  22134357.796    22134356.128
        52.000          45.000
  25004779.880    -6358905.05943  -4912918.77642  25004782.193    25004781.206
        45.000          37.000
  20633842.933    -3034839.26543  -2358258.02342  20633844.272    20633839.938
        56.000          50.000
  20618324.802    -7843722.79543  -6102476.94542  20618326.011    20618321.990
        56.000          50.000
  21240793.512      344915.85943    271612.02542  21240794.266    21240792.146
        54.000          48.000
  21227162.633     3452474.07543   2691142.96942  21227163.949    21227162.054
        55.000          48.000
  23366668.780    -2847140.44143  -2211705.45942  23366669.580    23366668.467
        47.000          40.000
  21796985.371    -9135304.20443  -7107506.28242  21796986.665    21796984.598
        52.000          46.000
  23586252.393     2665105.54543   2079782.98842  23586254.430    23586252.415
        46.000          41.000
  21611702.279    -2696371.63343  -2091609.67642  21611704.362    21611701.529
        53.000          46.000
 03  6 26 16 45  0.0000000  0 10G23G 2G21G18G17G 6G16G15G29G26
  22126698.718   -10848812.84943  -8439341.26942  22126701.175    22126697.981
        52.000          45.000
  25002381.908    -6371506.61943  -4922738.20542  25002382.857    25002383.455
        44.000          37.000
  20633680.827    -3035692.03044  -2358922.53142  20633681.751    20633677.541
        57.000          50.000
  20614698.278    -7862780.35743  -6117326.99842  20614699.578    20614695.685
        56.000          50.000
  21244040.010      361977.14743    284906.51342  21244040.400    21244039.029
        54.000          48.000
  21235920.406     3498496.47243   2727004.53442  21235922.156    21235919.231
        55.000          48.000
  23369170.962    -2833996.87543  -2201463.75242  23369172.027    23369170.814
        48.000          41.000
  21789606.654    -9174080.13843  -7137721.29442  21789607.892    21789605.467
        52.000          46.000
  23594379.715     2707816.99043   2113064.59442  23594382.597    23594380.817
        47.000          41.000
  21615349.202    -2677206.79243  -2076676.05642  21615350.849    21615348.619
        53.000          46.000
 03  6 26 16 45 20.0000000  0 10G23G 2G21G18G17G 6G16G15G29G26
  22119069.991   -10888902.02543  -8470579.58442  22119071.385    22119069.427
        52.000          45.000
  25000018.757    -6383922.63943  -4932413.04942  25000019.674    25000020.554
        44.000          37.000
  20633536.556    -3036449.34043  -2359512.65542  20633537.864    20633533.487
        56.000          50.000
  20611106.992    -7881652.38543  -6132032.47942  20611108.574    20611104.518
        56.000          50.000
  21247302.905      379123.84943    298267.57042  21247303.452    21247301.473
        54.000          47.000
  21244714.222     3544707.87343   2763013.38142  21244715.713    21244713.556
        55.000          48.000
  23371712.813    -2820638.14343  -2191054.37942  23371713.838    23371711.999
        48.000          40.000
  21782237.676    -9212806.07043  -7167897.33842  21782238.714    21782236.268
        52.000          46.000
  23602544.560     2750719.96043   2146495.44242  23602546.743    23602545.099
        47.000          41.000
  21619051.235    -2657753.28643  -2061517.49542  21619053.325    21619050.170
        53.000          46.000
 03  6 26 16 45 40.0000000  0 10G23G 2G21G18G17G 6G16G15G29G26
  22111470.976   -10928835.06943  -8501696.23542  22111472.119    22111470.782
        52.000          45.000
  24997693.532    -6396149.06143  -4941940.14042  24997695.058    24997694.855
        45.000          37.000
  20633411.592    -3037107.00343  -2360025.13242  20633412.642    20633408.591
        56.000          50.000
  20607551.874    -7900334.89743  -6146590.28042  20607553.278    20607549.527
        56.000          50.000
  21250583.694      396363.62243    311701.14542  21250583.943    21250582.046
        54.000          47.000
  21253544.769     3591111.88143   2799172.31142  21253546.247    21253543.797
        55.000          48.000
  23374295.965    -2807060.57643  -2180474.50042  23374298.326    23374294.873
        47.000          40.000
  21774878.414    -9251477.66643  -7198031.05142  21774878.467    21774877.296
        53.000          46.000
  23610746.125     2793818.05143   2180078.33542  23610747.061    23610744.548
        47.000          41.000
  21622808.671    -2638007.29843  -2046131.02342  21622810.763    21622807.614
        53.000          46.000
 03  6 26 16 46  0.0000000  0 10G23G 2G21G18G17G 6G16G15G29G26
  22103900.140   -10968620.46343  -8532697.83242  22103901.355    22103899.053
        52.000          45.000
  24995401.232    -6408194.49243  -4951326.21942  24995402.180    24995400.268
        44.000          37.000
  20633303.788    -3037673.36943  -2360466.46742  20633305.034    20633300.542
        56.000          50.000
  20604031.190    -7918836.61843  -6161007.20742  20604032.627    20604028.701
        56.000          50.000
  21253879.436      413683.10543    325196.82642  21253879.960    21253878.309
        54.000          48.000
  21262410.106     3637699.55743   2835474.35942  21262411.570    21262409.392
        55.000          48.000
  23376920.645    -2793273.22843  -2169731.12842  23376920.400    23376920.338
        47.000          40.000
  21767528.134    -9290103.44143  -7228129.05742  21767528.930    21767527.658
        53.000          46.000
  23618982.580     2837102.03143   2213806.08142  23618984.588    23618982.111
        47.000          41.000
  21626620.613    -2617977.66143  -2030523.52342  21626622.384    21626618.993
        53.000          46.000
 03  6 26 16 46 20.0000000  0 10G23G 2G21G18G17G 6G16G15G29G26
  22096358.345   -11008253.54043  -8563580.74442  22096359.782    22096357.809
        52.000          45.000
  24993143.565    -6420054.40143  -4960567.73142  24993144.940    24993145.149
        44.000          37.000
  20633214.237    -3038143.77043  -2360833.02542  20633215.482    20633210.830
        56.000          50.000
  20600545.538    -7937153.15343  -6175279.83642  20600547.135    20600542.852
        56.000          50.000
  21257191.341      431085.49843    338757.10942  21257192.105    21257189.706
        54.000          48.000
  21271311.238     3684474.98443   2871922.70342  21271312.631    21271310.392
        55.000          48.000
  23379583.800    -2779272.02743  -2158821.13942  23379586.233    23379583.777
        47.000          40.000
  21760187.610    -9328678.67543  -7258187.68042  21760188.816    21760186.497
        53.000          46.000
  23627255.419     2880575.92243   2247681.80642  23627256.135    23627253.736
        46.000          40.000
  21630486.587    -2597660.09343  -2014691.66442  21630488.360    21630485.411
        53.000          46.000
 03  6 26 16 46 40.0000000  0 10G23G 2G21G18G17G 6G16G15G29G26
  22088845.613   -11047733.59843  -8594344.41842  22088846.862    22088844.928
        52.000          45.000
  24990921.669    -6431728.23543  -4969664.23642  24990922.908    24990921.515
        44.000          37.000
  20633143.205    -3038517.53143  -2361124.27842  20633144.593    20633139.948
        56.000          50.000
  20597095.463    -7955283.68543  -6189407.52442  20597096.919    20597092.881
        56.000          50.000
  21260518.830      448572.46443    352383.30042  21260519.100    21260516.787
        54.000          48.000
  21280247.924     3731438.36443   2908517.50442  21280249.607    21280247.113
        55.000          48.000
  23382289.845    -2765056.75643  -2147744.33442  23382290.819    23382289.087
        47.000          40.000
  21752856.965    -9367202.41943  -7288206.18442  21752857.743    21752855.781
        53.000          46.000
  23635563.753     2924239.77743   2281705.54242  23635566.135    23635564.312
        46.000          40.000
  21634407.759    -2577054.20343  -1998635.14042  21634409.764    21634406.424
        53.000          46.000
 03  6 26 16 47  0.0000000  0 10G23G 2G21G18G17G 6G16G15G29G26
  22081361.684   -11087061.35743  -8624989.42142  22081363.162    22081361.008
        52.000          45.000
  24988737.300    -6443216.89243  -4978616.46542  24988736.836    24988735.301
        46.000          37.000
  20633090.312    -3038795.19143  -2361340.65142  20633091.419    20633087.267
        56.000          50.000
  20593680.656    -7973229.50543  -6203391.28342  20593681.919    20593677.819
        56.000          50.000
  21263862.235      466143.50443    366075.00242  21263863.422    21263861.068
        54.000          47.000
  21289220.272     3778588.33443   2945257.70242  21289222.417    21289219.627
        55.000          48.000
  23385035.610    -2750628.77143  -2136501.78442  23385036.036    23385033.608
        47.000          40.000
  21745535.717    -9405675.49443  -7318185.19842  21745537.012    21745534.446
        53.000          46.000
  23643909.048     2968092.15643   2315876.18842  23643910.444    23643909.770
        46.000          41.000
  21638383.389    -2556161.29843  -1982354.97042  21638385.444    21638382.765
        53.000          46.000
 03  6 26 16 47 20.0000000  0 10G23G 2G21G18G17G 6G16G15G29G26
  22073906.417   -11126238.83343  -8655517.32342  22073907.667    22073905.489
        52.000          45.000
  24986583.698    -6454522.48643  -4987426.04542  24986584.880    24986584.917
        44.000          37.000
  20633055.306    -3038978.55243  -2361483.54442  20633056.482    20633052.367
        56.000          50.000
  20590300.215    -7990992.64843  -6217232.69742  20590301.938    20590297.625
        56.000          50.000
  21267221.726      483796.71143    379830.72542  21267222.426    21267220.509
        54.000          47.000
  21298227.686     3825922.39743   2982141.34742  21298229.165    21298227.236
        55.000          48.000
  23387821.325    -2735990.68743  -2125095.52542  23387822.178    23387818.430
        47.000          40.000
  21738223.799    -9444099.77543  -7348126.20142  21738225.228    21738223.456
        53.000          46.000
  23652289.326     3012130.29143   2350191.56142  23652290.761    23652289.110
        47.000          41.000
  21642413.809    -2534983.73543  -1965852.98942  21642415.933    21642413.118
        53.000          46.000
 03  6 26 16 47 40.0000000  0 10G23G 2G21G18G17G 6G16G15G29G26
  22066480.943   -11165259.85543  -8685923.29942  22066482.539    22066479.903
        52.000          45.000
  24984468.940    -6465638.92243  -4996088.21542  24984470.275    24984468.623
        43.000          37.000
  20633039.676    -3039061.31543  -2361548.04742  20633040.852    20633036.381
        56.000          50.000
  20586955.968    -8008567.27143  -6230927.20942  20586957.736    20586953.567
        56.000          50.000
  21270598.168      501538.71943    393655.64942  21270598.699    21270596.381
        54.000          47.000
  21307271.110     3873446.25343   3019172.88342  21307272.562    21307270.402
        55.000          48.000
  23390647.223    -2721136.86843  -2113521.15142  23390647.617    23390647.195
        47.000          40.000
  21730922.414    -9482468.95043  -7378024.25742  21730923.224    21730920.661
        53.000          46.000
  23660706.114     3056359.69443   2384655.99242  23660708.663    23660706.518
        47.000          41.000
  21646498.867    -2513515.68843  -1949124.66042  21646500.770    21646498.718
        53.000          46.000
 03  6 26 16 48  0.0000000  0 10G23G 2G21G18G17G 6G16G15G29G26
  22059083.416   -11204132.99543  -8716214.04942  22059085.556    22059082.881
        52.000          45.000
  24982388.930    -6476574.88343  -5004609.77142  24982389.773    24982387.631
        45.000          38.000
  20633041.467    -3039051.91343  -2361540.73442  20633042.604    20633038.380
        56.000          50.000
  20583645.874    -8025961.96443  -6244481.51942  20583647.357    20583643.182
        56.000          50.000
  21273989.458      519360.86043    407543.01942  21273990.364    21273988.215
        54.000          47.000
  21316349.231     3921150.89443   3056345.28842  21316350.617    21316348.637
        55.000          48.000
  23393513.090    -2706076.41643  -2101785.75642  23393515.369    23393511.819
        47.000          40.000
  21723629.679    -9520791.39243  -7407885.90042  21723630.537    21723628.458
        53.000          46.000
  23669157.409     3100771.19543   2419262.31842  23669160.322    23669156.394
        47.000          41.000
  21650637.837    -2491765.98143  -1932176.85542  21650639.545    21650637.320
        53.000          46.000
 03  6 26 16 48 20.0000000  0 10G23G 2G21G18G17G 6G16G15G29G26
  22051715.610   -11242851.85643  -8746384.58142  22051717.363    22051715.438
        52.000          45.000
  24980342.959    -6487324.19943  -5012985.86742  24980344.224    24980343.851
        45.000          37.000
  20633062.091    -3038943.98843  -2361456.65042  20633062.961    20633058.905
        56.000          50.000
  20580371.067    -8043170.51543  -6257890.78442  20580372.566    20580368.445
        56.000          50.000
  21277397.339      537269.61543    421497.86842  21277397.850    21277395.918
        54.000          47.000
  21325462.719     3969042.03643   3093663.02342  21325464.441    21325461.797
        55.000          48.000
  23396419.856    -2690803.63743  -2089884.93842  23396421.368    23396418.164
        47.000          40.000
  21716347.590    -9559060.77943  -7437706.20042  21716348.487    21716346.092
        53.000          46.000
  23677644.280     3145370.57643   2454015.04042  23677645.454    23677644.230
        47.000          41.000
  21654831.214    -2469728.75743  -1915005.00342  21654833.306    21654829.946
        53.000          46.000
 03  6 26 16 48 40.0000000  0 10G23G 2G21G18G17G 6G16G15G29G26
  22044376.464   -11281419.87043  -8776437.57242  22044377.771    22044375.472
        52.000          45.000
  24978331.499    -6497890.36643  -5021219.26342  24978332.107    24978331.130
        44.000          37.000
  20633100.673    -3038740.87743  -2361298.39442  20633101.842    20633097.654
        56.000          50.000
  20577131.282    -8060196.68043  -6271157.93242  20577132.779    20577128.514
        56.000          50.000
  21280821.057      555261.71543    435517.66642  21280821.821    21280819.979
        54.000          47.000
  21334610.920     4017115.69943   3131122.97842  21334612.331    21334609.822
        55.000          48.000
  23399365.796    -2675322.30343  -2077821.59642  23399366.773    23399364.405
        47.000          40.000
  21709074.265    -9597280.41843  -7467487.73142  21709075.412    21709073.194
        53.000          46.000
  23686166.293     3190153.43343   2488910.73442  23686168.281    23686165.551
        46.000          41.000
  21659078.785    -2447407.88043  -1897612.12642  21659080.874    21659077.949
        53.000          46.000
 03  6 26 16 49  0.0000000  0 10G23G 2G21G18G17G 6G16G15G29G26
  22037066.218   -11319834.80643  -8806371.27842  22037067.317    22037065.253
        52.000          45.000
  24976356.124    -6508271.22643  -5029308.28042  24976358.475    24976357.229
        44.000          37.000
  20633157.865    -3038440.43944  -2361064.30342  20633159.041    20633154.721
        57.000          50.000
  20573926.393    -8077038.20043  -6284281.19342  20573927.919    20573923.830
        56.000          50.000
  21284261.401      573339.79243    449604.45942  21284261.916    21284260.195
        54.000          47.000
  21343793.988     4065373.62643   3168726.50942  21343795.484    21343793.281
        55.000          48.000
  23402351.774    -2659630.76343  -2065594.47142  23402353.930    23402350.685
        47.000          40.000
  21701811.541    -9635447.80743  -7497228.55342  21701812.236    21701810.267
        53.000          46.000
  23694723.223     3235121.52743   2523950.77242  23694725.869    23694723.131
        46.000          40.000
  21663380.537    -2424801.33943  -1879996.65742  21663382.546    21663379.998
        53.000          46.000
 03  6 26 16 49 20.0000000  0 10G23G 2G21G18G17G 6G16G15G29G26
  22029785.647   -11358094.03143  -8836183.65442  22029786.383    22029784.287
        52.000          45.000
  24974417.529    -6518464.31443  -5037250.96542  24974417.993    24974418.081
        44.000          38.000
  20633234.225    -3038039.34043  -2360751.77442  20633235.548    20633231.194
        56.000          50.000
  20570757.072    -8093692.86943  -6297258.86142  20570758.654    20570754.477
        56.000          50.000
  21287718.309      591505.96743    463759.90242  21287719.419    21287716.742
        54.000          47.000
  21353012.814     4113817.98943   3206475.32042  21353014.159    21353012.203
        55.000          48.000
  23405378.449    -2643727.08843  -2053202.03642  23405379.361    23405377.859
        47.000          40.000
  21694558.774    -9673560.29643  -7526926.59342  21694559.961    21694557.784
        53.000          46.000
  23703315.742     3280276.88643   2559136.72142  23703317.752    23703316.009
        46.000          40.000
  21667737.486    -2401906.94543  -1862156.88442  21667739.146    21667736.511
        53.000          46.000
 03  6 26 16 49 40.0000000  0 10G23G 2G21G18G17G 6G16G15G29G26
  22022533.648   -11396203.55443  -8865879.37742  22022534.696    22022533.606
        52.000          45.000
  24972510.836    -6528475.78743  -5045052.12042  24972514.020    24972513.367
        44.000          38.000
  20633328.482    -3037543.76844  -2360365.62642  20633329.769    20633325.332
        57.000          50.000
  20567622.230    -8110166.76143  -6310095.66342  20567623.641    20567619.590
        56.000          50.000
  21291191.092      609754.84843    477979.79442  21291191.215    21291189.250
        54.000          47.000
  21362265.629     4162442.24143   3244364.30442  21362267.194    21362264.890
        55.000          48.000
  23408443.894    -2627617.79943  -2040649.36642  23408444.235    23408441.861
        47.000          40.000
  21687315.242    -9711623.87443  -7556586.51942  21687316.586    21687314.390
        53.000          46.000
  23711943.044     3325612.79143   2594463.35842  23711946.356    23711943.237
        46.000          40.000
  21672147.600    -2378731.07943  -1844097.78842  21672149.840    21672146.882
        53.000          46.000
 03  6 26 16 50  0.0000000  0 10G23G 2G21G18G17G 6G16G15G29G26
  22015310.733   -11434159.88343  -8895455.73242  22015311.974    22015310.682
        52.000          45.000
  24970641.571    -6538302.22943  -5052709.10242  24970643.123    24970642.855
        44.000          38.000
  20633441.497    -3036950.08343  -2359903.03042  20633442.625    20633438.610
        56.000          50.000
  20564522.402    -8126456.61043  -6322789.05442  20564523.898    20564519.904
        56.000          50.000
  21294679.994      628089.49243    492266.51242  21294680.421    21294678.316
        54.000          47.000
  21371553.360     4211249.27643   3282395.71742  21371554.727    21371553.055
        55.000          48.000
  23411549.710    -2611299.97743  -2027934.21542  23411550.331    23411548.510
        48.000          40.000
  21680082.220    -9749634.98043  -7586205.56342  21680083.570    21680081.132
        53.000          46.000
  23720605.432     3371131.93443   2629932.78542  23720606.362    23720604.393
        46.000          40.000
  21676611.795    -2355270.76443  -1825817.04242  21676613.907    21676611.170
        53.000          46.000
 03  6 26 16 50 20.0000000  0 10G23G 2G21G18G17G 6G16G15G29G26
  22008116.888   -11471964.27943  -8924913.69342  22008117.838    22008116.930
        53.000          45.000
  24968807.821    -6547944.88743  -5060222.88542  24968807.188    24968808.112
        45.000          38.000
  20633572.852    -3036259.49443  -2359364.92342  20633574.136    20633569.802
        56.000          50.000
  20561457.320    -8142563.97143  -6335340.24942  20561458.721    20561454.616
        56.000          50.000
  21298185.089      646509.25543    506619.55442  21298185.450    21298183.355
        54.000          47.000
  21380875.599     4260237.24343   3320568.11142  21380877.074    21380874.841
        55.000          48.000
  23414693.174    -2594775.50943  -2015058.04542  23414694.793    23414693.490
        47.000          40.000
  21672858.699    -9787594.81843  -7615784.65242  21672859.710    21672857.846
        53.000          46.000
  23729301.886     3416832.47343   2665543.56242  23729303.671    23729300.735
        47.000          40.000
  21681130.343    -2331527.68143  -1807315.95342  21681131.815    21681128.776
        52.000          46.000
 03  6 26 16 50 40.0000000  0 10G23G 2G21G18G17G 6G16G15G29G26
  22000952.184   -11509616.04343  -8954252.72442  22000953.265    22000951.550
        52.000          45.000
  24967006.834    -6557403.34443  -5067593.13242  24967007.873    24967009.135
        44.000          38.000
  20633722.967    -3035471.38443  -2358750.82642  20633724.005    20633719.700
        56.000          50.000
  20558426.908    -8158488.48343  -6347748.96342  20558428.179    20558424.314
        56.000          50.000
  21301706.540      665014.74443    521039.39642  21301707.107    21301704.986
        54.000          47.000
  21390232.048     4309406.34143   3358881.64542  21390233.889    21390231.427
        55.000          48.000
  23417877.914    -2578044.28343  -2002020.76742  23417877.876    23417874.466
        48.000          40.000
  21665645.105    -9825502.56943  -7645323.15942  21665645.809    21665644.331
        53.000          46.000
  23738032.763     3462714.25643   2701295.56942  23738034.689    23738031.680
        47.000          40.000
  21685702.016    -2307501.57143  -1788594.32742  21685703.585    21685701.321
        53.000          45.000
 03  6 26 16 51  0.0000000  0 10G23G 2G21G18G17G 6G16G15G29G26
  21993817.050   -11547112.37143  -8983470.63042  21993817.849    21993815.734
        53.000          45.000
  24965243.081    -6566674.87643  -5074817.70342  24965244.254    24965244.004
        44.000          38.000
  20633892.008    -3034582.52843  -2358058.22442  20633893.346    20633889.100
        56.000          50.000
  20555431.831    -8174227.30243  -6360012.98342  20555433.350    20555429.388
        56.000          50.000
  21305245.067      683608.89743    535528.32442  21305245.720    21305243.452
        54.000          47.000
  21399623.540     4358758.82443   3397338.08042  21399625.126    21399622.703
        55.000          48.000
  23421101.125    -2561104.05743  -1988820.62342  23421101.991    23421099.371
        47.000          40.000
  21658442.136    -9863355.10343  -7674818.64142  21658442.984    21658440.928
        54.000          46.000
  23746798.350     3508779.54143   2737190.55742  23746801.184    23746799.825
        46.000          40.000
  21690328.512    -2283190.01143  -1769650.27342  21690330.382    21690327.647
        53.000          46.000
 03  6 26 16 51 20.0000000  0 10G23G 2G21G18G17G 6G16G15G29G26
  21986709.502   -11584460.50543  -9012573.06542  21986711.167    21986708.960
        53.000          45.000
  24963512.897    -6575766.84943  -5081902.38342  24963513.385    24963516.016
        45.000          38.000
  20634078.873    -3033600.01643  -2357292.64542  20634080.354    20634076.034
        56.000          50.000
  20552470.847    -8189787.83343  -6372138.07442  20552472.168    20552468.237
        56.000          50.000
  21308798.868      702284.42343    550080.66742  21308799.990    21308797.406
        54.000          47.000
  21409048.489     4408286.89143   3435931.33742  21409050.468    21409047.481
        54.000          48.000
  23424362.742    -2543962.48243  -1975463.59342  23424365.027    23424361.853
        47.000          40.000
  21651248.151    -9901159.49143  -7704276.60942  21651249.107    21651246.809
        53.000          46.000
  23755598.351     3555020.44643   2773222.38942  23755599.335    23755597.960
        46.000          40.000
  21695007.689    -2258600.63643  -1750489.73942  21695009.330    21695006.213
        52.000          46.000
 03  6 26 16 51 40.0000000  0 10G23G 2G21G18G17G 6G16G15G29G26
  21979632.540   -11621651.08543  -9041552.73142  21979633.783    21979631.306
        52.000          45.000
  24961817.646    -6584670.02543  -5088839.92642  24961819.285    24961820.238
        44.000          38.000
  20634285.739    -3032514.27943  -2356446.63142  20634286.890    20634282.742
        56.000          50.000
  20549545.540    -8205160.83643  -6384117.03942  20549546.995    20549542.904
        56.000          50.000
  21312369.884      721050.96143    564703.92442  21312370.563    21312368.403
        54.000          47.000
  21418508.539     4457999.50543   3474668.39442  21418510.282    21418507.814
        54.000          48.000
  23427665.492    -2526610.84443  -1961942.88942  23427665.807    23427662.569
        47.000          40.000
  21644065.157    -9938906.16143  -7733689.59642  21644066.019    21644064.342
        53.000          46.000
  23764432.482     3601445.69743   2809397.86242  23764433.961    23764432.649
        46.000          40.000
  21699741.589    -2233724.38243  -1731105.65842  21699743.691    21699740.518
        53.000          46.000
 03  6 26 16 52  0.0000000  0 10G23G 2G21G18G17G 6G16G15G29G26
  21972583.923   -11658692.43243  -9070416.10742  21972584.887    21972583.295
        53.000          45.000
  24960159.091    -6593392.85543  -5095636.96142  24960158.564    24960159.833
        45.000          37.000
  20634510.497    -3031333.52143  -2355526.57342  20634511.363    20634507.042
        56.000          50.000
  20546654.137    -8220354.97043  -6395956.62842  20546655.426    20546651.487
        56.000          50.000
  21315956.774      739900.47543    579391.83542  21315957.385    21315955.022
        54.000          47.000
  21428002.048     4507887.88143   3513542.40742  21428003.397    21428001.389
        54.000          48.000
  23431004.599    -2509057.96343  -1948265.34542  23431006.094    23431003.762
        47.000          40.000
  21636891.574    -9976603.35543  -7763064.03342  21636892.404    21636890.583
        53.000          46.000
  23773300.281     3648046.46943   2845710.12042  23773301.829    23773300.443
        46.000          40.000
  21704528.140    -2208570.00143  -1711504.86242  21704530.007    21704527.460
        53.000          46.000
 03  6 26 16 52 20.0000000  0 10G23G 2G21G18G17G 6G16G15G29G26
  21965564.983   -11695577.04843  -9099157.35542  21965566.505    21965564.290
        53.000          45.000
  24958533.651    -6601927.95743  -5102287.70442  24958535.840    24958536.137
        44.000          38.000
  20634754.526    -3030050.34943  -2354526.71442  20634755.864    20634751.374
        56.000          50.000
  20543798.410    -8235362.78743  -6407651.03642  20543799.791    20543795.540
        56.000          50.000
  21319561.164      758840.36443    594150.17242  21319561.851    21319559.884
        54.000          47.000
  21437530.253     4557958.86743   3552558.71242  21437531.909    21437529.117
        55.000          48.000
  23434385.473    -2491297.15143  -1934425.78842  23434385.374    23434382.878
        47.000          40.000
  21629729.086   -10014243.54443  -7792394.04842  21629729.960    21629727.869
        54.000          46.000
  23782202.960     3694829.17343   2882164.14742  23782205.156    23782203.593
        46.000          40.000
  21709369.251    -2183130.65043  -1691682.00542  21709371.721    21709368.149
        53.000          45.000
 03  6 26 16 52 40.0000000  0 10G23G 2G21G18G17G 6G16G15G29G26
  21958574.431   -11732311.63143  -9127781.69842  21958575.610    21958573.997
        52.000          45.000
  24956944.198    -6610282.26243  -5108797.56642  24956946.732    24956945.533
        44.000          37.000
  20635017.088    -3028671.16744  -2353452.04142  20635018.228    20635013.812
        57.000          50.000
  20540976.498    -8250191.34943  -6419205.76542  20540978.137    20540973.701
        56.000          50.000
  21323181.499      777864.87543    608974.44742  21323182.414    21323180.496
        54.000          47.000
  21447091.905     4608205.15643   3591711.61942  21447093.417    21447090.833
        54.000          47.000
  23437802.745    -2473335.51943  -1920429.74642  23437804.389    23437800.904
        47.000          40.000
  21622575.921   -10051833.23343  -7821684.71942  21622576.649    21622574.360
        53.000          46.000
  23791139.019     3741786.54743   2918754.27342  23791140.529    23791138.624
        46.000          40.000
  21714263.014    -2157413.31043  -1671642.53842  21714264.971    21714261.503
        53.000          46.000
 03  6 26 16 53  0.0000000  0 10G23G 2G21G18G17G 6G16G15G29G26
  21951613.394   -11768892.45343  -9156286.23142  21951614.431    21951612.416
        52.000          45.000
  24955390.469    -6618452.12143  -5115163.71242  24955388.628    24955389.514
        44.000          37.000
  20635298.525    -3027192.12344  -2352299.55542  20635299.800    20635295.486
        57.000          50.000
  20538189.590    -8264837.14343  -6430618.08042  20538190.846    20538186.828
        56.000          50.000
  21326818.417      796977.12643    623867.08842  21326818.795    21326817.077
        54.000          47.000
  21456687.358     4658630.03143   3631003.68342  21456688.704    21456687.139
        55.000          47.000
  23441259.637    -2455170.08843  -1906274.91342  23441260.908    23441258.852
        47.000          40.000
  21615433.182   -10089368.53543  -7850933.00642  21615434.396    21615432.084
        53.000          46.000
  23800108.431     3788921.75343   2955482.96942  23800110.155    23800107.279
        47.000          40.000
  21719210.238    -2131414.71543  -1651383.90742  21719211.700    21719209.954
        52.000          45.000
 03  6 26 16 53 20.0000000  0 10G23G 2G21G18G17G 6G16G15G29G26
  21944681.528   -11805319.77143  -9184671.14342  21944682.699    21944680.796
        53.000          45.000
  24953870.904    -6626438.04743  -5121386.54142  24953873.014    24953871.688
        44.000          37.000
  20635599.079    -3025613.45343  -2351069.43642  20635599.764    20635595.937
        56.000          50.000
  20535437.203    -8279300.61343  -6441888.32342  20535438.580    20535434.637
        56.000          50.000
  21330471.744      816175.67343    638826.97942  21330472.209    21330470.019
        54.000          47.000
  21466316.869     4709232.68543   3670434.27342  21466318.701    21466316.404
        55.000          47.000
  23444755.347    -2436801.63843  -1891961.87942  23444755.666    23444752.000
        47.000          40.000
  21608300.615   -10126849.51143  -7880138.95942  21608301.606    21608300.096
        54.000          46.000
  23809111.184     3836233.62843   2992349.34242  23809113.826    23809112.169
        47.000          40.000
  21724211.258    -2105135.51743  -1630906.63842  21724212.959    21724210.161
        52.000          45.000
 03  6 26 16 53 40.0000000  0 10G23G 2G21G18G17G 6G16G15G29G26
  21937778.422   -11841596.06843  -9212938.38642  21937779.119    21937777.332
        53.000          46.000
  24952384.224    -6634242.59543  -5127468.02642  24952386.556    24952386.588
        44.000          37.000
  20635917.935    -3023937.07243  -2349763.18142  20635919.034    20635914.810
        56.000          50.000
  20532718.970    -8293584.47943  -6453018.61842  20532720.643    20532716.295
        56.000          50.000
  21334141.178      835459.35943    653853.20742  21334141.956    21334139.553
        54.000          47.000
  21475979.610     4760009.98943   3710000.95242  21475980.987    21475979.003
        54.000          47.000
  23448288.350    -2418233.26843  -1877493.06442  23448289.318    23448286.584
        47.000          40.000
  21601178.235   -10164278.65443  -7909304.53042  21601179.673    21601176.930
        54.000          46.000
  23818147.568     3883719.26543   3029351.11042  23818149.877    23818147.067
        47.000          40.000
  21729265.331    -2078578.82343  -1610213.12542  21729266.643    21729263.885
        53.000          46.000
 03  6 26 16 54  0.0000000  0 10G23G 2G21G18G17G 6G16G15G29G26
  21930904.753   -11877716.51443  -9241084.17442  21930906.051    21930904.073
        53.000          45.000
  24950936.111    -6641860.89243  -5133404.38842  24950935.798    24950935.476
        44.000          37.000
  20636256.555    -3022158.09843  -2348376.98342  20636257.670    20636253.406
        56.000          50.000
  20530036.055    -8307683.93343  -6464005.21042  20530037.614    20530033.343
        56.000          50.000
  21337827.706      854833.17743    668949.66842  21337828.879    21337826.531
        54.000          47.000
  21485676.191     4810966.26343   3749707.09442  21485677.805    21485675.821
        55.000          47.000
  23451861.236    -2399460.61743  -1862865.06542  23451863.881    23451860.149
        47.000          40.000
  21594066.556   -10201650.99643  -7938425.83942  21594067.503    21594065.150
        54.000          46.000
  23827217.799     3931382.72343   3066491.43642  23827220.281    23827217.986
        46.000          40.000
  21734371.991    -2051740.05443  -1589299.81342  21734373.469    21734371.717
        53.000          46.000
 03  6 26 16 54 20.0000000  0 10G23G 2G21G18G17G 6G16G15G29G26
  21924059.766   -11913686.98543  -9269113.11042  21924061.027    21924058.831
        53.000          46.000
  24949520.303    -6649298.89743  -5139200.24642  24949519.596    24949520.523
        44.000          37.000
  20636613.369    -3020282.33943  -2346915.36642  20636614.443    20636610.371
        56.000          50.000
  20527386.925    -8321605.09943  -6474852.87642  20527388.139    20527384.273
        56.000          50.000
  21341530.788      874291.19443    684111.73942  21341531.367    21341528.880
        54.000          47.000
  21495405.752     4862095.10143   3789547.69442  21495407.638    21495405.108
        54.000          47.000
  23455471.584    -2380490.21043  -1848082.96742  23455472.172    23455469.768
        48.000          40.000
  21586964.405   -10238972.09143  -7967507.21142  21586965.542    21586963.003
        53.000          46.000
  23836321.193     3979217.47443   3103765.25242  23836323.143    23836321.827
        46.000          40.000
  21739531.803    -2024625.70443  -1568171.77342  21739533.804    21739531.433
        52.000          46.000
 03  6 26 16 54 40.0000000  0 10G23G 2G21G18G17G 6G16G15G29G26
  21917244.633   -11949499.87043  -9297019.24542  21917245.084    21917244.432
        52.000          46.000
  24948138.569    -6656549.30243  -5144849.93442  24948142.013    24948141.622
        43.000          37.000
  20636990.393    -3018301.91943  -2345372.19542  20636991.786    20636987.320
        56.000          50.000
  20524773.148    -8335340.62143  -6485555.88942  20524774.747    20524770.518
        56.000          50.000
  21345250.913      893840.58043    699345.01042  21345251.942    21345249.357
        54.000          47.000
  21505169.468     4913403.61843   3829528.30542  21505171.260    21505169.098
        54.000          47.000
  23459119.528    -2361314.97843  -1833141.27242  23459121.175    23459118.145
        47.000          40.000
  21579873.916   -10276234.11243  -7996542.54842  21579875.113    21579872.700
        54.000          46.000
  23845456.928     4027230.49743   3141177.94442  23845459.915    23845456.994
        46.000          40.000
  21744745.258    -1997228.44143  -1546823.27742  21744746.609    21744744.936
        52.000          45.000
 03  6 26 16 55  0.0000000  0 10G23G 2G21G18G17G 6G16G15G29G26
  21910458.897   -11985160.88543  -9324807.04042  21910459.910    21910458.716
        53.000          46.000
  24946795.223    -6663618.00343  -5150358.04142  24946795.328    24946795.701
        44.000          37.000
  20637386.002    -3016222.56743  -2343751.93542  20637387.256    20637383.228
        56.000          50.000
  20522193.582    -8348896.35143  -6496118.80542  20522194.873    20522190.759
        56.000          50.000
  21348987.651      913477.03843    714646.12742  21348988.178    21348986.269
        54.000          47.000
  21514966.228     4964885.58143   3869644.07442  21514967.365    21514966.240
        54.000          47.000
  23462806.904    -2341941.11043  -1818044.78942  23462808.092    23462805.787
        47.000          40.000
  21572793.487   -10313442.46443  -8025536.07142  21572794.613    21572791.841
        54.000          46.000
  23854626.386     4075415.30443   3178724.51742  23854627.823    23854626.191
        46.000          40.000
  21750011.516    -1969554.41143  -1525259.12342  21750013.453    21750010.478
        52.000          45.000
 03  6 26 16 55 20.0000000  0 10G23G 2G21G18G17G 6G16G15G29G26
  21903701.461   -12020671.15343  -9352477.37042  21903703.098    21903701.230
        53.000          46.000
  24945486.553    -6670506.27243  -5155725.53242  24945485.878    24945484.710
        44.000          37.000
  20637800.363    -3014045.11243  -2342055.23142  20637801.401    20637797.345
        56.000          50.000
  20519648.024    -8362273.59343  -6506542.63442  20519649.151    20519645.520
        56.000          50.000
  21352740.321      933198.14543    730013.20742  21352741.515    21352739.401
        54.000          47.000
  21524795.649     5016539.31243   3909893.68342  21524797.140    21524795.124
        54.000          47.000
  23466530.731    -2322370.52643  -1802795.03142  23466532.938    23466528.457
        47.000          40.000
  21565722.923   -10350598.22743  -8054488.61142  21565723.798    21565721.876
        54.000          46.000
  23863828.087     4123770.18843   3216403.62042  23863829.772    23863827.763
        46.000          40.000
  21755330.352    -1941605.23443  -1503480.56342  21755332.187    21755329.199
        53.000          45.000
 03  6 26 16 55 40.0000000  0 10G23G 2G21G18G17G 6G16G15G29G26
  21896973.554   -12056026.24743  -9380026.78842  21896974.917    21896973.136
        53.000          46.000
  24944209.822    -6677209.77543  -5160949.07042  24944209.444    24944210.563
        44.000          37.000
  20638234.236    -3011765.12543  -2340278.63442  20638235.336    20638231.309
        56.000          50.000
  20517137.162    -8375468.15043  -6516824.11342  20517138.646    20517134.695
        56.000          50.000
  21356510.309      953009.61243    745450.69542  21356511.404    21356509.099
        54.000          47.000
  21534658.425     5068368.68243   3950280.15542  21534660.151    21534657.642
        54.000          47.000
  23470293.211    -2302599.36843  -1787388.98542  23470295.028    23470290.233
        47.000          40.000
  21558663.285   -10387696.80143  -8083396.59342  21558664.249    21558662.823
        54.000          46.000
  23873062.603     4172298.89343   3254218.16542  23873065.613    23873062.720
        47.000          40.000
  21760701.855    -1913377.04743  -1481484.59142  21760703.510    21760701.633
        52.000          45.000
 03  6 26 16 56  0.0000000  0 10G23G 2G21G18G17G 6G16G15G29G26
  21890274.719   -12091229.16743  -9407457.63042  21890275.770    21890274.277
        53.000          46.000
  24942969.450    -6683731.76643  -5166031.16742  24942969.364    24942966.879
        44.000          37.000
  20638687.225    -3009385.25943  -2338424.20642  20638688.328    20638684.297
        56.000          50.000
  20514660.442    -8388483.36043  -6526965.84142  20514661.780    20514658.070
        56.000          50.000
  21360297.208      972908.81643    760956.54842  21360297.281    21360296.151
        54.000          47.000
  21544553.906     5120370.04443   3990800.64342  21544555.758    21544553.143
        54.000          47.000
  23474093.436    -2282631.34143  -1771829.52242  23474094.697    23474093.589
        47.000          40.000
  21551613.847   -10424741.11743  -8112262.29342  21551614.779    21551612.943
        54.000          46.000
  23882330.213     4220997.55743   3292165.15342  23882332.508    23882330.558
        47.000          40.000
  21766126.037    -1884873.23743  -1459273.84742  21766127.605    21766125.403
        52.000          45.000
 03  6 26 16 56 20.0000000  0 10G23G 2G21G18G17G 6G16G15G29G26
  21883605.125   -12126277.36743  -9434767.90342  21883606.764    21883604.519
        53.000          46.000
  24941761.335    -6690069.76043  -5170969.86642  24941761.707    24941761.924
        43.000          37.000
  20639159.544    -3006902.74143  -2336489.79142  20639160.618    20639156.414
        56.000          50.000
  20512218.219    -8401316.75343  -6536965.89642  20512219.723    20512215.875
        56.000          50.000
  21364101.079      992898.15443    776532.63742  21364101.601    21364099.357
        54.000          47.000
  21554482.632     5172545.55843   4031456.83742  21554484.302    21554481.702
        54.000          47.000
  23477930.746    -2262464.32543  -1756115.01542  23477932.028    23477929.374
        47.000          40.000
  21544575.666   -10461728.34343  -8141083.50542  21544576.812    21544574.395
        54.000          46.000
  23891629.540     4269868.35143   3330246.26342  23891631.617    23891629.197
        47.000          40.000
  21771603.085    -1856091.73843  -1436846.72942  21771604.757    21771603.230
        52.000          45.000
 03  6 26 16 56 40.0000000  0 10G23G 2G21G18G17G 6G16G15G29G26
  21876964.867   -12161172.02643  -9461958.53842  21876966.377    21876964.109
        53.000          46.000
  24940589.958    -6696225.10843  -5175766.28342  24940591.628    24940592.640
        44.000          37.000
  20639651.330    -3004318.97943  -2334476.48642  20639652.486    20639648.121
        56.000          50.000
  20509810.577    -8413969.65143  -6546825.30242  20509811.913    20509808.074
        56.000          50.000
  21367921.739     1012975.90843    792177.62442  21367922.236    21367920.636
        54.000          47.000
  21564444.301     5224893.41943   4072247.32442  21564445.602    21564443.396
        54.000          47.000
  23481805.632    -2242100.16543  -1740246.88642  23481806.352    23481805.468
        47.000          40.000
  21537547.734   -10498659.53943  -8169861.06142  21537548.279    21537546.404
        53.000          46.000
  23900961.589     4318909.03443   3368459.76542  23900963.145    23900962.639
        46.000          40.000
  21777132.183    -1827034.22643  -1414204.54142  21777133.836    21777131.467
        52.000          45.000
 03  6 26 16 57  0.0000000  0 10G23G 2G21G18G17G 6G16G15G29G26
  21870353.908   -12195914.10143  -9489030.28042  21870354.997    21870352.856
        53.000          46.000
  24939454.165    -6702198.88043  -5180421.19442  24939455.616    24939455.580
        44.000          37.000
  20640162.232    -3001634.33243  -2332384.57042  20640163.397    20640159.056
        56.000          50.000
  20507436.995    -8426443.35143  -6556545.07942  20507438.639    20507434.171
        56.000          50.000
  21371759.156     1033141.65543    807891.17542  21371759.680    21371757.654
        54.000          47.000
  21574438.289     5277412.13843   4113170.94742  21574439.747    21574437.796
        54.000          47.000
  23485717.909    -2221540.44043  -1724226.37142  23485720.883    23485718.420
        47.000          40.000
  21530530.674   -10535535.49243  -8198595.57242  21530531.274    21530528.851
        53.000          46.000
  23910325.939     4368118.29143   3406804.61642  23910327.701    23910326.349
        46.000          40.000
  21782714.091    -1797702.21343  -1391348.44942  21782715.868    21782713.103
        52.000          45.000
 03  6 26 16 57 20.0000000  0 10G23G 2G21G18G17G 6G16G15G29G26
  21863771.805   -12230503.49943  -9515983.05542  21863773.156    21863770.939
        53.000          46.000
  24938350.183    -6707990.99043  -5184934.55942  24938354.447    24938353.582
        43.000          37.000
  20640692.317    -2998848.52744  -2330213.82542  20640693.605    20640689.031
        57.000          50.000
  20505097.487    -8438737.85443  -6566125.21842  20505098.964    20505094.905
        56.000          50.000
  21375613.315     1053395.85643    823673.65242  21375613.951    21375612.687
        54.000          47.000
  21584464.651     5330101.33143   4154227.40742  21584466.137    21584464.233
        54.000          47.000
  23489668.433    -2200785.61343  -1708053.82742  23489670.349    23489666.145
        47.000          40.000
  21523523.616   -10572355.81543  -8227286.72642  21523524.989    21523522.474
        54.000          46.000
  23919722.332     4417495.61043   3445280.41142  23919723.626    23919722.739
        46.000          40.000
  21788347.950    -1768095.87043  -1368278.58742  21788350.486    21788346.926
        52.000          45.000
 03  6 26 16 57 40.0000000  0 10G23G 2G21G18G17G 6G16G15G29G26
  21857218.926   -12264938.15743  -9542815.24342  21857221.381    21857218.048
        53.000          46.000
  24937283.903    -6713599.68243  -5189304.99442  24937285.244    24937285.976
        43.000          37.000
  20641241.962    -2995959.37743  -2327962.55742  20641243.397    20641239.069
        56.000          50.000
  20502792.354    -8450851.33643  -6575564.30642  20502793.603    20502789.519
        56.000          50.000
  21379484.701     1073739.86243    839526.10042  21379485.559    21379483.464
        54.000          47.000
  21594523.876     5382962.48843   4195417.86642  21594525.359    21594522.770
        54.000          47.000
  23493655.674    -2179834.16043  -1691728.06242  23493656.096    23493654.844
        48.000          40.000
  21516528.144   -10609118.30043  -8255932.82242  21516529.266    21516527.175
        54.000          46.000
  23929150.297     4467042.14143   3483888.06742  23929151.737    23929151.446
        45.000          40.000
  21794034.379    -1738213.78643  -1344993.86342  21794036.204    21794033.040
        52.000          45.000
 03  6 26 16 58  0.0000000  0 11G23G 2G21G18G17G 6G16G15G 3G29G26
  21850694.260   -12299226.66543  -9569533.55642  21850695.148    21850692.560
        53.000          46.000
  24936250.788    -6719033.62843  -5193539.25742  24936252.440    24936253.163
        45.000          37.000
  20641809.920    -2992975.27243  -2325637.29542  20641810.996    20641806.806
        56.000          50.000
  20500519.907    -8462792.48443  -6584869.10542  20500521.523    20500517.541
        56.000          50.000
  21383371.879     1094166.39143    855442.85542  21383372.559    21383370.895
        54.000          47.000
  21604614.011     5435986.53643   4236735.25342  21604615.826    21604613.366
        54.000          47.000
  23497677.550    -2158695.35143  -1675256.30742  23497679.301    23497677.112
        47.000          40.000
  21509541.766   -10645831.31743  -8284540.37042  21509542.536    21509540.511
        54.000          47.000
  24618253.055    -3765960.12853  -2878508.47952  24618255.814    24618252.597
        44.000          37.000
  23938609.432     4516748.77043   3522620.47742  23938611.065    23938610.056
        45.000          40.000
  21799771.381    -1708064.94943  -1321501.28742  21799773.447    21799771.105
        52.000          45.000
 03  6 26 16 58 20.0000000  0 11G23G 2G21G18G17G 6G16G15G 3G29G26
  21844199.602   -12333355.02343  -9596127.07042  21844201.054    21844198.559
        53.000          46.000
  24935252.848    -6724278.96443  -5197626.54242  24935253.357    24935253.767
        44.000          37.000
  20642398.725    -2989882.01143  -2323226.97942  20642399.942    20642395.504
        56.000          50.000
  20498283.097    -8474547.50543  -6594028.86842  20498284.224    20498280.734
        56.000          50.000
  21387277.377     1114689.76743    871435.07442  21387278.302    21387275.883
        54.000          47.000
  21614737.622     5489186.93143   4278190.05842  21614739.364    21614736.698
        54.000          47.000
  23501738.405    -2137355.65643  -1658628.02342  23501739.408    23501737.681
        47.000          40.000
  21502567.766   -10682480.57743  -8313098.23242  21502568.400    21502566.607
        54.000          47.000
  24605665.469    -3832107.00643  -2930051.45442  24605667.046    24605666.874
        43.000          37.000
  23948101.381     4566628.79443   3561488.00142  23948102.323    23948100.700
        46.000          40.000
  21805561.939    -1677635.74443  -1297790.24942  21805563.486    21805561.397
        52.000          45.000
 03  6 26 16 58 40.0000000  0 11G23G 2G21G18G17G 6G16G15G 3G29G26
  21837733.867   -12367332.54143  -9622603.05342  21837735.305    21837734.273
        53.000          46.000
  24934286.902    -6729345.12843  -5201574.23842  24934287.851    24934290.619
        44.000          37.000
  20643006.284    -2986688.50143  -2320738.54642  20643007.618    20643003.564
        56.000          50.000
  20496079.756    -8486125.83343  -6603050.94842  20496081.181    20496077.076
        56.000          50.000
  21391199.250     1135300.46443    887495.33942  21391200.129    21391198.378
        54.000          47.000
  21624893.218     5542553.86443   4319774.62742  21624894.352    21624892.785
        54.000          47.000
  23505835.457    -2115825.05643  -1641850.98442  23505838.253    23505834.775
        47.000          40.000
  21495604.047   -10719075.17543  -8341613.50242  21495604.929    21495602.330
        54.000          47.000
  24593091.253    -3898187.01243  -2981542.32942  24593093.176    24593091.040
        43.000          37.000
  23957624.663     4616672.37943   3600482.97042  23957626.374    23957625.297
        46.000          40.000
  21811404.069    -1646936.02943  -1273868.41642  21811406.105    21811403.252
        52.000          45.000
 03  6 26 16 59  0.0000000  0 11G23G 2G21G18G17G 6G16G15G 3G29G26
  21831297.948   -12401154.25743  -9648957.63542  21831299.679    21831297.224
        53.000          46.000
  24933358.757    -6734227.38043  -5205378.60742  24933361.429    24933359.074
        44.000          37.000
  20643634.036    -2983389.79543  -2318168.14142  20643635.240    20643630.883
        56.000          50.000
  20493911.020    -8497522.73643  -6611931.66142  20493912.563    20493908.657
        56.000          50.000
  21395139.060     1156003.44443    903627.51142  21395139.993    21395137.729
        54.000          47.000
  21635081.074     5596091.68743   4361492.36342  21635082.618    21635080.494
        54.000          47.000
  23509970.381    -2094099.17343  -1624921.77242  23509971.171    23509969.221
        47.000          40.000
  21488651.803   -10755609.99443  -8370082.19842  21488652.653    21488650.774
        54.000          47.000
  24580531.239    -3964194.45243  -3032976.65742  24580532.752    24580531.487
        44.000          37.000
  23967179.494     4666883.71743   3639608.65842  23967181.119    23967180.202
        46.000          40.000
  21817298.590    -1615961.25343  -1249732.24742  21817300.913    21817297.728
        52.000          45.000
 03  6 26 16 59 20.0000000  0 11G23G 2G21G18G17G 6G16G15G 3G29G26
  21824890.539   -12434823.69043  -9675193.54842  21824892.120    21824890.017
        53.000          46.000
  24932465.358    -6738929.33143  -5209042.48242  24932466.930    24932464.107
        45.000          37.000
  20644281.222    -2979989.16743  -2315518.31442  20644282.289    20644278.198
        56.000          50.000
  20491776.019    -8508741.96243  -6620673.92342  20491777.642    20491773.737
        56.000          50.000
  21399095.730     1176796.00143    919829.48742  21399096.421    21399093.642
        54.000          47.000
  21645301.003     5649796.33843   4403340.09242  21645302.400    21645300.674
        54.000          47.000
  23514140.001    -2072182.14243  -1607843.61342  23514142.620    23514139.835
        47.000          40.000
  21481710.283   -10792088.29943  -8398506.85342  21481711.058    21481708.593
        53.000          47.000
  24567983.017    -4030132.20543  -3084356.67442  24567984.898    24567984.905
        44.000          37.000
  23976765.432     4717258.61443   3678861.79342  23976767.044    23976765.424
        46.000          40.000
  21823244.187    -1584715.51743  -1225384.93742  21823245.947    21823243.145
        52.000          45.000
 03  6 26 16 59 40.0000000  0 11G23G 2G21G18G17G 6G16G15G 3G29G26
  21818512.844   -12468340.56543  -9701310.58842  21818513.908    21818511.926
        53.000          46.000
  24931602.743    -6743450.85843  -5212565.78342  24931604.277    24931604.598
        44.000          37.000
  20644947.764    -2976486.03343  -2312788.61642  20644948.952    20644944.912
        56.000          50.000
  20489675.043    -8519783.39543  -6629277.64742  20489676.229    20489672.480
        56.000          50.000
  21403069.376     1197677.35943    936100.65942  21403070.133    21403068.037
        54.000          47.000
  21655552.178     5703667.54443   4445317.60042  21655554.116    21655551.935
        54.000          47.000
  23518348.145    -2050074.29943  -1590616.76742  23518347.473    23518346.929
        47.000          40.000
  21474779.533   -10828509.65343  -8426887.12942  21474780.082    21474778.293
        54.000          47.000
  24555448.557    -4095999.35243  -3135681.69442  24555449.363    24555449.474
        44.000          37.000
  23986382.568     4767796.62143   3718242.02642  23986384.067    23986382.381
        46.000          40.000
  21829241.077    -1553199.03243  -1200826.65842  21829244.168    21829240.405
        52.000          45.000
 03  6 26 17  0  0.0000000  0 11G23G 2G21G18G17G 6G16G15G 3G29G26
  21812163.971   -12501702.74543  -9727307.08742  21812165.387    21812163.548
        53.000          46.000
  24930778.536    -6747790.11343  -5215947.04742  24930780.790    24930778.810
        44.000          37.000
  20645634.349    -2972878.26744  -2309977.38642  20645635.571    20645631.279
        57.000          50.000
  20487608.115    -8530645.29143  -6637741.47142  20487609.663    20487605.571
        56.000          50.000
  21407060.382     1218649.99643    952442.94842  21407060.774    21407059.070
        54.000          47.000
  21665835.603     5757706.87443   4487426.11542  21665837.179    21665835.237
        54.000          47.000
  23522591.975    -2027774.12443  -1573240.06142  23522590.278    23522590.020
        47.000          40.000
  21467860.082   -10864871.58243  -8455221.10242  21467861.225    21467858.454
        54.000          47.000
  24542929.524    -4161792.78743  -3186949.27342  24542929.353    24542928.333
        44.000          37.000
  23996030.663     4818499.20543   3757750.50242  23996033.407    23996031.532
        46.000          40.000
  21835290.892    -1521410.10543  -1176056.09042  21835293.331    21835289.682
        52.000          45.000
 03  6 26 17  0 20.0000000  0 11G23G 2G21G18G17G 6G16G15G 3G29G26
  21805844.043   -12534914.88143  -9753186.67142  21805845.226    21805843.437
        53.000          46.000
  24929985.805    -6751951.89043  -5219190.01442  24929986.338    24929987.148
        44.000          37.000
  20646339.980    -2969170.33943  -2307088.10742  20646341.191    20646336.725
        56.000          50.000
  20485574.327    -8541332.38743  -6646069.08442  20485575.612    20485571.752
        56.000          50.000
  21411067.889     1239710.01543    968853.33642  21411068.722    21411066.395
        54.000          47.000
  21676149.953     5811909.18843   4529661.63042  21676152.014    21676149.531
        54.000          47.000
  23526870.308    -2005286.72943  -1555717.47142  23526871.887    23526867.929
        47.000          40.000
  21460950.993   -10901178.36343  -8483512.10242  21460951.781    21460949.299
        54.000          47.000
  24530422.582    -4227516.60643  -3238162.59342  24530423.223    24530423.280
        44.000          37.000
  24005709.678     4869361.11143   3797383.13542  24005711.527    24005709.917
        45.000          40.000
  21841391.192    -1489353.95343  -1151077.29042  21841393.669    21841390.195
        52.000          45.000
 03  6 26 17  0 40.0000000  0 11G23G 2G21G18G17G 6G16G15G 3G29G26
  21799553.665   -12567970.69043  -9778944.44442  21799555.588    21799553.001
        53.000          46.000
  24929230.161    -6755930.07143  -5222289.93942  24929230.860    24929229.704
        45.000          37.000
  20647065.951    -2965355.33843  -2304115.39542  20647067.065    20647063.212
        56.000          50.000
  20483575.120    -8551838.41243  -6654255.60542  20483576.524    20483572.546
        56.000          50.000
  21415093.539     1260864.86743    985337.61542  21415094.198    21415092.281
        54.000          47.000
  21686496.324     5866280.08743   4572028.50942  21686498.547    21686495.940
        53.000          47.000
  23531186.307    -1982606.62343  -1538044.69642  23531187.244    23531186.499
        47.000          40.000
  21454053.830   -10937423.71843  -8511755.23242  21454054.578    21454052.908
        54.000          47.000
  24517930.161    -4293163.82343  -3289316.24342  24517931.286    24517928.814
        43.000          37.000
  24015419.410     4920388.01843   3837144.32842  24015421.066    24015419.501
        45.000          39.000
  21847542.906    -1457024.78643  -1125885.74742  21847544.322    21847542.803
        52.000          45.000
 03  6 26 17  1  0.0000000  0 11G23G 2G21G18G17G 6G16G15G 3G29G26
  21793292.274   -12600874.82643  -9804584.02542  21793293.234    21793291.518
        53.000          46.000
  24928507.003    -6759729.49143  -5225250.54942  24928506.969    24928506.078
        44.000          37.000
  20647811.552    -2961438.01044  -2301062.94942  20647812.742    20647808.680
        57.000          50.000
  20481609.426    -8562168.33743  -6662304.90642  20481610.609    20481606.870
        56.000          50.000
  21419136.159     1282108.15943   1001890.80942  21419136.208    21419134.823
        54.000          47.000
  21696874.022     5920814.43743   4614522.75542  21696875.285    21696873.633
        54.000          47.000
  23535538.417    -1959739.09743  -1520225.89742  23535539.458    23535537.132
        47.000          40.000
  21447167.148   -10973612.06843  -8539953.94542  21447168.405    21447166.035
        54.000          47.000
  24505451.493    -4358738.27843  -3340413.18142  24505454.766    24505453.373
        43.000          37.000
  24025160.123     4971574.48443   3877029.86142  24025162.582    24025161.130
        45.000          39.000
  21853746.042    -1424427.71043  -1100485.45642  21853747.964    21853745.413
        52.000          45.000
 03  6 26 17  1 20.0000000  0 11G23G 2G21G18G17G 6G16G15G 3G29G26
  21787060.216   -12633624.29443  -9830103.08442  21787060.999    21787059.722
        53.000          46.000
  24927817.159    -6763347.23543  -5228069.59842  24927817.362    24927818.449
        44.000          37.000
  20648576.985    -2957415.16444  -2297928.27942  20648578.294    20648573.946
        57.000          50.000
  20479677.784    -8572319.56043  -6670214.96142  20479679.047    20479675.248
        56.000          50.000
  21423196.119     1303443.73643   1018515.91242  21423196.884    21423194.369
        54.000          47.000
  21707283.189     5975514.72043   4657146.29442  21707284.722    21707282.657
        53.000          47.000
  23539925.769    -1936681.73443  -1502259.17142  23539928.308    23539925.783
        47.000          40.000
  21440292.331   -11009740.10243  -8568105.66142  21440293.700    21440291.375
        54.000          47.000
  24492987.717    -4424236.32143  -3391450.58342  24492988.739    24492990.195
        44.000          37.000
  24034931.125     5022922.85443   3917041.54842  24034933.054    24034930.839
        45.000          40.000
  21860000.628    -1391560.26943  -1074874.48342  21860003.394    21860000.132
        52.000          45.000
 03  6 26 17  1 40.0000000  0 11G23G 2G21G18G17G 6G16G15G 3G29G26
  21780856.972   -12666222.41343  -9855504.21042  21780858.314    21780856.844
        53.000          46.000
  24927164.023    -6766786.68143  -5230749.72642  24927165.164    24927165.352
        44.000          37.000
  20649361.990    -2953289.78644  -2294713.71342  20649363.578    20649359.016
        57.000          50.000
  20477779.468    -8582295.35043  -6677988.31742  20477781.070    20477776.841
        56.000          50.000
  21427273.138     1324868.43743   1035210.46442  21427273.814    21427272.070
        53.000          47.000
  21717723.079     6030377.15343   4699896.18642  21717724.544    21717722.418
        53.000          47.000
  23544348.636    -1913438.46443  -1484147.56342  23544350.433    23544347.925
        46.000          40.000
  21433428.314   -11045810.81743  -8596212.71342  21433429.554    21433426.771
        54.000          47.000
  24480537.996    -4489660.34543  -3442430.30342  24480539.699    24480537.418
        44.000          37.000
  24044732.932     5074429.27843   3957176.40142  24044734.240    24044734.098
        46.000          40.000
  21866305.864    -1358426.23343  -1049055.77142  21866307.116    21866305.706
        52.000          45.000
 03  6 26 17  2  0.0000000  0 11G23G 2G21G18G17G 6G16G15G 3G29G26
  21774683.023   -12698666.11943  -9880785.01842  21774684.485    21774682.153
        53.000          46.000
  24926543.472    -6770044.93543  -5233288.66842  24926545.824    24926544.033
        44.000          37.000
  20650167.042    -2949059.10343  -2291417.09142  20650168.331    20650164.125
        56.000          50.000
  20475915.040    -8592092.86543  -6685622.75242  20475916.666    20475912.244
        56.000          50.000
  21431367.677     1346385.80943   1051977.22742  21431368.399    21431365.819
        54.000          47.000
  21728194.586     6085404.28043   4742774.41242  21728196.379    21728194.425
        53.000          47.000
  23548807.659    -1890006.68743  -1465889.08842  23548809.838    23548805.336
        47.000          40.000
  21426575.895   -11081820.90543  -8624272.52842  21426576.683    21426574.765
        54.000          47.000
  24468102.394    -4555006.75543  -3493349.54042  24468103.740    24468103.393
        45.000          37.000
  24054564.341     5126096.13543   3997436.25642  24054566.921    24054563.544
        45.000          40.000
  21872662.294    -1325023.05443  -1023027.33542  21872664.283    21872661.424
        52.000          45.000
 03  6 26 17  2 20.0000000  0 11G23G 2G21G18G17G 6G16G15G 3G29G26
  21768538.348   -12730958.24243  -9905947.70642  21768539.221    21768537.833
        54.000          46.000
  24925957.464    -6773125.08143  -5235688.81242  24925958.962    24925957.750
        44.000          37.000
  20650991.915    -2944724.79943  -2288039.72742  20650992.831    20650989.028
        56.000          50.000
  20474083.922    -8601715.10143  -6693120.60642  20474085.452    20474081.756
        56.000          50.000
  21435479.423     1367993.30043   1068814.21442  21435480.090    21435478.023
        54.000          47.000
  21738696.683     6140592.77843   4785778.38042  21738698.499    21738696.098
        53.000          47.000
  23553302.114    -1866389.97943  -1447486.49642  23553303.532    23553301.009
        47.000          40.000
  21419734.561   -11117772.98943  -8652287.14342  21419735.385    21419733.093
        54.000          47.000
  24455681.252    -4620277.56643  -3544209.88742  24455682.306    24455683.562
        45.000          37.000
  24064426.602     5177919.98743   4037818.44042  24064427.248    24064427.100
        45.000          39.000
  21879069.085    -1291354.15843   -996791.84942  21879071.507    21879068.637
        52.000          45.000
 03  6 26 17  2 40.0000000  0 11G23G 2G21G18G17G 6G16G15G 3G29G26
  21762422.251   -12763098.16543  -9930991.79742  21762423.239    21762422.127
        53.000          46.000
  24925405.092    -6776026.60243  -5237949.76542  24925406.840    24925405.375
        45.000          37.000
  20651836.461    -2940286.11543  -2284581.02542  20651837.643    20651833.504
        56.000          50.000
  20472286.471    -8611161.62843  -6700481.54442  20472287.940    20472283.568
        56.000          50.000
  21439608.694     1389691.82043   1085722.13442  21439609.558    21439607.330
        54.000          47.000
  21749229.422     6195942.59843   4828908.05842  21749230.617    21749229.281
        53.000          46.000
  23557831.731    -1842588.13243  -1428939.64142  23557831.730    23557828.697
        47.000          40.000
  21412904.229   -11153666.20443  -8680255.88542  21412904.814    21412902.473
        54.000          47.000
  24443276.239    -4685471.24543  -3595010.12042  24443275.748    24443277.621
        43.000          38.000
  24074318.121     5229900.64443   4078322.80842  24074320.359    24074318.041
        45.000          39.000
  21885526.831    -1257419.31043   -970349.12942  21885529.595    21885526.669
        52.000          45.000
 03  6 26 17  3  0.0000000  0 11G23G 2G21G18G17G 6G16G15G 3G29G26
  21756335.789   -12795082.96943  -9955915.01542  21756336.761    21756334.979
        53.000          46.000
  24924887.775    -6778746.78043  -5240069.41742  24924889.432    24924888.910
        45.000          37.000
  20652701.624    -2935740.13343  -2281038.71342  20652702.615    20652698.653
        56.000          50.000
  20470522.714    -8620429.75943  -6707703.47142  20470524.013    20470520.096
        56.000          50.000
  21443755.617     1411484.60943   1102703.50342  21443756.172    21443754.036
        53.000          47.000
  21759793.426     6251456.14043   4872165.30242  21759795.411    21759792.449
        53.000          46.000
  23562396.245    -1818598.91443  -1410246.79942  23562397.712    23562394.036
        47.000          39.000
  21406085.673   -11189497.29443  -8708176.21542  21406086.675    21406084.383
        54.000          47.000
  24430885.040    -4750584.19943  -3645747.44642  24430885.547    24430885.440
        44.000          38.000
  24084240.479     5282040.40043   4118951.16042  24084241.718    24084240.108
        45.000          39.000
  21892035.119    -1223216.06243   -943697.26742  21892037.363    21892035.304
        52.000          45.000
 03  6 26 17  3 20.0000000  0 11G23G 2G21G18G17G 6G16G15G 3G29G26
  21750277.855   -12826916.46843  -9980720.33342  21750279.572    21750277.423
        53.000          46.000
  24924403.641    -6781289.60543  -5242050.87342  24924403.691    24924404.277
        44.000          37.000
  20653586.540    -2931090.35643  -2277415.52242  20653587.678    20653583.521
        56.000          50.000
  20468792.219    -8629523.63743  -6714789.62242  20468793.889    20468789.341
        56.000          50.000
  21447919.683     1433368.06943   1119755.52842  21447920.636    21447919.269
        53.000          47.000
  21770387.596     6307129.04243   4915546.72442  21770389.814    21770387.319
        53.000          46.000
  23566996.075    -1794426.85943  -1391411.47142  23566998.470    23566996.670
        47.000          39.000
  21399278.546   -11225269.73643  -8736050.84542  21399279.406    21399277.410
        54.000          47.000
  24418508.917    -4815619.44743  -3696424.22942  24418509.277    24418510.572
        44.000          38.000
  24094191.590     5334334.97843   4159700.16142  24094191.785    24094190.931
        46.000          40.000
  21898594.285    -1188748.90843   -916839.76842  21898596.587    21898594.322
        52.000          45.000
 03  6 26 17  3 40.0000000  0 11G23G 2G21G18G17G 6G16G15G 3G29G26
  21744249.621   -12858595.43843 -10005405.23842  21744250.770    21744248.675
        53.000          46.000
  24923953.308    -6783651.94443  -5243891.69542  24923956.635    24923955.218
        44.000          37.000
  20654491.670    -2926333.49843  -2273708.89042  20654492.902    20654488.551
        56.000          50.000
  20467095.444    -8638439.97643  -6721737.42442  20467096.781    20467092.850
        56.000          50.000
  21452101.966     1455344.99943   1136880.38842  21452102.687    21452100.953
        53.000          47.000
  21781012.693     6362964.11143   4959054.52042  21781013.642    21781012.485
        53.000          46.000
  23571631.322    -1770069.33043  -1372431.62442  23571633.173    23571629.032
        48.000          39.000
  21392483.105   -11260980.04043  -8763877.05642  21392483.980    21392481.981
        54.000          47.000
  24406149.547    -4880573.04443  -3747037.39042  24406151.581    24406151.472
        45.000          37.000
  24104172.753     5386786.82143   4200571.70342  24104174.748    24104172.432
        45.000          40.000
  21905204.153    -1154015.01143   -889774.41242  21905205.971    21905203.167
        52.000          45.000
 03  6 26 17  4  0.0000000  0 11G23G 2G21G18G17G 6G16G15G 3G29G26
  21738250.180   -12890123.11443 -10029972.25642  21738251.215    21738249.010
        53.000          46.000
  24923539.367    -6785837.36443  -5245594.65642  24923540.257    24923539.274
        44.000          37.000
  20655416.599    -2921472.42143  -2269921.05242  20655417.794    20655413.829
        56.000          50.000
  20465431.938    -8647182.24443  -6728549.59142  20465433.477    20465429.328
        56.000          50.000
  21456301.288     1477412.14743   1154075.54642  21456301.816    21456299.881
        53.000          47.000
  21791667.956     6418957.45643   5002685.63542  21791669.477    21791668.238
        53.000          46.000
  23576301.289    -1745530.28443  -1353310.33642  23576302.109    23576301.975
        46.000          40.000
  21385698.898   -11296631.24843  -8791657.21942  21385699.451    21385697.760
        54.000          47.000
  24393804.114    -4945447.43543  -3797588.82542  24393805.181    24393806.374
        44.000          37.000
  24114183.202     5439392.07943   4241562.77642  24114184.934    24114185.200
        46.000          40.000
  21911863.937    -1119018.20443   -862504.18942  21911865.496    21911862.790
        52.000          45.000
 03  6 26 17  4 20.0000000  0 11G23G 2G21G18G17G 6G16G15G 3G29G26
  21732279.694   -12921497.53943 -10054419.84942  21732280.590    21732279.576
        53.000          46.000
  24923155.935    -6787844.02643  -5247158.32242  24923157.016    24923157.277
        44.000          37.000
  20656362.169    -2916504.80644  -2266050.19742  20656363.294    20656358.893
        57.000          50.000
  20463801.765    -8655748.72143  -6735224.77742  20463803.183    20463799.265
        56.000          50.000
  21460517.858     1499571.11043   1171342.25042  21460518.579    21460516.870
        53.000          46.000
  21802353.394     6475110.51443   5046441.20842  21802355.638    21802353.618
        53.000          46.000
  23581004.405    -1720808.19143  -1334046.42242  23581005.983    23581005.180
        46.000          40.000
  21378926.232   -11332221.11043  -8819389.58042  21378926.924    21378925.145
        54.000          47.000
  24381474.436    -5010239.91243  -3848076.44042  24381474.523    24381473.685
        45.000          38.000
  24124223.001     5492151.86143   4282674.26442  24124225.223    24124224.269
        46.000          40.000
  21918573.748    -1083757.11643   -835028.03642  21918574.936    21918573.938
        52.000          45.000
 03  6 26 17  4 40.0000000  0 11G23G 2G21G18G17G 6G16G15G 3G29G26
  21726338.298   -12952719.28443 -10078748.47642  21726339.952    21726337.605
        54.000          46.000
  24922808.007    -6789672.47443  -5248583.10442  24922809.828    24922808.471
        44.000          37.000
  20657327.593    -2911431.01143  -2262096.60042  20657328.799    20657324.565
        56.000          50.000
  20462205.065    -8664139.99343  -6741763.44142  20462206.406    20462202.300
        56.000          50.000
  21464752.419     1521822.69243   1188681.12142  21464752.324    21464751.099
        53.000          46.000
  21813069.331     6531422.24943   5090320.42642  21813071.358    21813069.040
        53.000          46.000
  23585744.785    -1695904.19743  -1314640.75542  23585747.000    23585743.029
        47.000          40.000
  21372165.514   -11367749.95343  -8847074.39642  21372166.117    21372164.545
        54.000          47.000
  24369160.748    -5074950.24243  -3898500.05142  24369161.652    24369160.923
        44.000          38.000
  24134292.525     5545065.19543   4323905.39442  24134293.221    24134293.824
        46.000          39.000
  21925333.783    -1048232.61243   -807346.62142  21925335.327    21925332.171
        52.000          45.000
 03  6 26 17  5  0.0000000  0 11G23G 2G21G18G17G 6G16G15G 3G29G26
  21720425.837   -12983791.00643 -10102960.19542  21720426.850    21720425.039
        53.000          46.000
  24922493.292    -6791325.58743  -5249871.27442  24922494.789    24922494.165
        44.000          37.000
  20658312.728    -2906253.57544  -2258062.24542  20658313.796    20658310.085
        57.000          50.000
  20460640.893    -8672358.96443  -6748167.84142  20460642.204    20460638.517
        56.000          50.000
  21469003.992     1544164.86343   1206090.58842  21469004.216    21469002.461
        53.000          46.000
  21823814.642     6587889.49743   5134320.82442  21823816.424    21823815.437
        53.000          46.000
  23590517.209    -1670821.63243  -1295095.95142  23590519.789    23590517.275
        47.000          40.000
  21365415.753   -11403220.05243  -8874713.43242  21365416.654    21365414.606
        54.000          47.000
  24356862.829    -5139580.25343  -3948861.06342  24356864.134    24356861.969
        44.000          38.000
  24144389.666     5598128.74343   4365253.57642  24144391.371    24144390.647
        45.000          39.000
  21932143.271    -1012447.98143   -779462.50842  21932144.959    21932142.862
        52.000          45.000
 03  6 26 17  5 20.0000000  0 11G23G 2G21G18G17G 6G16G15G 3G29G26
  21714542.933   -13014705.66543 -10127049.53042  21714544.281    21714542.115
        54.000          46.000
  24922213.345    -6792796.63343  -5251017.57142  24922214.350    24922215.389
        45.000          37.000
  20659319.056    -2900965.11743  -2253941.37942  20659320.031    20659316.118
        56.000          49.000
  20459111.075    -8680398.87743  -6754432.71842  20459112.397    20459108.427
        56.000          50.000
  21473274.131     1566604.69743   1223576.15342  21473275.061    21473272.904
        53.000          46.000
  21834590.953     6644518.79743   5178447.49542  21834592.884    21834590.658
        53.000          46.000
  23595326.539    -1645554.02743  -1275406.95142  23595327.260    23595325.197
        47.000          39.000
  21358678.687   -11438624.03343  -8902300.95342  21358679.148    21358677.206
        54.000          47.000
  24344580.636    -5204122.21243  -3999153.46342  24344582.717    24344582.444
        45.000          38.000
  24154517.449     5651348.86543   4406723.76942  24154518.626    24154517.324
        44.000          39.000
  21939003.560     -976396.80943   -751370.70842  21939005.512    21939003.364
        52.000          45.000
 03  6 26 17  5 40.0000000  0 11G23G 2G21G18G17G 6G16G15G 3G29G26
  21708688.414   -13045470.27643 -10151021.94442  21708689.859    21708688.065
        54.000          46.000
  24921966.960    -6794092.77143  -5252027.56242  24921968.756    24921967.823
        44.000          37.000
  20660345.447    -2895572.38343  -2249739.25942  20660346.453    20660342.793
        56.000          50.000
  20457613.757    -8688266.98343  -6760563.71742  20457615.171    20457611.048
        56.000          50.000
  21477561.765     1589135.80843   1241132.84142  21477562.649    21477560.276
        53.000          46.000
  21845396.737     6701302.48543   5222694.46442  21845398.691    21845396.405
        53.000          46.000
  23600167.393    -1620109.05043  -1255579.73842  23600170.232    23600167.154
        46.000          39.000
  21351952.616   -11473968.59043  -8929842.16542  21351953.147    21351950.841
        54.000          47.000
  24332313.473    -5268582.23443  -4049382.01942  24332314.259    24332315.052
        44.000          38.000
  24164673.425     5704717.86643   4448309.97142  24164675.488    24164673.320
        44.000          39.000
  21945913.446     -940086.47743   -723076.96142  21945915.088    21945912.801
        51.000          45.000
 03  6 26 17  6  0.0000000  0 11G23G 2G21G18G17G 6G16G15G 3G29G26
  21702862.832   -13076084.38643 -10174877.08342  21702864.359    21702861.845
        54.000          46.000
  24921752.626    -6795213.68343  -5252901.01442  24921755.247    24921755.769
        44.000          37.000
  20661391.592    -2890074.69744  -2245455.35842  20661392.857    20661388.526
        57.000          50.000
  20456149.270    -8695962.98043  -6766560.60342  20456150.858    20456146.794
        56.000          50.000
  21481866.782     1611758.32943   1258760.75742  21481867.352    21481865.427
        53.000          46.000
  21856231.564     6758240.44543   5267061.64542  21856233.152    21856230.949
        53.000          46.000
  23605043.798    -1594486.98543  -1235614.53942  23605045.774    23605043.200
        47.000          40.000
  21345238.112   -11509253.03943  -8957336.54142  21345238.887    21345237.108
        54.000          47.000
  24320063.131    -5332959.16243  -4099545.83142  24320064.525    24320065.311
        44.000          38.000
  24174857.446     5758235.63543   4490012.10042  24174859.624    24174856.480
        45.000          39.000
  21952872.354     -903517.11343   -694581.37242  21952874.348    21952872.007
        52.000          45.000
 03  6 26 17  6 20.0000000  0 11G23G 2G21G18G17G 6G16G15G 3G29G26
  21697067.010   -13106541.46443 -10198609.86542  21697068.106    21697065.888
        54.000          46.000
  24921574.085    -6796153.05443  -5253633.02942  24921578.465    24921577.323
        44.000          37.000
  20662458.940    -2884465.09743  -2241084.25342  20662460.148    20662455.852
        56.000          50.000
  20454718.702    -8703480.58843  -6772418.48842  20454720.277    20454715.883
        56.000          50.000
  21486189.988     1634477.33543   1276463.85542  21486190.756    21486188.800
        53.000          46.000
  21867097.153     6815338.69743   5311553.73042  21867098.587    21867096.833
        53.000          46.000
  23609954.267    -1568681.73643  -1215506.59642  23609955.904    23609953.101
        47.000          40.000
  21338536.686   -11544470.59443  -8984778.79342  21338537.342    21338535.306
        54.000          47.000
  24307828.953    -5397245.84043  -4149639.31242  24307830.150    24307830.316
        44.000          38.000
  24185071.093     5811907.94543   4531834.65042  24185073.125    24185073.137
        46.000          39.000
  21959881.510     -866682.89143   -665879.39842  21959883.652    21959880.460
        52.000          45.000
 03  6 26 17  6 40.0000000  0 11G23G 2G21G18G17G 6G16G15G 3G29G26
  21691299.381   -13136850.41543 -10222227.21942  21691300.741    21691298.927
        54.000          46.000
  24921429.394    -6796919.96843  -5254230.64742  24921429.742    24921430.440
        44.000          37.000
  20663546.190    -2878752.35843  -2236632.77742  20663547.042    20663543.259
        56.000          50.000
  20453320.488    -8710828.78243  -6778144.36042  20453321.952    20453317.887
        56.000          50.000
  21490530.300     1657286.39143   1294237.11742  21490531.202    21490529.204
        54.000          46.000
  21877991.115     6872587.81143   5356163.36642  21877993.241    21877991.722
        53.000          46.000
  23614897.921    -1542702.92943  -1195263.39542  23614899.304    23614898.342
        46.000          40.000
  21331845.886   -11579629.82943  -9012175.59542  21331847.088    21331844.647
        54.000          47.000
  24295612.880    -5461450.22943  -4199668.67642  24295613.825    24295613.129
        44.000          38.000
  24195311.577     5865725.31943   4573770.24642  24195314.290    24195312.564
        46.000          39.000
  21966939.664     -829593.08543   -636978.26542  21966941.346    21966938.577
        52.000          45.000
 03  6 26 17  7  0.0000000  0 11G23G 2G21G18G17G 6G16G15G 3G29G26
  21685561.236   -13167004.73343 -10245724.08142  21685562.806    21685560.831
        54.000          46.000
  24921318.101    -6797508.11943  -5254688.96242  24921318.492    24921320.042
        44.000          37.000
  20664654.158    -2872929.87043  -2232095.78042  20664655.393    20664651.292
        56.000          50.000
  20451955.540    -8718001.35343  -6783733.38342  20451956.901    20451953.252
        56.000          50.000
  21494889.203     1680191.72143   1312085.40642  21494889.981    21494888.102
        53.000          46.000
  21888915.164     6929993.66543   5400895.13842  21888916.344    21888914.614
        53.000          46.000
  23619874.893    -1516544.69143  -1174880.39642  23619876.513    23619874.433
        47.000          40.000
  21325168.019   -11614723.74043  -9039521.49642  21325168.753    21325166.874
        54.000          47.000
  24283410.919    -5525565.12243  -4249628.29542  24283413.145    24283411.146
        44.000          38.000
  24205581.905     5919693.43343   4615823.28742  24205583.409    24205582.900
        45.000          39.000
  21974047.409     -792241.80043   -607873.37742  21974049.275    21974045.639
        52.000          45.000
 03  6 26 17  7 20.0000000  0 11G23G 2G21G18G17G 6G16G15G 3G29G26
  21679852.154   -13197006.36443 -10269101.96542  21679853.123    21679852.323
        54.000          46.000
  24921237.913    -6797919.52743  -5255009.56442  24921240.196    24921240.756
        44.000          37.000
  20665782.671    -2866999.05444  -2227474.37342  20665783.957    20665779.918
        57.000          50.000
  20450623.696    -8725000.43643  -6789187.21742  20450624.967    20450621.141
        56.000          50.000
  21499265.918     1703191.58243   1330007.35642  21499266.536    21499265.175
        53.000          46.000
  21899868.792     6987553.82743   5445747.15342  21899870.229    21899868.341
        53.000          46.000
  23624886.638    -1490209.64943  -1154359.62942  23624887.276    23624886.533
        47.000          40.000
  21318501.598   -11649754.05443  -9066817.84442  21318502.976    21318500.981
        54.000          47.000
  24271227.989    -5589591.53643  -4299518.96742  24271229.963    24271226.912
        44.000          38.000
  24215880.303     5973810.00943   4657992.01642  24215882.191    24215880.829
        45.000          39.000
  21981204.140     -754631.53143   -578566.69042  21981206.051    21981203.167
        51.000          45.000
 03  6 26 17  7 40.0000000  0 11G23G 2G21G18G17G 6G16G15G 3G29G26
  21674171.506   -13226858.31243 -10292363.21142  21674172.877    21674170.636
        54.000          47.000
  24921194.484    -6798157.35643  -5255194.91842  24921194.681    24921195.402
        44.000          37.000
  20666931.378    -2860962.65343  -2222770.69642  20666932.560    20666928.589
        56.000          50.000
  20449324.148    -8731829.05643  -6794508.22742  20449325.853    20449321.777
        56.000          50.000
  21503659.989     1726282.52143   1348000.27242  21503660.607    21503658.462
        54.000          46.000
  21910850.862     7045264.70543   5490716.59942  21910853.234    21910850.929
        53.000          46.000
  23629931.710    -1463701.42043  -1133703.90342  23629932.678    23629930.893
        47.000          40.000
  21311847.205   -11684723.56243  -9094066.80842  21311848.207    21311846.186
        55.000          47.000
  24259060.378    -5653531.68243  -4349342.42442  24259061.632    24259062.399
        44.000          38.000
  24226204.960     6028071.21343   4700273.42742  24226206.887    24226205.790
        44.000          39.000
  21988409.648     -716765.79043   -549060.93542  21988412.992    21988409.656
        51.000          45.000
 03  6 26 17  8  0.0000000  0 11G23G 2G21G18G17G 6G16G15G 3G29G26
  21668520.255   -13256555.32243 -10315503.73242  21668521.545    21668519.482
        54.000          46.000
  24921182.435    -6798216.55843  -5255241.06842  24921184.289    24921184.602
        44.000          37.000
  20668101.284    -2854815.40843  -2217980.64742  20668102.758    20668098.485
        56.000          50.000
  20448058.163    -8738482.21343  -6799692.51542  20448059.656    20448055.456
        56.000          50.000
  21508072.690     1749471.44643   1366069.54042  21508073.440    21508071.490
        54.000          46.000
  21921862.229     7103131.03943   5535807.18842  21921864.506    21921861.987
        53.000          46.000
  23635010.309    -1437015.15243  -1112909.45442  23635011.241    23635009.665
        47.000          40.000
  21305205.507   -11719626.69243  -9121264.05342  21305206.755    21305204.087
        54.000          47.000
  24246910.186    -5717379.59943  -4399094.00942  24246913.126    24246911.951
        46.000          38.000
  24236559.526     6082481.80643   4742671.25542  24236561.080    24236559.195
        45.000          39.000
  21995665.083     -678639.86643   -519352.43542  21995666.887    21995664.329
        52.000          45.000
 03  6 26 17  8 20.0000000  0 11G23G 2G21G18G17G 6G16G15G 3G29G26
  21662897.520   -13286103.14143 -10338528.00342  21662898.766    21662897.406
        54.000          47.000
  24921203.466    -6798103.05443  -5255152.63442  24921205.168    24921205.825
        44.000          37.000
  20669291.276    -2848562.21343  -2213108.03442  20669292.424    20669288.516
        56.000          49.000
  20446824.451    -8744965.87243  -6804744.72242  20446825.592    20446821.890
        56.000          50.000
  21512502.799     1772751.47743   1384209.80242  21512503.604    21512501.558
        53.000          46.000
  21932902.350     7161146.59243   5581014.04542  21932904.123    21932902.572
        53.000          46.000
  23640120.652    -1410157.25743  -1091981.28142  23640121.793    23640120.140
        47.000          40.000
  21298575.248   -11754468.85743  -9148413.78942  21298576.157    21298573.704
        54.000          47.000
  24234775.952    -5781140.01843  -4448777.41742  24234778.170    24234777.911
        45.000          38.000
  24246940.263     6137035.25943   4785180.40842  24246942.404    24246941.046
        44.000          39.000
  22002968.382     -640259.96543   -489446.04442  22002970.579    22002968.219
        51.000          45.000
 03  6 26 17  8 40.0000000  0 11G23G 2G21G18G17G 6G16G15G 3G29G26
  21657303.519   -13315499.97043 -10361434.61442  21657304.506    21657302.617
        54.000          47.000
  24921260.436    -6797815.36843  -5254928.49242  24921260.162    24921261.018
        44.000          37.000
  20670501.658    -2842201.33443  -2208151.51142  20670502.982    20670499.115
        56.000          49.000
  20445623.190    -8751278.40543  -6809663.58542  20445624.413    20445620.496
        56.000          50.000
  21516950.746     1796124.87443   1402422.82042  21516951.080    21516949.457
        53.000          46.000
  21943971.188     7219312.61943   5626338.15842  21943973.382    21943971.692
        53.000          46.000
  23645264.685    -1383126.67543  -1070918.53142  23645266.124    23645263.636
        47.000          40.000
  21291957.094   -11789248.03243  -9175514.44142  21291958.223    21291955.469
        54.000          47.000
  24222659.873    -5844810.50943  -4498390.75442  24222661.098    24222659.682
        44.000          38.000
  24257349.161     6191732.75843   4827801.79342  24257352.137    24257349.720
        45.000          39.000
  22010320.642     -601624.97743   -459340.86842  22010322.324    22010319.388
        52.000          45.000
 03  6 26 17  9  0.0000000  0 11G23G 2G21G18G17G 6G16G15G 3G29G26
  21651738.985   -13344742.02943 -10384220.62742  21651740.181    21651737.910
        54.000          47.000
  24921347.924    -6797349.90343  -5254565.80342  24921348.498    24921348.989
        44.000          37.000
  20671733.210    -2835728.71843  -2203107.92542  20671734.407    20671730.429
        56.000          49.000
  20444455.115    -8757416.30543  -6814446.37142  20444456.501    20444452.649
        56.000          50.000
  21521417.198     1819597.00743   1420712.77742  21521417.796    21521416.328
        53.000          46.000
  21955069.058     7277632.39443   5671782.07242  21955070.498    21955068.523
        52.000          46.000
  23650442.133    -1355920.29143  -1049718.79042  23650443.097    23650441.214
        47.000          39.000
  21285351.593   -11823960.06943  -9202562.78242  21285352.720    21285350.462
        54.000          47.000
  24210563.358    -5908386.45443  -4547930.42242  24210563.646    24210562.694
        44.000          38.000
  24267786.240     6246577.41943   4870537.86242  24267787.870    24267786.095
        45.000          39.000
  22017721.367     -562731.63843   -429034.38042  22017723.324    22017720.544
        51.000          44.000
